     2.11           OBSERVATION DATA    G (GPS)             RINEX VERSION / TYPE
teqc 2010Oct21 OPUS Account 20111028 20:02:13UTC            PGM / RUN BY / DATE
Z 1527                                                      MARKER NAME
3084                                                        MARKER NUMBER
CSMIDDLETON NGS                                             OBSERVER / AGENCY
4619K01307 TRIMBLE NETR5 4.41                               REC # / TYPE / VERS
12668873 TRM41249.00 NONE                                   ANT # / TYPE
  -701391.0333 -5594951.5217  2970775.5870                  APPROX POSITION XYZ
        1.9990        0.0000        0.0000                  ANTENNA: DELTA H/E/N
     1     1                                                WAVELENGTH FACT L1/2
     5    L1    L2    C1    P1    P2                        # / TYPES OF OBSERV
    15                                                      LEAP SECONDS
  2011     8    26     0     0    0.0000000     GPS         TIME OF FIRST OBS
                                                            END OF HEADER
 11  8 26  0  0  0.0000000  0  9G10G12G05G17G04G09G25G30G02
 109656607.75818  85446816.25656  20866927.273                    20866937.105
 112499592.81418  87662082.78117  21407959.875                    21407969.430
 114609547.33517  89306241.85517  21809453.953                    21809464.719
 122096218.15917  95140034.88416  23234153.492                    23234164.902
 114684400.03718  89364599.47955  21823695.836                    21823706.484
 125039188.74516  97433037.62953  23794142.977                    23794157.480
 126400211.63817  98493735.02916  24053167.422                    24053181.176
 126828691.64116  98827614.50453  24134701.211                    24134712.469
 108544383.49618  84580240.14756  20655299.727                    20655307.320
 11  8 26  0  0 30.0000000  0  9G10G12G05G17G04G09G25G30G02
 109663585.263 8  85452253.30446  20868254.844                    20868265.223
 112441735.531 8  87616999.242 7  21396949.844                    21396959.004
 114522775.063 7  89238627.205 7  21792941.688                    21792953.012
 122148893.142 7  95181080.315 6  23244177.063                    23244188.734
 114761588.230 8  89424746.10345  21838384.961                    21838395.500
 125117364.296 6  97493953.50243  23809019.125                    23809034.703
 126301854.675 7  98417093.300 6  24034451.016                    24034464.387
 126727807.409 6  98749003.49343  24115503.180                    24115514.496
 108546185.166 8  84581644.06246  20655642.727                    20655650.309
 11  8 26  0  1  0.0000000  0  9G10G12G05G17G04G09G25G30G02
 109671193.581 8  85458181.89946  20869702.688                    20869712.906
 112384321.055 8  87572260.743 7  21386024.211                    21386033.887
 114436335.518 8  89171271.825 7  21776492.266                    21776503.395
 122201732.493 7  95222253.792 6  23254232.234                    23254243.906
 114838891.000 7  89484982.02845  21853094.695                    21853105.281
 125195677.702 6  97554976.76843  23823921.742                    23823936.500
 126203689.085 7  98340600.690 6  24015770.820                    24015784.168
 126627159.313 6  98670576.45443  24096351.156                    24096361.859
 108548259.218 8  84583260.22346  20656037.430                    20656044.863
 11  8 26  0  1 30.0000000  0  9G10G12G05G17G04G09G25G30G02
 109679432.908 8  85464602.17546  20871270.625                    20871280.320
 112327351.882 8  87527869.232 7  21375183.508                    21375192.883
 114350231.170 7  89104177.624 7  21760107.469                    21760118.051
 122254736.582 7  95263555.651 6  23264318.523                    23264330.590
 114916306.622 7  89545305.88145  21867826.195                    21867837.172
 125274125.729 6  97616104.95644  23838850.039                    23838864.449
 126105717.441 7  98264259.214 6  23997127.125                    23997140.625
 126526750.176 6  98592335.58243  24077243.664                    24077254.332
 108550604.267 8  84585087.55746  20656483.836                    20656491.074
 11  8 26  0  2  0.0000000  0  9G10G12G05G17G04G09G25G30G02
 109688302.679 8  85471513.71346  20872958.500                    20872968.457
 112270830.383 8  87483826.558 7  21364428.008                    21364436.965
 114264464.919 7  89037346.877 7  21743786.469                    21743796.688
 122307905.736 7  95304986.134 7  23274435.953                    23274448.180
 114993833.191 7  89605716.19245  21882579.078                    21882590.215
 125352705.053 7  97677335.41844  23853803.055                    23853818.789
 126007942.440 7  98188070.966 6  23978521.055                    23978534.211
 126426582.799 6  98514283.15443  24058182.227                    24058193.422
 108553219.115 8  84587125.11046  20656981.461                    20656988.531
 11  8 26  0  2 30.0000000  0  9G10G12G05G17G04G09G25G30G02
 109697802.669 8  85478916.33846  20874766.305                    20874776.246
 112214758.845 8  87440134.502 7  21353757.555                    21353766.805
 114179039.583 7  88970781.786 7  21727530.656                    21727541.543
 122361240.949 7  95346546.004 6  23284585.766                    23284597.609
 115071468.795 7  89666211.46145  21897352.953                    21897363.980
 125431412.204 6  97738665.49444  23868780.977                    23868796.285
 125910366.822 7  98112038.090 6  23959952.539                    23959966.172
 126326660.147 6  98436421.36843  24039167.414                    24039178.699
 108556102.882 8  84589372.22446  20657529.750                    20657537.039
 11  8 26  0  3  0.0000000  0  9G10G12G05G17G04G09G25G30G02
 109707932.988 8  85486810.12646  20876693.875                    20876704.141
 112159139.680 8  87396794.944 7  21343173.789                    21343183.195
 114093957.938 7  88904484.499 7  21711339.797                    21711350.734
 122414742.547 7  95388235.510 6  23294766.461                    23294778.438
 115149211.698 8  89726790.33645  21912146.992                    21912157.277
 125510243.860 6  97800092.58044  23883782.563                    23883797.285
 125812993.124 7  98036162.570 6  23941423.414                    23941436.789
 126226985.043 6  98358752.49143  24020199.820                    24020211.207
 108559254.045 8  84591827.68546  20658129.453                    20658136.938
 11  8 26  0  3 30.0000000  0  9G10G12G05G17G04G09G25G30G02
 109718693.292 8  85495194.80746  20878741.688                    20878751.711
 112103974.710 8  87353809.302 7  21332676.227                    21332685.207
 114009222.904 8  88838457.305 7  21695215.680                    21695226.168
 122468411.171 7  95430055.164 6  23304979.547                    23304991.594
 115227059.857 8  89787451.21845  21926960.719                    21926971.125
 125589196.791 7  97861614.19544  23898806.203                    23898822.305
 125715823.967 7  97960446.432 6  23922932.281                    23922945.836
 126127560.299 7  98281278.67543  24001280.477                    24001291.262
 108562671.784 8  84594490.88746  20658780.125                    20658787.406
 11  8 26  0  4  0.0000000  0  9G10G12G05G17G04G09G25G30G02
 109730083.262 8  85504070.14946  20880909.047                    20880918.684
 112049265.853 8  87311179.075 7  21322265.422                    21322274.535
 113924836.826 7  88772702.001 7  21679157.109                    21679167.641
 122522247.208 7  95472005.274 6  23315224.063                    23315236.188
 115305011.187 8  89848192.48845  21941794.492                    21941805.176
 125668267.402 7  97923227.49644  23913853.281                    23913868.793
 125618861.699 7  97884891.505 6  23904480.906                    23904495.152
 126028388.363 6  98204001.85943  23982408.977                    23982419.648
 108566353.954 8  84597360.12146  20659480.469                    20659487.617
 11  8 26  0  4 30.0000000  0  9G10G12G05G17G04G09G25G30G02
 109742102.598 8  85513435.89046  20883196.367                    20883206.180
 111995015.686 8  87268906.244 7  21311941.984                    21311951.141
 113840802.620 7  88707220.897 7  21663166.094                    21663176.398
 122576251.280 7  95514086.300 6  23325501.172                    23325512.559
 115383064.195 7  89909013.00445  21956647.688                    21956657.797
 125747452.647 6  97984930.12544  23928921.594                    23928937.387
 125522109.354 7  97809500.145 7  23886069.797                    23886083.246
 125929472.431 6  98126924.54343  23963585.563                    23963596.371
 108570300.323 8  84600435.21946  20660231.305                    20660238.852
 11  8 26  0  5  0.0000000  0  9G10G12G05G17G04G09G25G30G02
 109754751.400 8  85523292.13746  20885603.445                    20885613.109
 111941227.111 8  87226993.101 7  21301706.188                    21301715.609
 113757123.425 8  88642016.424 7  21647242.250                    21647252.965
 122630424.123 7  95556298.873 6  23335809.047                    23335821.324
 115461217.162 8  89969911.39245  21971518.938                    21971529.719
 125826749.281 7  98046719.51344  23944011.227                    23944026.863
 125425569.761 7  97734274.561 6  23867698.695                    23867711.855
 125830815.567 6  98050049.15043  23944811.203                    23944822.887
 108574509.934 8  84603715.44346  20661032.578                    20661040.109
 11  8 26  0  5 30.0000000  0  9G10G12G05G17G04G09G25G30G02
 109768029.016 8  85533638.36346  20888129.695                    20888139.984
 111887901.423 8  87185440.640 7  21291559.063                    21291567.973
 113673801.790 8  88577090.564 7  21631386.578                    21631397.320
 122684766.029 7  95598643.171 6  23346150.172                    23346161.758
 115539468.286 7  90030886.26045  21986409.969                    21986421.137
 125906153.681 6  98108592.85744  23959122.031                    23959137.285
 125329245.382 7  97659216.658 6  23849368.805                    23849382.094
 125732420.391 6  97973377.64443  23926086.898                    23926098.637
 108578981.267 8  84607199.61246  20661883.344                    20661890.594
 11  8 26  0  6  0.0000000  0  9G10G12G05G17G04G09G25G30G02
 109781935.297 8  85544474.45446  20890776.086                    20890786.191
 111835040.580 8  87144250.393 7  21281499.875                    21281508.754
 113590840.137 8  88512445.216 7  21615599.422                    21615609.922
 122739277.866 7  95641119.871 6  23356524.375                    23356535.766
 115617815.580 7  90091936.06245  22001319.414                    22001329.734
 125985662.423 6  98170547.53344  23974252.258                    23974267.965
 125233138.829 7  97584328.490 7  23831080.477                    23831093.840
 125634289.685 6  97896912.25343  23907413.531                    23907425.086
 108583712.940 8  84610886.64146  20662783.891                    20662790.918
 11  8 26  0  6 30.0000000  0  9G10G12G05G17G04G09G25G30G02
 109796469.648 8  85555799.95146  20893541.844                    20893552.395
 111782646.805 8  87103424.087 7  21271529.445                    21271538.734
 113508241.383 8  88448082.626 7  21599881.211                    21599891.762
 122793959.908 7  95683729.221 6  23366929.758                    23366941.285
 115696256.999 7  90153059.22145  22016246.180                    22016256.676
 126065272.218 6  98232580.92744  23989401.281                    23989416.668
 125137252.599 7  97509611.988 7  23812834.008                    23812847.297
 125536426.147 6  97820655.07043  23888790.359                    23888802.145
 108588703.610 8  84614775.48546  20663733.523                    20663740.352
 11  8 26  0  7  0.0000000  0  9G10G12G05G17G04G09G25G30G02
 109811631.295 8  85567614.24446  20896427.016                    20896437.109
 111730722.338 8  87062963.490 7  21261648.266                    21261657.734
 113426008.147 8  88384004.866 7  21584233.109                    21584243.152
 122848812.679 7  95726471.585 6  23377367.969                    23377379.441
 115774791.110 7  90214254.59645  22031190.430                    22031201.496
 126144979.917 6  98294690.63743  24004569.375                    24004584.840
 125041589.412 7  97435069.283 6  23794629.477                    23794643.063
 125438832.629 6  97744608.26143  23870219.172                    23870230.707
 108593952.223 8  84618865.31746  20664732.094                    20664739.488
 11  8 26  0  7 30.0000000  0  9G10G12G05G17G04G09G25G30G02
 109827420.418 8  85579917.48146  20899431.375                    20899441.375
 111679269.847 8  87022870.649 7  21251857.344                    21251866.555
 113344143.363 8  88320214.211 7  21568654.461                    21568665.129
 122903836.508 7  95769347.259 6  23387838.758                    23387849.949
 115853416.497 7  90275521.08645  22046152.664                    22046163.547
 126224782.457 6  98356874.21643  24019755.039                    24019771.324
 124946152.507 7  97360702.892 7  23776468.563                    23776481.367
 125341512.477 6  97668774.46143  23851700.148                    23851711.281
 108599458.249 8  84623155.73946  20665780.078                    20665787.527
 11  8 26  0  8  0.0000000  0  9G10G12G05G17G04G09G25G30G02
 109843836.010 8  85592708.88646  20902555.406                    20902565.395
 111628291.164 8  86983147.011 7  21242156.273                    21242165.668
 113262649.433 8  88256712.534 7  21553146.797                    21553156.734
 122959032.306 7  95812356.909 6  23398341.672                    23398353.648
 115932130.901 7  90336856.94545  22061131.820                    22061142.168
 126304676.087 6  98419128.81544  24034958.797                    24034974.648
 124850943.999 7  97286514.480 6  23758350.703                    23758364.215
 125244467.973 6  97593155.44743  23833232.383                    23833244.301
 108605219.652 8  84627645.15946  20666876.398                    20666883.793
 11  8 26  0  8 30.0000000  0  9G10G12G05G17G04G09G25G30G02
 109860878.013 8  85605988.37846  20905798.422                    20905808.410
 111577788.218 8  86943794.072 7  21232545.602                    21232555.301
 113181529.468 8  88193502.252 7  21537709.953                    21537720.285
 123014400.542 7  95855500.934 6  23408877.930                    23408889.531
 116010932.559 7  90398260.79345  22076127.102                    22076137.484
 126384657.570 6  98481451.88144  24050179.328                    24050194.715
 124755966.712 7  97212506.235 7  23740277.172                    23740290.484
 125147702.168 6  97517753.60343  23814818.461                    23814829.598
 108611235.818 8  84632333.09346  20668021.047                    20668028.000
 11  8 26  0  9  0.0000000  0  9G10G12G05G17G04G09G25G30G02
 109878545.414 8  85619755.20046  20909160.203                    20909170.020
 111527762.815 8  86904813.239 7  21223026.422                    21223035.430
 113100785.589 8  88130585.032 7  21522344.781                    21522355.227
 123069941.455 6  95898779.532 6  23419446.844                    23419459.121
 116089819.729 7  90459731.27445  22091138.641                    22091149.344
 126464723.608 6  98543840.80644  24065414.844                    24065431.602
 124661223.222 7  97138680.182 6  23722247.828                    23722261.379
 125051217.715 6  97442570.99243  23796458.578                    23796469.988
 108617505.024 8  84637218.20046  20669214.539                    20669221.672
 11  8 26  0  9 30.0000000  0  9G10G12G05G17G04G09G25G30G02
 109896838.068 8  85634009.24046  20912640.883                    20912650.941
 111478217.254 8  86866206.309 7  21213598.367                    21213607.234
 113020420.724 8  88067963.135 7  21507051.391                    21507062.066
 123125655.592 7  95942193.110 6  23430049.227                    23430061.230
 116168790.761 7  90521267.09445  22106166.992                    22106176.625
 126544870.998 6  98606293.09943  24080667.094                    24080683.012
 124566716.305 7  97065038.497 7  23704263.523                    23704277.723
 124955017.499 6  97367609.86043  23778152.141                    23778163.102
 108624026.240 8  84642299.68646  20670455.430                    20670462.203
 11  8 26  0 10  0.0000000  0  9G10G12G05G17G04G09G25G30G02
 109915755.313 8  85648749.96846  20916241.031                    20916250.695
 111429153.671 8  86827974.957 7  21204261.844                    21204270.648
 112940437.367 8  88005638.524 7  21491831.391                    21491841.605
 123181543.479 7  95985742.069 6  23440684.297                    23440696.301
 116247843.909 7  90582866.91845  22121210.008                    22121220.598
 126625096.526 6  98668806.28644  24095933.172                    24095949.809
 124472448.676 7  96991583.279 7  23686325.664                    23686338.977
 124859104.453 7  97292872.50143  23759899.656                    23759911.281
 108630798.490 8  84647576.78046  20671743.836                    20671750.906
 11  8 26  0 10 30.0000000  0  9G10G12G05G17G04G09G25G30G02
 109935296.269 8  85663976.70846  20919959.375                    20919968.977
 111380573.573 8  86790120.348 7  21195017.219                    21195026.309
 112860838.154 8  87943613.237 7  21476684.219                    21476694.445
 123237605.685 7  96029426.856 6  23451352.563                    23451365.156
 116326977.414 7  90644529.34245  22136268.813                    22136279.219
 126705396.623 7  98731377.56444  24111214.172                    24111230.465
 124378422.867 7  96918316.509 7  23668433.078                    23668446.625
 124763481.201 6  97218360.92043  23741704.008                    23741714.629
 108637820.148 8  84653048.22646  20673079.750                    20673087.441
 11  8 26  0 11  0.0000000  0  9G10G12G05G17G04G09G25G30G02
 109955460.370 8  85679689.01946  20923796.445                    20923806.281
 111332479.858 8  86752644.743 7  21185865.070                    21185874.582
 112781626.188 8  87881889.701 7  21461610.648                    21461620.719
 123293842.650 7  96073247.823 7  23462054.563                    23462067.082
 116406189.601 7  90706253.08745  22151342.195                    22151352.883
 126785768.309 7  98794004.65643  24126508.867                    24126525.258
 124284641.679 7  96845240.360 7  23650587.063                    23650599.617
 124668150.763 7  97144077.51243  23723563.031                    23723574.102
 108645090.390 8  84658713.37546  20674463.734                    20674470.891
 11  8 26  0 11 30.0000000  0  9G10G12G05G17G04G09G25G30G02
 109976246.765 8  85695886.22446  20927752.242                    20927762.176
 111284873.575 8  86715548.959 7  21176806.070                    21176815.586
 112702803.433 8  87820469.453 7  21446610.875                    21446621.305
 123350254.778 7  96117205.293 6  23472789.063                    23472801.852
 116485478.782 7  90768036.82545  22166430.305                    22166440.945
 126866208.185 7  98856684.87543  24141815.477                    24141831.754
 124191107.671 7  96772356.810 7  23632788.219                    23632801.121
 124573115.761 7  97070024.27643  23705478.211                    23705488.973
 108652607.834 8  84664571.13946  20675894.242                    20675901.547
 11  8 26  0 12  0.0000000  0  9G10G12G05G17G04G09G25G30G02
 109997655.111 8  85712568.06446  20931826.031                    20931836.129
 111237757.241 8  86678834.962 7  21167839.680                    21167849.555
 112624372.542 8  87759354.533 7  21431685.938                    21431696.047
 123406842.522 7  96161299.596 6  23483557.672                    23483569.391
 116564843.310 7  90829879.26845  22181532.938                    22181543.332
 126946713.189 7  98919415.85244  24157136.586                    24157151.906
 124097823.585 7  96699668.019 6  23615036.750                    23615049.547
 124478379.217 7  96996203.60743  23687450.477                    23687461.172
 108660371.280 8  84670620.60546  20677371.305                    20677378.488
 11  8 26  0 12 30.0000000  0  9G10G12G05G17G04G09G25G30G02
 110019684.110 8  85729733.53246  20936017.844                    20936027.707
 111191132.272 8  86642503.847 7  21158967.719                    21158976.582
 112546336.208 8  87698547.072 7  21416836.398                    21416846.566
 123463606.541 7  96205531.269 6  23494359.023                    23494371.563
 116644281.314 7  90891778.96045  22196650.172                    22196660.230
 127027279.532 7  98982194.62844  24172467.234                    24172483.422
 124004791.879 7  96627175.889 6  23597333.281                    23597346.262
 124383943.630 6  96922617.45643  23669479.938                    23669490.504
 108668379.304 8  84676860.64446  20678894.828                    20678902.035
 11  8 26  0 13  0.0000000  0  9G10G12G05G17G04G09G25G30G02
 110042333.329 8  85747382.29446  20940327.805                    20940337.699
 111145000.990 8  86606557.417 7  21150188.859                    21150198.184
 112468697.086 8  87638049.116 7  21402061.633                    21402072.430
 123520547.108 7  96249900.531 6  23505195.461                    23505206.836
 116723791.512 7  90953734.92645  22211779.906                    22211790.727
 127107904.364 6  99045018.97043  24187809.898                    24187826.184
 123912015.502 7  96554882.726 6  23579677.789                    23579691.336
 124289812.230 6  96849268.35843  23651567.211                    23651578.031
 108676631.177 8  84683290.70146  20680465.461                    20680472.238
 11  8 26  0 13 30.0000000  0  9G10G12G05G17G04G09G25G30G02
 110065601.962 8  85765513.70346  20944755.539                    20944765.898
 111099365.562 8  86570997.368 7  21141505.039                    21141514.539
 112391457.950 8  87577862.846 7  21387363.563                    21387373.699
 123577665.003 7  96294407.925 6  23516064.477                    23516075.492
 116803371.920 7  91015745.60345  22226923.508                    22226934.691
 127188584.257 6  99107886.18843  24203162.258                    24203178.789
 123819497.130 7  96482790.598 6  23562072.555                    23562085.520
 124195987.663 6  96776158.35743  23633712.867                    23633723.465
 108685125.583 8  84689909.74146  20682081.836                    20682089.051
 11  8 26  0 14  0.0000000  0  9G10G12G05G17G04G09G25G30G02
 110089489.007 7  85784127.00046  20949301.227                    20949311.324
 111054228.138 8  86535825.380 7  21132915.383                    21132924.855
 112314621.428 8  87517990.296 7  21372742.219                    21372752.520
 123634960.415 7  96339053.664 6  23526967.555                    23526978.848
 116883021.080 8  91077809.84945  22242080.242                    22242091.199
 127269316.231 6  99170793.98943  24218525.742                    24218541.629
 123727239.472 7  96410901.621 7  23544516.398                    23544528.910
 124102472.893 6  96703289.73243  23615917.523                    23615928.191
 108693861.371 8  84696716.87846  20683744.219                    20683751.484
 11  8 26  0 14 30.0000000  0  9G10G12G05G17G04G09G25G30G02
 110113994.041 8  85803221.84546  20953964.375                    20953974.082
 111009590.076 8  86501042.496 7  21124421.180                    21124430.324
 112238189.535 8  87458433.037 7  21358197.445                    21358207.582
 123692433.697 6  96383838.020 6  23537903.938                    23537915.336
 116962737.438 7  91139926.45245  22257249.930                    22257261.074
 127350096.936 6  99233739.82143  24233898.000                    24233914.039
 123635245.081 7  96339217.777 7  23527009.922                    23527023.309
 124009270.672 6  96630664.68643  23598181.641                    23598192.891
 108702837.138 8  84703711.01346  20685451.891                    20685459.695
 11  8 26  0 15  0.0000000  0  9G10G12G05G17G04G09G25G30G02
 110139116.191 8  85822797.56046  20958745.422                    20958755.020
 110965453.095 8  86466650.060 7  21116022.359                    21116031.250
 112162164.936 8  87399193.168 7  21343730.523                    21343740.402
 123750085.333 6  96428761.338 6  23548874.539                    23548885.527
 117042519.087 7  91202093.94445  22272431.836                    22272442.816
 127430923.135 6  99296721.05443  24249278.656                    24249295.219
 123543516.644 7  96267741.162 6  23509554.977                    23509567.523
 123916383.700 6  96558285.29843  23580506.305                    23580516.980
 108712051.486 8  84710891.04846  20687205.766                    20687212.672
 11  8 26  0 15 30.0000000  0  9G10G12G05G17G04G09G25G30G02
 110164854.418 8  85842853.33846  20963642.781                    20963652.637
 110921819.293 8  86432649.719 7  21107719.031                    21107728.195
 112086550.458 8  87340272.853 7  21329341.773                    21329351.676
 123807915.958 7  96473824.136 6  23559880.086                    23559891.328
 117122364.511 7  91264311.13345  22287626.016                    22287637.063
 127511791.653 6  99359735.30543  24264668.109                    24264684.172
 123452056.798 7  96196473.825 6  23492150.289                    23492163.301
 123823814.773 6  96486153.75743  23562891.164                    23562901.969
 108721503.548 8  84718256.32046  20689004.250                    20689011.371
 11  8 26  0 16  0.0000000  0  9G10G12G05G17G04G09G25G30G02
 110191207.317 8  85863388.08546  20968657.359                    20968667.320
 110878690.269 8  86399042.711 7  21099511.531                    21099520.586
 112011348.161 8  87281673.728 7  21315030.500                    21315040.902
 123865925.629 7  96519026.428 6  23570918.438                    23570929.922
 117202272.086 7  91326576.75845  22302831.719                    22302843.309
 127592699.276 6  99422779.97343  24280063.977                    24280080.359
 123360868.239 7  96125417.887 6  23474798.000                    23474810.637
 123731566.735 6  96414272.27543  23545336.570                    23545347.477
 108731191.944 8  84725805.74246  20690847.523                    20690855.309
 11  8 26  0 16 30.0000000  0  9G10G12G05G17G04G09G25G30G02
 110218174.122 8  85884401.19646  20973789.266                    20973799.398
 110836068.137 8  86365830.667 7  21091401.289                    21091410.254
 111936561.011 7  87223398.093 7  21300799.469                    21300809.426
 123924115.063 7  96564368.807 6  23581991.539                    23582003.281
 117282240.326 7  91388889.65545  22318049.086                    22318060.379
 127673642.707 6  99485852.54043  24295466.984                    24295483.609
 123269953.732 7  96054575.477 6  23457496.695                    23457510.066
 123639642.477 6  96342643.09843  23527843.625                    23527854.973
 108741115.562 8  84733538.45746  20692736.266                    20692743.422
 11  8 26  0 17  0.0000000  0  9G10G12G05G17G04G09G25G30G02
 110245754.161 8  85905892.15146  20979037.547                    20979047.484
 110793955.001 8  86333015.256 7  21083387.328                    21083396.418
 111862191.349 8  87165447.773 7  21286647.398                    21286657.480
 123982484.758 7  96609851.644 6  23593099.344                    23593111.277
 117362267.791 7  91451248.68945  22333277.797                    22333288.789
 127754618.724 6  99548950.49943  24310876.766                    24310892.844
 123179316.009 7  95983948.735 6  23440249.289                    23440262.324
 123548044.861 7  96271268.42244  23510412.984                    23510424.027
 108751273.278 8  84741453.58546  20694669.156                    20694676.035
 11  8 26  0 17 30.0000000  0  9G10G12G05G17G04G09G25G30G02
 110273945.965 8  85927859.80246  20984402.094                    20984411.930
 110752352.100 8  86300597.422 7  21075470.500                    21075479.559
 111788241.449 8  87107824.535 7  21272575.094                    21272585.703
 124041034.831 7  96655475.045 6  23604240.383                    23604252.824
 117442352.466 7  91513652.31245  22348517.781                    22348528.891
 127835624.067 6  99612071.26843  24326291.953                    24326308.727
 123088957.489 7  95913539.551 7  23423054.188                    23423067.727
 123456776.260 6  96200150.14743  23493044.852                    23493055.887
 108761663.271 8  84749549.70246  20696646.500                    20696653.660
 11  8 26  0 18  0.0000000  0  9G10G12G05G17G04G09G25G30G02
 110302748.613 8  85950303.43746  20989883.281                    20989892.895
 110711261.361 8  86268578.670 7  21067650.969                    21067660.230
 111714713.693 8  87050530.246 7  21258582.914                    21258593.609
 124099765.716 7  96701239.349 6  23615416.750                    23615429.414
 117522493.024 7  91576099.47945  22363768.609                    22363778.516
 127916655.702 6  99675212.58343  24341711.758                    24341728.250
 122998880.993 7  95843350.122 6  23405913.313                    23405926.480
 123365839.847 7  96129290.70244  23475741.133                    23475751.926
 108772284.896 8  84757826.32346  20698667.234                    20698674.797
 11  8 26  0 18 30.0000000  0  9G10G12G05G17G04G09G25G30G02
 110332161.167 8  85973222.32846  20995480.500                    20995490.320
 110670684.552 8  86236960.393 7  21059929.469                    21059939.117
 111641610.916 8  86993567.103 7  21244672.094                    21244682.348
 124158677.788 7  96747144.809 6  23626627.234                    23626639.813
 117602688.062 7  91638589.10045  22379028.477                    22379039.137
 127997710.518 6  99738371.98043  24357135.805                    24357152.566
 122909089.278 7  95773382.575 6  23388827.281                    23388839.707
 123275238.338 7  96058692.22144  23458499.813                    23458510.648
 108783137.053 8  84766282.56946  20700732.266                    20700739.910
 11  8 26  0 19  0.0000000  0  9G10G12G05G17G04G09G25G30G02
 110362182.716 8  85996615.76146  21001192.828                    21001202.977
 110630623.604 8  86205744.073 7  21052306.297                    21052315.168
 111568935.577 8  86936937.047 7  21230842.234                    21230852.867
 124217771.675 7  96793191.939 7  23637872.398                    23637884.809
 117682935.945 7  91701119.91545  22394299.578                    22394310.258
 128078785.275 6  99801546.87443  24372563.875                    24372581.000
 122819584.970 7  95703639.017 6  23371794.914                    23371807.922
 123184974.453 7  95988356.81844  23441322.930                    23441333.703
 108794218.454 8  84774917.44246  20702841.258                    20702848.570
 11  8 26  0 19 30.0000000  0  9G10G12G05G17G04G09G25G30G02
 110392812.042 8  86020482.79246  21007021.477                    21007031.684
 110591080.492 8  86174931.265 7  21044781.492                    21044790.531
 111496689.650 8  86880641.575 7  21217094.664                    21217104.961
 124277047.901 6  96839381.149 7  23649152.422                    23649165.133
 117763235.191 7  91763690.72544  22409579.711                    22409590.145
 128159876.884 6  99864734.93443  24387995.328                    24388012.586
 122730370.806 7  95634121.545 7  23354817.727                    23354830.980
 123095051.022 6  95918286.70944  23424211.055                    23424222.090
 108805527.908 8  84783730.03546  20704993.516                    20705000.301
 11  8 26  0 20  0.0000000  0  9G10G12G05G17G04G09G25G30G02
 110424048.119 8  86044822.60446  21012965.484                    21012975.492
 110552056.811 8  86144523.214 7  21037355.422                    21037364.652
 111424876.064 8  86824682.995 7  21203428.711                    21203438.898
 124336506.694 6  96885712.629 6  23660467.258                    23660479.449
 117843584.244 7  91826300.36645  22424869.945                    22424880.496
 128240982.036 6  99927933.52043  24403429.352                    24403446.141
 122641449.455 7  95564832.223 6  23337896.539                    23337908.992
 123005470.869 7  95848484.07944  23407164.430                    23407175.324
 108817064.224 8  84792719.39846  20707188.594                    20707196.074
 11  8 26  0 20 30.0000000  0  9G10G12G05G17G04G09G25G30G02
 110455889.599 8  86069634.16346  21019025.109                    21019034.703
 110513553.649 8  86114520.759 7  21030028.555                    21030037.652
 111353496.725 8  86769062.799 7  21189845.727                    21189855.824
 124396148.460 6  96932186.664 6  23671816.922                    23671829.059
 117923981.472 7  91888947.53245  22440168.500                    22440179.348
 128322097.524 6  99991140.14843  24418865.781                    24418882.621
 122552823.427 7  95495773.034 6  23321031.211                    23321044.273
 122916236.611 7  95778950.95244  23390183.609                    23390194.648
 108828825.992 8  84801884.43146  20709427.250                    20709434.035
 11  8 26  0 21  0.0000000  0  9G10G12G05G17G04G09G25G30G02
 110488334.933 7  86094916.25446  21025199.156                    21025208.855
 110475572.713 8  86084925.229 7  21022801.344                    21022810.250
 111282554.008 8  86713782.822 7  21176345.375                    21176355.367
 124455973.222 6  96978803.308 6  23683201.313                    23683213.055
 118004425.426 7  91951631.10445  22455476.672                    22455487.707
 128403220.270 6 100054352.40443  24434302.672                    24434319.543
 122464495.437 7  95426946.063 7  23304223.109                    23304236.453
 122827351.008 7  95709689.51944  23373268.578                    23373280.324
 108840811.980 8  84811224.17846  20711707.750                    20711714.996
 11  8 26  0 21 30.0000000  0  9G10G12G05G17G04G09G25G30G02
 110521383.142 8  86120668.12446  21031487.914                    21031497.949
 110438115.855 8  86055738.073 7  21015673.406                    21015682.484
 111212050.454 7  86658845.043 7  21162929.492                    21162939.184
 124515981.569 6  97025563.006 6  23694620.055                    23694632.930
 118084914.691 7  92014349.98944  22470793.258                    22470804.242
 128484347.116 6 100117567.87843  24449741.141                    24449757.852
 122376468.136 7  95358353.416 7  23287472.156                    23287484.988
 122738816.803 6  95640701.88244  23356421.695                    23356432.578
 108853020.988 8  84820737.70046  20714031.133                    20714038.117
 11  8 26  0 22  0.0000000  0  9G10G12G05G17G04G09G25G30G02
 110555032.851 8  86146888.69546  21037890.836                    21037900.988
 110401184.562 8  86026960.453 7  21008645.547                    21008654.613
 111141988.171 8  86604251.117 7  21149596.539                    21149606.469
 124576173.816 6  97072465.979 6  23706074.016                    23706086.727
 118165447.572 7  92077102.86944  22486118.188                    22486129.371
 128565474.588 6 100180783.82544  24465179.875                    24465196.266
 122288743.977 7  95289996.984 7  23270778.320                    23270791.762
 122650636.702 7  95571990.18044  23339641.148                    23339652.055
 108865451.356 8  84830423.70546  20716396.250                    20716403.574
 11  8 26  0 22 30.0000000  0  9G10G12G05G17G04G09G25G30G02
 110589283.551 8  86173577.55946  21044408.922                    21044418.637
 110364781.589 8  85998594.515 7  21001717.961                    21001727.176
 111072370.282 8  86550003.481 7  21136348.914                    21136358.754
 124636550.578 6  97119512.709 6  23717564.094                    23717576.324
 118246022.937 7  92139888.85444  22501451.188                    22501462.414
 128646600.224 6 100243998.34844  24480617.313                    24480635.137
 122201326.217 7  95221879.281 6  23254143.547                    23254156.551
 122562813.910 7  95503556.89744  23322929.297                    23322939.953
 108878103.203 8  84840282.29546  20718803.836                    20718811.074
 11  8 26  0 23  0.0000000  0  9G10G12G05G17G04G09G25G30G02
 110624132.979 8  86200732.97746  21051040.344                    21051049.953
 110328907.471 8  85970640.676 7  20994891.477                    20994900.688
 111003198.199 8  86496103.211 7  21123185.523                    21123195.688
 124697111.755 6  97166703.180 6  23729088.148                    23729100.527
 118326639.173 7  92202706.66445  22516791.805                    22516802.984
 128727720.678 6 100307208.85243  24496054.063                    24496071.680
 122114217.146 7  95154002.122 7  23237567.383                    23237580.031
 122475350.776 6  95435403.86944  23306285.820                    23306295.949
 108890974.300 8  84850311.72646  20721253.336                    20721260.277
 11  8 26  0 23 30.0000000  0  9G10G12G05G17G04G09G25G30G02
 110659579.873 8  86228353.95546  21057785.828                    21057795.824
 110293563.692 8  85943100.083 7  20988165.781                    20988175.133
 110934474.462 8  86442552.307 7  21110108.125                    21110118.129
 124757858.011 6  97214037.872 6  23740647.875                    23740660.004
 118407294.828 7  92265555.19345  22532140.180                    22532151.363
 128808832.951 6 100370412.95643  24511489.305                    24511506.848
 122027419.396 7  95086367.542 7  23221050.445                    23221063.180
 122388250.052 6  95367533.23444  23289710.648                    23289721.766
 108904064.060 8  84860511.55146  20723744.305                    20723751.543
 11  8 26  0 24  0.0000000  0  9G10G12G05G17G04G09G25G30G02
 110695622.765 8  86256439.33446  21064644.578                    21064654.008
 110258751.306 8  85915973.560 7  20981541.453                    20981550.234
 110866201.277 8  86389352.485 7  21097115.953                    21097126.152
 124818789.538 6  97261516.930 6  23752242.852                    23752254.227
 118487988.225 7  92328433.13744  22547495.586                    22547506.996
 128889933.262 6 100433607.67843  24526922.195                    24526939.945
 121940935.401 7  95018977.456 6  23204592.953                    23204605.520
 122301514.309 7  95299946.99944  23273205.203                    23273216.313
 108917370.471 8  84870880.18846  20726276.281                    20726283.285
 11  8 26  0 24 30.0000000  0  9G10G12G05G17G04G09G25G30G02
 110732260.601 8  86284988.31446  21071616.344                    21071626.105
 110224472.689 8  85889262.976 7  20975018.055                    20975027.477
 110798380.964 8  86336505.549 7  21084210.219                    21084220.457
 124879906.729 6  97309140.690 6  23763872.680                    23763885.266
 118568718.131 7  92391339.53645  22562858.055                    22562869.438
 128971018.924 6 100496791.01143  24542352.367                    24542369.836
 121854767.972 7  94951834.036 7  23188195.805                    23188208.367
 122215146.450 7  95232647.42344  23256770.586                    23256780.734
 108930892.654 8  84881416.95846  20728849.625                    20728856.539
 11  8 26  0 25  0.0000000  0  9G10G12G05G17G04G09G25G30G02
 110769492.394 8  86314000.10046  21078701.391                    21078710.766
 110190729.410 8  85862969.530 7  20968597.141                    20968606.500
 110731015.909 8  86284013.359 7  21071391.078                    21071400.980
 124941209.991 6  97356909.438 6  23775538.781                    23775551.168
 118649483.198 7  92454273.32044  22578226.891                    22578238.641
 129052087.173 6 100559960.80543  24557778.539                    24557797.094
 121768919.930 7  94884939.492 7  23171859.063                    23171871.938
 122129149.286 7  95165636.68244  23240405.508                    23240415.941
 108944629.775 8  84892121.21846  20731463.336                    20731470.836
 11  8 26  0 25 30.0000000  0  9G10G12G05G17G04G09G25G30G02
 110807315.858 8  86343472.93246  21085899.055                    21085908.672
 110157522.548 8  85837094.071 7  20962277.992                    20962287.332
 110664107.851 8  86231877.265 8  21058658.695                    21058668.883
 125002699.660 6  97404823.401 6  23787240.172                    23787251.723
 118730281.652 7  92517233.12844  22593602.359                    22593614.234
 129133134.453 6 100623114.25443  24573202.359                    24573220.488
 121683393.484 7  94818295.526 7  23155584.227                    23155596.691
 122043525.088 7  95098916.58644  23224111.445                    23224122.508
 108958579.848 8  84902991.39846  20734118.313                    20734125.684
 11  8 26  0 26  0.0000000  0  9G10G12G05G17G04G09G25G30G02
 110845730.176 8  86373406.17646  21093209.008                    21093218.734
 110124854.155 7  85811638.202 7  20956061.297                    20956070.453
 110597659.717 8  86180099.556 7  21046014.141                    21046024.531
 125064375.660 6  97452882.598 6  23798976.711                    23798988.633
 118811112.872 7  92580218.45344  22608984.234                    22608995.320
 129214158.196 6 100686249.32643  24588621.625                    24588639.520
 121598191.851 7  94751904.661 7  23139370.969                    23139383.660
 121958277.207 7  95032489.71644  23207889.328                    23207899.777
 108972742.644 8  84914027.34246  20736813.391                    20736820.637
 11  8 26  0 26 30.0000000  0  9G10G12G05G17G04G09G25G30G02
 110884733.629 8  86403798.47946  21100631.125                    21100640.855
 110092725.353 8  85786602.779 7  20949947.539                    20949956.340
 110531673.539 8  86128681.823 7  21033457.422                    21033467.180
 125126238.790 6  97501087.600 6  23810749.281                    23810760.977
 118891974.988 7  92643227.85844  22624371.891                    22624382.617
 129295155.035 6 100749363.44843  24604034.781                    24604052.629
 121513317.433 7  94685768.771 7  23123220.086                    23123232.570
 121873408.161 7  94966358.04444  23191739.078                    23191750.379
 108987116.860 8  84925228.04246  20739548.711                    20739556.008
 11  8 26  0 27  0.0000000  0  9G10G12G05G17G04G09G25G30G02
 110924324.707 8  86434648.68246  21108164.898                    21108174.816
 110061137.303 8  85761988.733 7  20943936.547                    20943945.797
 110466151.342 8  86077625.616 7  21020988.523                    21020998.125
 125188288.865 6  97549438.265 6  23822556.195                    23822568.875
 118972866.681 7  92706260.30144  22639765.141                    22639775.547
 129376122.016 6 100812454.29543  24619442.898                    24619459.539
 121428772.895 7  94619889.953 6  23107131.563                    23107144.230
 121788920.494 7  94900523.53744  23175661.898                    23175672.414
 109001700.919 8  84936592.24646  20742323.492                    20742330.941
 11  8 26  0 27 30.0000000  0  9G10G12G05G17G04G09G25G30G02
 110964501.572 8  86465955.32546  21115810.648                    21115820.094
 110030091.351 8  85737797.093 7  20938028.508                    20938037.680
 110401095.137 8  86026932.525 7  21008608.938                    21008618.367
 125250526.395 6  97597935.041 6  23834399.875                    23834411.930
 119053786.357 7  92769314.57944  22655163.961                    22655174.805
 129457055.917 6 100875519.34343  24634843.703                    24634861.211
 121344560.517 7  94554269.951 7  23091105.945                    23091118.633
 121704816.741 7  94834988.17744  23159657.320                    23159668.035
 109016493.446 8  84948118.89946  20745138.813                    20745146.043
 11  8 26  0 28  0.0000000  0  9G10G12G05G17G04G09G25G30G02
 111005262.820 8  86497717.34446  21123567.531                    21123576.777
 109999588.941 8  85714028.993 7  20932224.234                    20932232.941
 110336507.043 8  85976604.188 7  20996318.125                    20996327.973
 125312951.770 6  97646578.171 6  23846278.609                    23846291.566
 119134732.635 7  92832389.57544  22670567.141                    22670578.539
 129537953.792 6 100938556.36243  24650238.156                    24650256.492
 121260682.975 7  94488910.855 7  23075144.680                    23075157.590
 121621099.545 7  94769754.02744  23143726.305                    23143736.793
 109031493.308 8  84959807.10746  20747992.773                    20748000.250
 11  8 26  0 28 30.0000000  0  9G10G12G05G17G04G09G25G30G02
 111046607.256 8  86529933.79246  21131434.813                    21131444.621
 109969631.854 8  85690685.811 7  20926523.445                    20926532.813
 110272389.351 8  85926642.409 7  20984116.898                    20984126.605
 125375564.792 6  97695367.512 6  23858194.500                    23858206.539
 119215704.537 7  92895484.51844  22685976.023                    22685987.191
 129618812.971 6 101001563.21243  24665625.531                    24665644.488
 121177143.181 7  94423814.962 7  23059247.781                    23059260.633
 121537771.813 7  94704823.34344  23127870.008                    23127880.695
 109046699.470 8  84971656.08046  20750886.641                    20750893.957
 11  8 26  0 29  0.0000000  0  9G10G12G05G17G04G09G25G30G02
 111088533.165 8  86562603.33946  21139413.078                    21139422.289
 109940221.223 8  85667768.446 7  20920926.711                    20920935.750
 110208744.345 8  85877048.950 7  20972005.500                    20972015.414
 125438366.012 6  97744303.488 6  23870144.617                    23870157.504
 119296700.660 7  92958598.35044  22701388.813                    22701399.457
 129699630.034 6 101064537.25743  24681004.906                    24681024.000
 121093943.626 7  94358984.186 7  23043415.359                    23043427.852
 121454836.164 7  94640198.19344  23112088.000                    23112097.977
 109062110.730 8  84983664.85446  20753819.281                    20753826.383
 11  8 26  0 29 30.0000000  0  9G10G12G05G17G04G09G25G30G02
 111131039.039 7  86595724.80846  21147501.336                    21147511.418
 109911358.708 8  85645278.177 7  20915434.648                    20915443.801
 110145573.979 8  85827825.346 7  20959984.859                    20959995.008
 125501356.092 6  97793386.664 6  23882131.031                    23882144.016
 119377719.574 7  93021729.94344  22716806.578                    22716817.332
 129780401.991 6 101127476.18043  24696375.875                    24696394.457
 121011087.090 7  94294420.711 7  23027648.266                    23027660.668
 121372295.329 7  94575880.66744  23096380.500                    23096391.375
 109077726.232 8  84995832.78646  20756791.141                    20756798.086
 11  8 26  0 30  0.0000000  0  9G10G12G05G17G04G09G25G30G02
 111174123.043 8  86629296.76146  21155700.125                    21155709.551
 109883045.191 8  85623215.698 7  20910046.563                    20910055.633
 110082880.558 8  85778973.385 7  20948054.734                    20948064.285
 125564534.897 6  97842616.897 6  23894153.867                    23894166.582
 119458760.157 7  93084878.43344  22732227.703                    22732238.457
 129861125.887 6 101190377.65443  24711736.727                    24711755.289
 120928576.132 7  94230126.524 7  23011946.820                    23011959.855
 121290152.022 7  94511872.90944  23080749.617                    23080759.910
 109093544.892 8  85008159.02746  20759801.063                    20759808.215
 11  8 26  0 30 30.0000000  0  9G10G12G05G17G04G09G25G30G02
 111217783.297 7  86663317.75445  21164008.234                    21164018.113
 109855281.996 8  85601582.047 7  20904763.563                    20904772.547
 110020666.074 8  85730494.631 7  20936215.555                    20936225.195
 125627902.701 6  97891994.406 6  23906212.438                    23906224.660
 119539821.043 7  93148042.71544  22747653.750                    22747664.086
 129941798.655 6 101253239.25642  24727088.016                    24727106.152
 120846413.209 7  94166103.540 7  22996311.859                    22996323.957
 121208408.752 7  94448176.88744  23065193.563                    23065204.586
 109109565.103 8  85020642.32246  20762849.867                    20762856.813
 11  8 26  0 31  0.0000000  0  9G10G12G05G17G04G09G25G30G02
 111262018.030 8  86697786.38145  21172425.930                    21172435.551
 109828070.312 8  85580378.148 7  20899585.156                    20899594.355
 109958932.380 8  85682390.507 7  20924468.000                    20924477.781
 125691459.674 7  97941519.304 6  23918307.500                    23918318.883
 119620900.856 7  93211221.75344  22763082.672                    22763093.367
 130022417.398 6 101316058.77243  24742429.961                    24742448.492
 120764600.884 7  94102353.744 7  22980743.523                    22980756.379
 121127068.009 7  94384794.49744  23049715.305                    23049726.191
 109125785.673 8  85033281.73346  20765936.242                    20765943.395
 11  8 26  0 31 30.0000000  0  9G10G12G05G17G04G09G25G30G02
 111306825.899 8  86732701.60146  21180952.305                    21180962.047
 109801411.312 8  85559604.908 7  20894512.031                    20894521.559
 109897681.432 8  85634662.544 7  20912812.156                    20912821.941
 125755205.978 7  97991191.755 6  23930437.453                    23930448.977
 119701998.321 7  93274414.55044  22778514.297                    22778525.789
 130102979.311 6 101378833.97243  24757761.242                    24757778.988
 120683141.838 7  94038879.241 7  22965242.211                    22965255.363
 121046132.631 7  94321727.98744  23034313.648                    23034324.613
 109142205.636 8  85046076.51746  20769060.805                    20769067.980
 11  8 26  0 32  0.0000000  0  9G10G12G05G17G04G09G25G30G02
 111352204.993 8  86768061.94546  21189588.352                    21189597.797
 109775306.402 8  85539263.430 7  20889544.492                    20889553.551
 109836915.247 8  85587312.330 7  20901248.758                    20901258.254
 125819142.020 6  98041012.045 6  23942603.375                    23942615.289
 119783112.161 7  93337620.11444  22793949.930                    22793960.973
 130183481.103 6 101441562.39443  24773080.172                    24773098.809
 120602038.514 7  93975681.934 7  22949808.773                    22949821.906
 120965605.028 7  94258979.23844  23018990.047                    23019000.594
 109158823.796 8  85059025.74546  20772222.992                    20772230.434
 11  8 26  0 32 30.0000000  0  9G10G12G05G17G04G09G25G30G02
 111398153.526 8  86803866.00045  21198331.609                    21198341.043
 109749757.184 8  85519354.953 7  20884682.930                    20884692.023
 109776635.926 8  85540341.486 7  20889777.734                    20889787.316
 125883268.085 6  98090980.398 5  23954806.336                    23954817.684
 119864241.160 7  93400837.47444  22809388.164                    22809398.965
 130263920.008 6 101504241.80343  24788387.070                    24788405.688
 120521293.562 7  93912763.883 7  22934443.398                    22934456.016
 120885487.905 7  94196550.33744  23003743.688                    23003754.965
 109175638.828 8  85072128.38446  20775423.063                    20775430.039
 11  8 26  0 33  0.0000000  0  9G10G12G05G17G04G09G25G30G02
 111444669.697 8  86840112.37545  21207183.227                    21207192.965
 109724764.094 8  85499879.831 7  20879926.586                    20879936.168
 109716845.537 8  85493751.622 7  20878399.953                    20878409.512
 125947583.875 6  98141096.565 6  23967045.414                    23967057.094
 119945383.977 7  93464065.60044  22824829.477                    22824840.395
 130344293.310 6 101566870.10643  24803681.742                    24803699.613
 120440909.573 7  93850127.075 7  22919146.641                    22919159.355
 120805783.905 7  94134443.37744  22988577.102                    22988587.969
 109192649.715 8  85085383.62546  20778660.156                    20778667.262
 11  8 26  0 33 30.0000000  0  9G10G12G05G17G04G09G25G30G02
 111491751.562 8  86876799.53945  21216142.820                    21216152.840
 109700328.414 8  85480839.041 7  20875276.656                    20875286.090
 109657546.150 8  85447544.366 7  20867115.789                    20867125.246
 126012090.016 6  98191361.076 6  23979320.828                    23979332.980
 120026539.528 7  93527303.65844  22840272.625                    22840283.984
 130424597.689 6 101629444.62343  24818963.734                    24818981.840
 120360888.957 7  93787773.429 7  22903919.422                    22903931.918
 120726495.465 7  94072660.22544  22973488.742                    22973499.484
 109209855.177 8  85098790.49446  20781934.188                    20781940.926
 11  8 26  0 34  0.0000000  0  9G10G12G05G17G04G09G25G30G02
 111539397.530 8  86913926.26345  21225209.305                    21225219.113
 109676451.518 8  85462233.674 7  20870733.023                    20870742.352
 109598739.268 8  85401720.873 8  20855925.133                    20855935.430
 126076786.590 6  98241773.991 6  23991631.977                    23991644.180
 120107706.430 7  93590550.53944  22855717.828                    22855729.445
 130504830.525 6 101691963.41643  24834231.688                    24834249.934
 120281234.405 7  93725705.021 7  22888761.578                    22888773.891
 120647625.235 7  94011202.96344  22958479.984                    22958490.715
 109227254.082 8  85112348.09946  20785245.133                    20785252.145
 11  8 26  0 34 30.0000000  0  9G10G12G05G17G04G09G25G30G02
 111587605.832 8  86951491.17145  21234383.031                    21234393.195
 109653134.366 8  85444064.469 7  20866295.656                    20866305.262
 109540427.206 8  85356282.950 7  20844828.570                    20844838.203
 126141673.948 6  98292335.554 6  24003979.961                    24003992.484
 120188883.578 7  93653805.40544  22871166.016                    22871176.953
 130584988.556 6 101754423.93943  24849485.703                    24849504.297
 120201948.445 7  93663923.828 7  22873674.023                    22873686.395
 120569175.854 7  93950073.63044  22943551.633                    22943562.438
 109244845.426 8  85126055.65746  20788592.461                    20788599.621
 11  8 26  0 35  0.0000000  0  8G10G12G05G17G04G25G30G02
 111636375.259 8  86989493.31945  21243663.523                    21243673.242
 109630379.173 8  85426333.149 7  20861965.813                    20861974.977
 109482612.453 8  85311232.541 8  20833827.172                    20833836.648
 126206752.811 6  98343046.310 6  24016364.117                    24016376.660
 120270070.482 7  93717067.89644  22886615.102                    22886626.434
 120123034.466 7  93602432.489 7  22858657.141                    22858669.156
 120491150.623 7  93889274.84744  22928703.961                    22928714.105
 109262628.792 8  85139912.84046  20791976.234                    20791983.723
 11  8 26  0 35 30.0000000  0  8G10G12G05G17G04G25G30G02
 111685704.646 8  87027931.80745  21253050.805                    21253060.762
 109608187.076 8  85409040.615 7  20857743.023                    20857751.867
 109425297.468 8  85266571.565 7  20822920.273                    20822929.691
 126272023.999 6  98393906.914 6  24028784.195                    24028797.113
 120351266.698 7  93780337.63244  22902066.438                    22902077.559
 120044495.615 8  93541233.444 7  22843711.758                    22843723.730
 120413552.743 7  93828809.04544  22913937.961                    22913947.594
 109280603.300 8  85153918.95746  20795397.094                    20795404.527
 11  8 26  0 36  0.0000000  0  8G10G12G05G17G04G25G30G02
 111735590.483 8  87066803.88145  21262543.531                    21262553.523
 109586557.689 8  85392186.547 7  20853626.563                    20853636.090
 109368482.682 8  85222300.358 7  20812108.617                    20812118.344
 126337486.251 6  98444916.405 6  24041242.219                    24041254.258
 120432469.607 7  93843612.58644  22917519.227                    22917530.082
 119966332.826 7  93480327.417 7  22828837.969                    22828849.988
 120336383.128 7  93768676.96644  22899252.781                    22899262.738
 109298766.951 8  85168072.46246  20798853.367                    20798860.371
 11  8 26  0 36 30.0000000  0  8G10G12G05G17G04G25G30G02
 111786030.418 7  87106107.71946  21272141.953                    21272151.887
 109565491.982 8  85375771.718 7  20849618.094                    20849627.395
 109312169.924 8  85178420.328 7  20801392.641                    20801402.164
 126403139.641 6  98496074.840 6  24053735.750                    24053748.605
 120513677.434 7  93906891.35944  22932972.406                    22932983.051
 119888548.412 8  93419716.217 7  22814035.688                    22814048.043
 120259644.140 7  93708880.43544  22884649.836                    22884659.957
 109317118.238 8  85182372.17446  20802345.680                    20802352.684
 11  8 26  0 37  0.0000000  0  8G10G12G05G17G04G25G30G02
 111837022.526 7  87145841.82445  21281845.805                    21281854.828
 109544990.927 8  85359796.878 7  20845716.813                    20845726.078
 109256360.688 8  85134932.669 7  20790772.555                    20790782.133
 126468984.187 6  98547382.226 6  24066265.078                    24066278.547
 120594889.387 7  93970173.35544  22948427.039                    22948437.539
 119811144.769 7  93359401.718 7  22799306.508                    22799318.398
 120183338.129 7  93649421.27944  22870129.250                    22870139.570
 109335655.606 8  85196816.87046  20805872.977                    20805880.250
 11  8 26  0 37 30.0000000  0  8G10G12G05G17G04G25G30G02
 111888565.143 7  87186004.89845  21291653.586                    21291663.414
 109525055.702 8  85344262.936 7  20841923.281                    20841932.188
 109201057.056 8  85091838.978 8  20780248.453                    20780258.125
 126535019.933 6  98598838.601 6  24078831.914                    24078843.949
 120676104.158 7  94033457.55244  22963881.203                    22963892.531
 119734124.643 7  93299386.049 7  22784649.750                    22784662.516
 120107467.890 7  93590301.69544  22855691.461                    22855701.691
 109354378.086 8  85211405.82546  20809435.820                    20809443.199
 11  8 26  0 38  0.0000000  0  8G10G12G05G17G04G25G30G02
 111940656.577 8  87226595.61945  21301566.375                    21301576.051
 109505687.377 8  85329170.738 7  20838237.570                    20838246.840
 109146260.952 8  85049140.770 7  20769821.055                    20769830.898
 126601247.279 6  98650444.297 6  24091433.867                    24091446.563
 120757320.994 7  94096743.35744  22979336.672                    22979347.730
 119657490.820 7  93239671.410 7  22770066.977                    22770079.078
 120032036.115 7  93531523.76944  22841337.383                    22841347.898
 109373285.080 8  85226138.54646  20813033.961                    20813040.977
 11  8 26  0 38 30.0000000  0  8G10G12G05G17G04G25G30G02
 111993294.165 7  87267611.92245  21311583.109                    21311592.543
 109486885.921 8  85314520.246 8  20834660.008                    20834668.957
 109091973.669 8  85006839.044 7  20759490.680                    20759500.348
 126667666.475 6  98702199.457 6  24104073.469                    24104085.691
 120838538.226 6  94160029.47244  22994791.422                    22994802.859
 119581245.106 7  93180259.182 7  22755557.961                    22755569.785
 119957044.595 7  93473088.90444  22827066.688                    22827077.203
 109392374.685 8  85241013.56546  20816666.336                    20816673.699
 11  8 26  0 39  0.0000000  0  8G10G12G05G17G04G25G30G02
 112046476.621 8  87309052.78945  21321703.703                    21321713.340
 109468653.836 8  85300313.431 7  20831190.805                    20831199.684
 109038197.801 8  84964935.814 8  20749257.602                    20749267.117
 126734277.382 6  98754104.007 6  24116748.984                    24116761.418
 120919755.507 6  94223315.63644  23010246.039                    23010257.813
 119505390.920 7  93121152.042 7  22741122.969                    22741135.289
 119882496.774 7  93414999.77444  22812880.313                    22812890.660
 109411646.786 8  85256030.79446  20820333.680                    20820341.027
 11  8 26  0 39 30.0000000  0  8G10G12G05G17G04G25G30G02
 112100201.202 8  87350916.09145  21331926.719                    21331936.652
 109450990.804 8  85286550.036 7  20827829.391                    20827838.621
 108984934.331 8  84923431.860 7  20739121.766                    20739131.234
 126801080.217 7  98806158.121 6  24129461.828                    24129473.512
 121000971.172 7  94286600.52244  23025701.516                    23025712.375
 119429930.189 7  93062351.473 7  22726763.211                    22726775.891
 119808394.519 6  93357257.79944  22798779.117                    22798789.289
 109431099.649 8  85271188.89046  20824035.555                    20824042.551
 11  8 26  0 40  0.0000000  0  8G10G12G05G17G04G25G30G02
 112154466.597 8  87393200.81245  21342253.117                    21342263.254
 109433898.517 8  85273231.392 7  20824576.773                    20824586.086
 108932185.482 8  84882328.909 8  20729083.781                    20729093.727
 126868075.074 6  98858361.875 6  24142210.234                    24142222.543
 121082184.730 7  94349883.78544  23041155.961                    23041167.145
 119354865.736 7  93003859.691 7  22712479.305                    22712491.449
 119734740.636 7  93299865.20344  22784762.953                    22784773.902
 109450732.573 8  85286487.27946  20827771.688                    20827778.102
 11  8 26  0 40 30.0000000  0  8G10G12G05G17G04G25G30G02
 112209270.317 8  87435904.99645  21352682.086                    21352691.793
 109417377.223 8  85260357.660 7  20821432.875                    20821442.145
 108879952.693 8  84841628.079 8  20719144.164                    20719153.824
 126935262.122 6  98910715.399 6  24154995.438                    24155007.887
 121163394.531 7  94413164.12844  23056609.930                    23056621.254
 119280199.762 7  92945678.404 7  22698270.438                    22698283.008
 119661537.241 7  93242823.61944  22770832.906                    22770843.906
 109470544.172 8  85301924.88746  20831541.586                    20831548.832
 11  8 26  0 41  0.0000000  0  8G10G12G05G17G04G25G30G02
 112264610.107 8  87479026.90746  21363213.094                    21363222.957
 109401427.675 8  85247929.455 8  20818397.922                    20818406.816
 108828237.783 8  84801330.794 8  20709303.188                    20709312.625
 127002641.457 6  98963218.752 6  24167816.805                    24167829.547
 121244599.603 7  94476440.77344  23072063.016                    23072073.895
 119205934.572 7  92887809.421 7  22684138.711                    22684150.750
 119588786.702 7  93186134.92944  22756988.930                    22756999.941
 109490533.218 8  85317500.77046  20835345.352                    20835352.523
 11  8 26  0 41 30.0000000  0  8G10G12G05G17G04G25G30G02
 112320484.360 8  87522565.28045  21373845.266                    21373854.992
 109386051.089 8  85235947.708 7  20815471.633                    20815480.711
 108777042.302 8  84761438.266 8  20699560.586                    20699570.629
 127070213.139 6  99015871.947 6  24180675.531                    24180687.809
 121325798.991 7  94539712.99844  23087513.938                    23087525.176
 119132072.869 7  92830254.854 7  22670083.383                    22670095.211
 119516491.617 7  93129801.13844  22743231.641                    22743242.754
 109510698.801 8  85333214.22446  20839182.648                    20839190.031
 11  8 26  0 42  0.0000000  0  8G10G12G05G17G04G25G30G02
 112376890.390 8  87566518.02045  21384579.094                    21384588.574
 109371247.965 8  85224412.813 7  20812654.859                    20812664.125
 108726367.757 8  84721951.665 8  20689917.953                    20689927.473
 127137977.167 6  99068675.093 6  24193570.156                    24193582.574
 121406991.452 7  94602979.83744  23102964.633                    23102975.289
 119058617.036 7  92773016.555 7  22656104.938                    22656116.949
 119444654.411 7  93073824.12544  22729561.641                    22729572.023
 109531039.874 8  85349064.42946  20843053.648                    20843060.723
 11  8 26  0 42 30.0000000  0  8G10G12G05G17G04G25G30G02
 112433826.291 8  87610883.65345  21395413.742                    21395423.242
 109357018.603 8  85213325.010 8  20809946.992                    20809956.289
 108676215.700 8  84682872.191 8  20680373.773                    20680383.688
 127205933.482 6  99121628.008 6  24206501.633                    24206513.602
 121488176.208 7  94666240.66044  23118413.602                    23118424.273
 118985569.508 7  92716096.427 7  22642204.477                    22642217.023
 119373277.451 7  93018205.74044  22715979.859                    22715989.766
 109551555.210 8  85365050.41946  20846957.289                    20846964.191
 11  8 26  0 43  0.0000000  0  8G10G12G05G17G04G25G30G02
 112491289.610 8  87655660.26245  21406348.531                    21406358.227
 109343364.040 8  85202685.108 7  20807348.289                    20807357.887
 108626587.757 8  84644201.108 8  20670930.445                    20670939.961
 127274082.440 6  99174731.103 6  24219469.922                    24219482.215
 121569352.068 7  94729494.56144  23133860.414                    23133871.758
 118912932.609 7  92659496.263 7  22628382.320                    22628394.461
 119302362.916 6  92962947.68844  22702484.289                    22702494.707
 109572243.930 8  85381171.50546  20850894.438                    20850901.395
 11  8 26  0 43 30.0000000  0  8G10G12G05G17G04G25G30G02
 112549278.249 8  87700846.20445  21417383.313                    21417393.223
 109330285.102 8  85192493.737 7  20804860.008                    20804868.949
 108577485.623 8  84605939.754 8  20661586.320                    20661595.797
 127342423.772 6  99227984.067 6  24232475.117                    24232486.957
 121650518.025 7  94792740.77644  23149306.469                    23149317.793
 118840708.677 7  92603217.894 7  22614638.656                    22614650.977
 119231913.191 7  92908051.81544  22689078.359                    22689088.777
 109593104.527 8  85397426.52846  20854863.836                    20854871.137
 11  8 26  0 44  0.0000000  0  8G10G12G05G17G04G25G30G02
 112607790.156 7  87746439.89745  21428517.617                    21428527.535
 109317782.370 8  85182751.378 7  20802480.680                    20802489.641
 108528910.598 8  84568089.138 8  20652342.883                    20652352.234
 127410957.849 6  99281387.222 6  24245516.422                    24245528.188
 121731673.054 7  94855978.43544  23164749.242                    23164760.262
 118768900.142 8  92547263.204 7  22600973.711                    22600985.988
 119161930.611 7  92853519.94944  22675760.977                    22675771.406
 109614136.215 8  85413814.86746  20858866.023                    20858873.344
 11  8 26  0 44 30.0000000  0  8G10G12G05G17G04G25G30G02
 112666823.385 8  87792439.81045  21439751.398                    21439761.125
 109305856.819 8  85173458.753 7  20800211.109                    20800220.223
 108480864.824 8  84530650.921 7  20643200.133                    20643209.520
 127479684.625 6  99334940.553 5  24258595.453                    24258607.004
 121812816.386 6  94919206.98644  23180189.883                    23180201.637
 118697509.691 7  92491634.311 7  22587388.617                    22587401.191
 119092417.798 7  92799354.13844  22662533.289                    22662543.488
 109635338.227 8  85430335.92446  20862900.719                    20862908.027
 11  8 26  0 45  0.0000000  0  8G10G12G05G17G04G25G30G02
 112726375.200 7  87838843.81045  21451083.883                    21451093.395
 109294508.407 8  85164615.856 7  20798051.742                    20798060.922
 108433349.235 8  84493625.843 8  20634157.891                    20634167.652
 127548603.851 6  99388643.822 5  24271709.969                    24271721.609
 121893946.772 6  94982425.45644  23195629.883                    23195639.707
 118626539.276 7  92436332.704 7  22573883.297                    22573895.895
 119023376.706 7  92745555.89244  22649395.078                    22649405.156
 109656708.811 7  85446988.34246  20866967.344                    20866974.730
 11  8 26  0 45 30.0000000  0  8G10G12G05G17G04G25G30G02
 112786443.821 8  87885650.52045  21462514.250                    21462524.250
 109283737.895 8  85156223.264 7  20796001.773                    20796010.980
 108386365.384 8  84457015.100 8  20625216.969                    20625226.566
 127617715.832 6  99442497.353 6  24284861.852                    24284873.223
 121975063.236 6  95045633.06744  23211065.297                    23211075.809
 118555991.577 7  92381360.488 7  22560458.453                    22560470.551
 118954809.921 7  92692127.24844  22636347.031                    22636357.594
 109678247.464 8  85463771.73146  20871066.484                    20871073.246
 11  8 26  0 46  0.0000000  0  8G10G12G05G17G04G25G30G02
 112847026.064 8  87932857.45445  21474042.875                    21474052.770
 109273545.619 8  85148281.241 7  20794062.727                    20794071.461
 108339914.552 8  84420819.699 8  20616377.836                    20616387.438
 127687020.065 6  99496500.649 6  24298050.164                    24298062.230
 122056164.698 7  95108829.00644  23226498.422                    23226509.664
 118485868.513 7  92326719.148 7  22547114.523                    22547127.105
 118886719.350 7  92639069.67245  22623390.313                    22623400.625
 109699952.362 8  85480684.65146  20875196.234                    20875203.785
 11  8 26  0 46 30.0000000  0  8G10G12G05G17G04G25G30G02
 112908120.373 7  87980463.39445  21485668.758                    21485678.867
 109263932.619 8  85140790.600 7  20792233.320                    20792241.992
 108293998.367 8  84385040.901 8  20607640.078                    20607649.547
 127756517.130 6  99550654.205 6  24311275.328                    24311287.391
 122137250.463 7  95172012.69244  23241928.180                    23241939.684
 118416172.866 7  92272410.861 7  22533852.023                    22533864.391
 118819107.527 7  92586385.12445  22610524.352                    22610534.266
 109721823.344 8  85497726.99246  20879358.023                    20879365.594
 11  8 26  0 47  0.0000000  0  8G10G12G05G17G04G25G30G02
 112969724.315 7  88028466.46145  21497391.492                    21497401.324
 109254899.350 8  85133751.700 7  20790514.258                    20790523.395
 108248618.297 8  84349679.856 8  20599004.594                    20599013.832
 127826206.890 6  99604957.917 6  24324535.797                    24324548.559
 122218319.453 7  95235183.32144  23257355.281                    23257366.785
 118346906.734 7  92218437.275 7  22520670.719                    22520683.543
 118751976.656 7  92534075.35244  22597749.563                    22597759.332
 109743859.082 8  85514897.71046  20883551.570                    20883558.984
 11  8 26  0 47 30.0000000  0  8G10G12G05G17G04G25G30G02
 113031835.679 7  88076864.91445  21509210.898                    21509221.027
 109246445.871 8  85127164.582 8  20788905.625                    20788914.594
 108203775.691 8  84314737.615 8  20590471.523                    20590480.895
 127896089.136 7  99659411.605 6  24337834.398                    24337847.063
 122299370.810 7  95298340.20144  23272778.500                    23272790.262
 118278072.613 7  92164800.326 7  22507571.859                    22507584.238
 118685329.047 7  92482142.17044  22585066.813                    22585077.457
 109766058.367 8  85532195.85846  20887775.914                    20887782.957
 11  8 26  0 48  0.0000000  0  9G10G12G05G17G04G29G25G30G02
 113094452.254 7  88125657.04945  21521126.391                    21521136.402
 109238572.920 8  85121029.816 7  20787407.656                    20787416.398
 108159472.017 8  84280215.325 8  20582040.664                    20582049.668
 127966164.081 6  99714015.443 6  24351168.633                    24351182.156
 122380403.841 6  95361482.78244  23288198.469                    23288210.176
 129637571.49716 101016297.76115  24669213.859
 118209672.895 7  92111501.888 7  22494555.758                    22494568.281
 118619167.000 7  92430587.30645  22572476.922                    22572486.719
 109788420.660 8  85549621.02746  20892030.992                    20892038.020
 11  8 26  0 48 30.0000000  0  9G10G12G05G17G04G29G25G30G02
 113157571.503 7  88174840.87245  21533137.813                    21533147.172
 109231281.135 8  85115347.902 7  20786019.844                    20786028.844
 108115708.562 8  84246113.970 8  20573712.602                    20573721.988
 128036431.614 6  99768769.342 6  24364540.305                    24364553.488
 122461417.405 6  95424610.20744  23303615.102                    23303626.750
 129557566.938 6 100953956.602 5  24653988.820                    24653999.777
 118141709.892 7  92058543.760 7  22481623.359                    22481635.477
 118553492.746 7  92379412.56044  22559979.281                    22559989.977
 109810944.641 8  85567172.18646  20896317.336                    20896324.441
 11  8 26  0 49  0.0000000  0  9G10G12G05G17G04G29G25G30G02
 113221191.183 7  88224414.64745  21545244.047                    21545254.086
 109224570.995 8  85110119.219 7  20784742.805                    20784752.008
 108072486.823 8  84212434.738 8  20565487.672                    20565497.234
 128106892.023 6  99823673.546 6  24377949.414                    24377961.766
 122542410.956 6  95487722.00744  23319028.297                    23319038.723
 129477480.793 6 100891551.917 5  24638749.117                    24638760.227
 118074185.911 7  92005927.726 7  22468773.750                    22468785.352
 118488308.499 7  92328619.63544  22547574.797                    22547585.586
 109833629.176 8  85584848.44346  20900634.391                    20900641.531
 11  8 26  0 49 30.0000000  0  9G10G12G05G17G04G29G25G30G02
 113285308.623 7  88274376.28745  21557445.359                    21557455.215
 109218442.708 8  85105343.927 8  20783576.773                    20783586.102
 108029807.898 8  84179178.479 8  20557366.547                    20557375.781
 128177544.846 6  99878727.669 6  24391393.750                    24391406.652
 122623383.138 6  95550817.16944  23334436.680                    23334447.637
 129397313.273 6 100829083.826 5  24623493.727                    24623505.629
 118007103.086 7  91953655.458 7  22456008.195                    22456020.273
 118423616.342 7  92278210.16245  22535264.391                    22535274.977
 109856473.304 8  85602649.06846  20904981.117                    20904988.355
 11  8 26  0 50  0.0000000  0  9G10G12G05G17G04G29G25G30G02
 113349921.682 7  88324724.11045  21569740.719                    21569750.383
 109212896.549 8  85101022.232 7  20782521.195                    20782530.449
 107987672.797 8  84146345.984 8  20549348.227                    20549357.863
 128248389.912 6  99933931.595 6  24404874.781                    24404888.277
 122704333.001 6  95613894.94944  23349840.922                    23349852.117
 129317064.902 6 100766552.715 6  24608223.055                    24608235.027
 117940463.500 7  91901728.579 7  22443326.891                    22443338.953
 118359418.273 7  92228185.70945  22523048.008                    22523058.488
 109879475.793 8  85620573.08646  20909358.250                    20909365.770
 11  8 26  0 50 30.0000000  0  9G10G12G05G17G04G29G25G30G02
 113415027.689 7  88375456.06845  21582129.758                    21582139.711
 109207932.627 8  85097154.231 7  20781577.086                    20781586.125
 107946082.920 8  84113938.327 8  20541433.523                    20541443.250
 128319427.237 6  99989285.335 6  24418393.469                    24418406.328
 122785259.692 7  95676954.64244  23365241.109                    23365252.250
 129236736.489 6 100703959.228 6  24592936.797                    24592947.918
 117874269.501 7  91850148.923 7  22430730.844                    22430742.770
 118295716.520 7  92178547.98945  22510926.414                    22510936.410
 109902635.849 8  85638619.87346  20913765.727                    20913773.242
 11  8 26  0 51  0.0000000  0  9G10G12G05G17G04G29G25G30G02
 113480623.759 8  88426569.89145  21594612.453                    21594622.289
 109203550.709 8  85093739.734 8  20780743.008                    20780751.746
 107905039.113 8  84081956.183 8  20533623.227                    20533632.547
 128390656.499 6 100044788.659 6  24431947.844                    24431960.668
 122866162.084 6  95739995.41144  23380636.133                    23380647.930
 129156328.243 6 100641303.518 6  24577635.961                    24577646.965
 117808522.835 7  91798917.829 7  22418219.320                    22418231.250
 118232512.850 7  92129298.41645  22498898.867                    22498908.781
 109925951.836 8  85656788.16746  20918202.602                    20918209.797
 11  8 26  0 51 30.0000000  0  9G10G12G05G17G04G29G25G30G02
 113546707.984 8  88478064.10345  21607188.242                    21607197.953
 109199751.710 7  85090779.452 8  20780020.367                    20780029.324
 107864543.110 8  84050400.895 8  20525917.328                    20525926.656
 128462077.804 6 100100441.609 6  24445538.609                    24445551.496
 122947039.683 6  95803016.85844  23396026.672                    23396037.910
 129075840.973 6 100578586.236 6  24562319.063                    24562331.098
 117743226.212 7  91748037.432 7  22405793.844                    22405805.723
 118169809.626 7  92080438.80045  22486966.844                    22486977.402
 109949423.292 8  85675077.59946  20922669.016                    20922676.348
 11  8 26  0 52  0.0000000  0  9G10G12G05G17G04G29G25G30G02
 113613278.079 8  88529936.91345  21619855.672                    21619865.656
 109196535.733 8  85088273.486 8  20779407.781                    20779417.063
 107824596.118 8  84019273.407 8  20518315.680                    20518324.797
 128533691.022 6 100156244.115 6  24459165.813                    24459178.922
 123027891.536 7  95866018.26144  23411412.281                    23411423.117
 128995275.333 6 100515807.875 6  24546988.141                    24546998.969
 117678381.851 7  91697509.433 7  22393454.133                    22393466.613
 118107609.119 7  92031970.91545  22475129.992                    22475140.570
 109973049.327 8  85693487.48546  20927164.563                    20927172.449
 11  8 26  0 52 30.0000000  0  9G10G12G05G17G04G29G25G30G02
 113680331.044 7  88582185.97745  21632615.430                    21632625.605
 109193902.928 8  85086221.933 7  20778907.023                    20778915.996
 107785198.928 8  83988574.345 8  20510818.625                    20510827.805
 128605496.059 6 100212196.046 6  24472830.609                    24472843.426
 123108716.811 7  95928998.95444  23426792.891                    23426804.453
 128914631.824 6 100452968.821 6  24531642.031                    24531653.598
 117613991.743 7  91647335.387 7  22381201.273                    22381213.352
 118045913.104 7  91983896.15745  22463390.117                    22463400.422
 109996828.582 8  85712016.77046  20931690.086                    20931697.461
 11  8 26  0 53  0.0000000  0  9G10G12G05G17G04G29G25G30G02
 113747864.556 7  88634809.50545  21645466.531                    21645476.531
 109191853.795 8  85084625.200 8  20778517.305                    20778526.262
 107746352.784 8  83958304.654 8  20503426.203                    20503435.512
 128677492.561 6 100268297.192 6  24486530.695                    24486543.656
 123189514.702 6  95991958.29544  23442168.039                    23442179.645
 128833911.326 6 100390069.781 6  24516282.125                    24516292.941
 117550058.076 7  91597517.027 7  22369034.641                    22369046.457
 117984723.731 7  91936216.19044  22451745.820                    22451756.074
 110020760.211 8  85730664.78646  20936243.828                    20936251.320
 11  8 26  0 53 30.0000000  0  9G10G12G05G17G04G29G25G30G02
 113815876.374 8  88687805.73845  21658409.008                    21658418.805
 109190388.374 8  85083483.301 7  20778238.328                    20778247.070
 107708058.896 8  83928465.297 8  20496139.477                    20496148.355
 128749680.893 6 100324547.839 6  24500267.539                    24500280.273
 123270284.703 6  96054895.91943  23457538.430                    23457549.750
 128753114.555 6 100327111.341 6  24500905.891                    24500918.023
 117486583.298 7  91548056.219 7  22356955.891                    22356968.078
 117924043.325 7  91888932.81345  22440198.781                    22440208.980
 110044843.567 8  85749431.02746  20940826.805                    20940833.637
 11  8 26  0 54  0.0000000  0  8G10G12G05G04G29G25G30G02
 113884364.978 7  88741173.48445  21671442.008                    21671451.711
 109189508.397 8  85082797.599 7  20778070.891                    20778079.859
 107670319.577 8  83899058.080 8  20488957.445                    20488967.020
 123351027.124 6  96117812.06044  23472902.328                    23472914.883
 128672243.476 6 100264095.022 6  24485516.984                    24485528.426
 117423570.732 7  91498955.573 7  22344965.039                    22344976.980
 117863875.015 7  91842048.49945  22428749.188                    22428759.426
 110069078.712 8  85768315.54346  20945438.852                    20945445.770
 11  8 26  0 54 30.0000000  0  8G10G12G05G04G29G25G30G02
 113953326.907 7  88794910.06245  21684564.906                    21684574.441
 109189212.363 8  85082566.917 7  20778014.563                    20778023.426
 107633134.639 8  83870082.840 8  20481881.680                    20481890.574
 123431739.768 6  96180704.98644  23488262.164                    23488273.539
 128591297.522 6 100201020.349 6  24470113.273                    24470125.223
 117361021.310 7  91450215.804 7  22333062.461                    22333074.082
 117804219.638 7  91795563.87745  22417397.188                    22417406.988
 110093463.606 8  85787316.75046  20950079.211                    20950086.117
 11  8 26  0 55  0.0000000  0  8G10G12G05G04G29G25G30G02
 114022758.683 8  88849012.76345  21697777.328                    21697786.859
 109189499.362 8  85082790.551 8  20778069.078                    20778078.141
 107596504.339 8  83841539.795 8  20474910.836                    20474920.234
 123512421.050 6  96243573.50544  23503615.023                    23503626.266
 128510276.311 6 100137887.025 6  24454696.305                    24454707.121
 117298936.145 7  91401837.782 7  22321247.844                    22321259.938
 117745078.153 7  91749479.68245  22406142.805                    22406153.027
 110117995.896 8  85806432.81046  20954747.539                    20954754.457
 11  8 26  0 55 30.0000000  0  8G10G12G05G04G29G25G30G02
 114092658.416 7  88903480.10645  21711079.188                    21711088.934
 109190370.308 8  85083469.218 7  20778235.102                    20778244.148
 107560430.203 8  83813430.118 8  20468046.414                    20468055.785
 123593070.910 6  96306417.54943  23518961.859                    23518973.488
 128429181.258 6 100074696.185 6  24439262.750                    24439274.742
 117237318.041 7  91353823.700 7  22309522.156                    22309533.949
 117686453.205 7  91703797.98145  22394986.516                    22394997.023
 110142675.633 8  85825663.76746  20959443.602                    20959450.605
 11  8 26  0 56  0.0000000  0  8G10G12G05G04G29G25G30G02
 114163023.437 7  88958310.00245  21724468.664                    21724478.738
 109191825.146 8  85084602.861 7  20778511.438                    20778520.559
 107524913.420 8  83785754.741 8  20461287.914                    20461296.957
 123673688.672 7  96369236.56943  23534303.398                    23534314.457
 128348013.166 6 100011448.419 6  24423817.922                    24423828.660
 117176169.241 7  91306175.321 7  22297885.797                    22297897.828
 117628346.846 7  91658520.36345  22383929.297                    22383939.551
 110167502.026 8  85845009.00946  20964168.016                    20964175.180
 11  8 26  0 56 30.0000000  0  8G10G12G05G04G29G25G30G02
 114233851.369 7  89013500.61845  21737947.102                    21737956.805
 109193864.341 8  85086191.848 7  20778899.867                    20778908.664
 107489954.979 8  83758514.436 8  20454635.148                    20454644.555
 123754273.548 7  96432029.94843  23549638.313                    23549649.465
 128266772.751 6  99948144.315 6  24408357.250                    24408368.816
 117115491.876 7  91258894.274 7  22286339.664                    22286351.180
 117570761.065 7  91613648.39245  22372971.078                    22372981.723
 110192474.191 8  85864467.83846  20968920.281                    20968927.742
 11  8 26  0 57  0.0000000  0  8G10G12G05G04G29G25G30G02
 114305139.504 7  89069049.81645  21751512.898                    21751522.723
 109196487.619 8  85088235.969 7  20779398.859                    20779407.785
 107455555.542 8  83731709.721 8  20448089.359                    20448098.789
 123834824.637 7  96494797.01343  23564966.938                    23564977.656
 128185460.661 6  99884784.348 6  24392885.242                    24392895.926
 117055287.776 8  91211982.000 7  22274883.125                    22274895.031
 117513697.662 7  91569183.45445  22362112.328                    22362122.348
 110217590.824 8  85884039.23646  20973699.852                    20973707.188
 11  8 26  0 57 30.0000000  0  8G10G12G05G04G29G25G30G02
 114376885.244 7  89124955.59445  21765165.414                    21765175.008
 109199694.820 8  85090735.097 7  20780009.305                    20780018.340
 107421716.246 8  83705341.477 8  20441649.617                    20441659.176
 123915341.308 7  96557537.24344  23580288.953                    23580299.473
 128104077.751 6  99821369.184 6  24377398.125                    24377409.570
 116995559.211 8  91165440.263 7  22263517.195                    22263529.285
 117457158.632 7  91525127.11645  22351353.023                    22351363.125
 110242851.252 8  85903722.69346  20978506.555                    20978513.727
 11  8 26  0 58  0.0000000  0  8G10G12G05G04G29G25G30G02
 114449085.810 7  89181215.77445  21778904.359                    21778914.703
 109203485.481 8  85093688.865 7  20780730.609                    20780739.609
 107388437.462 8  83679409.992 8  20435317.000                    20435326.484
 123995822.606 7  96620249.93243  23595603.156                    23595614.305
 128022624.425 6  99757899.148 6  24361898.000                    24361908.734
 116936307.749 8  91119270.292 7  22252242.414                    22252254.059
 117401145.317 7  91481480.41245  22340694.047                    22340704.398
 110268253.918 8  85923516.98246  20983340.867                    20983347.754
 11  8 26  0 58 30.0000000  0  8G10G12G05G04G29G25G30G02
 114521738.894 8  89237828.57145  21792730.000                    21792740.137
 109207859.887 8  85097097.505 7  20781563.039                    20781571.832
 107355720.557 8  83653916.341 8  20429091.156                    20429100.457
 124076268.173 7  96682934.75043  23610911.617                    23610923.184
 127941101.803 6  99694375.107 6  24346384.438                    24346395.918
 116877535.884 8  91073474.044 7  22241058.242                    22241069.980
 117345660.169 7  91438245.28245  22330135.758                    22330145.715
 110293798.637 7  85943421.95846  20988201.203                    20988209.027
 11  8 26  0 59  0.0000000  0  8G10G12G05G04G29G25G30G02
 114594841.818 7  89294791.89045  21806641.109                    21806651.332
 109212818.372 8  85100961.270 7  20782506.625                    20782515.680
 107323566.624 8  83628861.364 8  20422972.461                    20422981.879
 124156677.271 7  96745591.18143  23626212.633                    23626224.527
 127859510.465 6  99630797.544 6  24330858.391                    24330869.469
 116819245.751 7  91028053.168 7  22229966.008                    22229978.383
 117290705.083 7  91395423.15845  22319678.422                    22319688.289
 110319484.497 8  85963436.93246  20993089.156                    20993096.121
 11  8 26  0 59 30.0000000  0  8G10G12G05G04G29G25G30G02
 114668391.530 7  89352103.36345  21820636.984                    21820647.223
 109218359.826 8  85105279.298 7  20783561.344                    20783570.156
 107291975.820 8  83604245.189 8  20416961.047                    20416970.246
 124237048.662 7  96808218.22543  23641507.219                    23641519.395
 127777850.653 6  99567166.602 6  24315319.086                    24315330.086
 116761438.620 7  90983008.654 7  22218965.727                    22218977.555
 117236281.100 7  91353014.89045  22309321.281                    22309331.836
 110345309.599 8  85983560.39546  20998003.656                    20998010.813
 11  8 26  1  0  0.0000000  0  8G10G12G05G04G29G25G30G02
 114742386.060 7  89409761.43345  21834717.859                    21834728.137
 109224484.747 8  85110051.963 7  20784726.773                    20784735.613
 107260949.424 8  83580068.819 8  20411056.914                    20411066.359
 124317382.329 7  96870815.89143  23656794.047                    23656806.293
 127696124.121 6  99503483.667 6  24299766.836                    24299777.512
 116704117.214 7  90938342.634 7  22208057.305                    22208069.543
 117182390.875 7  91311022.51945  22299066.531                    22299076.848
 110371274.249 8  86003792.60446  21002944.508                    21002951.613
 11  8 26  1  0 30.0000000  0  8G10G12G05G04G29G25G30G02
 114816822.181 7  89467763.59045  21848882.875                    21848892.496
 109231192.878 8  85115279.090 7  20786002.766                    20786011.711
 107230487.992 8  83556332.680 8  20405260.016                    20405269.047
 124397677.165 7  96933383.27643  23672073.969                    23672084.973
 127614331.257 6  99439749.071 6  24284202.133                    24284213.484
 116647283.137 7  90894056.348 7  22197242.352                    22197254.117
 117129035.703 7  91269447.08245  22288914.047                    22288923.449
 110397376.922 8  86024132.36046  21007911.648                    21007918.938
 11  8 26  1  1  0.0000000  0  8G10G12G05G04G29G25G30G02
 114891697.220 7  89526107.77245  21863130.992                    21863140.594
 109238484.179 8  85120960.624 7  20787390.719                    20787399.313
 107200592.177 8  83533037.284 8  20399571.086                    20399579.973
 124477932.705 7  96995920.00743  23687346.000                    23687357.105
 127532472.832 6  99375963.379 6  24268624.648                    24268635.902
 116590938.309 7  90850151.313 7  22186520.039                    22186532.027
 117076217.499 7  91228290.05045  22278862.695                    22278872.746
 110423616.781 8  86044579.02046  21012905.227                    21012912.355
 11  8 26  1  1 30.0000000  0  8G10G12G05G04G29G25G30G02
 114967008.929 7  89584792.21145  21877462.445                    21877472.125
 109246357.599 8  85127095.756 7  20788888.992                    20788897.488
 107171262.888 8  83510183.320 8  20393990.023                    20393999.137
 124558148.347 7  97058425.64143  23702610.414                    23702622.039
 127450549.774 6  99312127.329 6  24253035.289                    24253046.230
 116535084.901 8  90806629.223 7  22175891.906                    22175903.871
 117023938.064 7  91187552.83545  22268913.922                    22268924.078
 110449993.119 8  86065132.02346  21017924.359                    21017931.449
 11  8 26  1  2  0.0000000  0  8G10G12G05G04G29G25G30G02
 115042754.738 7  89643814.91045  21891876.406                    21891886.074
 109254813.664 8  85133684.906 7  20790497.859                    20790506.680
 107142501.126 8  83487771.594 8  20388516.836                    20388525.656
 124638323.727 6  97120899.92643  23717867.945                    23717879.289
 127368563.265 6  99248241.823 6  24237433.883                    24237444.500
 116479725.004 8  90763491.676 7  22165356.969                    22165369.406
 116972199.397 7  91147237.01245  22259067.859                    22259078.672
 110476505.437 8  86085790.99646  21022969.531                    21022977.094
 11  8 26  1  2 30.0000000  0  8G10G12G05G04G29G25G30G02
 115118931.518 7  89703173.41945  21906372.672                    21906382.043
 109263851.808 8  85140727.616 7  20792217.820                    20792226.859
 107114306.932 8  83465802.128 8  20383151.422                    20383160.813
 124718457.672 6  97183341.95143  23733116.313                    23733128.227
 127286513.388 6  99184306.951 6  24221819.664                    24221830.461
 116424860.028 8  90720739.787 7  22154916.625                    22154928.297
 116921002.766 7  91107343.53445  22249326.172                    22249335.945
 110503152.103 8  86106554.64346  21028040.234                    21028047.688
 11  8 26  1  3  0.0000000  0  8G10G12G05G04G29G25G30G02
 115195536.301 7  89762865.44845  21920949.563                    21920959.328
 109273471.524 8  85148223.496 7  20794048.391                    20794057.465
 107086681.204 8  83444275.622 8  20377894.328                    20377903.641
 124798549.522 7  97245751.15043  23748357.383                    23748369.961
 127204401.344 6  99120323.628 6  24206194.383                    24206205.176
 116370491.899 8  90678375.055 7  22144570.406                    22144582.566
 116870349.721 7  91067873.64645  22239687.141                    22239697.207
 110529932.350 8  86127422.39346  21033136.086                    21033143.488
 11  8 26  1  3 30.0000000  0  8G10G12G05G04G29G25G30G02
 115272566.312 7  89822888.83245  21935607.820                    21935617.414
 109283672.161 8  85156172.049 7  20795989.766                    20795998.746
 107059624.379 8  83423192.419 8  20372745.664                    20372754.730
 124878598.573 7  97308126.98844  23763590.969                    23763602.438
 127122227.129 6  99056291.857 6  24190557.734                    24190568.684
 116316622.106 8  90636398.640 7  22134319.414                    22134331.398
 116820241.685 7  91028828.45245  22230152.195                    22230162.625
 110556844.862 8  86148393.21146  21038257.297                    21038264.195
 11  8 26  1  4  0.0000000  0  8G10G12G05G04G29G25G30G02
 115350019.670 7  89883242.08845  21950346.781                    21950356.406
 109294454.469 8  85164573.839 7  20798040.992                    20798049.793
 107033137.327 8  83402553.191 8  20367705.539                    20367714.652
 124958604.851 7  97370469.50843  23778814.680                    23778826.688
 127039993.212 6  98992213.565 6  24174908.391                    24174919.590
 116263253.389 8  90594812.682 7  22124163.953                    22124175.621
 116770681.144 7  90990209.87745  22220720.563                    22220730.836
 110583890.183 8  86169467.50046  21043403.656                    21043410.945
 11  8 26  1  4 30.0000000  0  8G10G12G05G04G29G25G30G02
 115427893.104 7  89943922.65945  21965165.594                    21965175.254
 109305816.803 8  85173427.599 7  20800203.352                    20800212.473
 107007220.191 8  83382358.066 8  20362773.672                    20362782.746
 125038567.110 6  97432777.69544  23794031.164                    23794043.031
 126957699.408 6  98928088.608 6  24159248.625                    24159259.289
 116210386.908 8  90553618.070 7  22114103.406                    22114115.863
 116721668.975 7  90952018.60445  22211393.867                    22211403.875
 110611066.134 8  86190643.58346  21048575.320                    21048582.367
 11  8 26  1  5  0.0000000  0  8G10G12G05G04G29G25G30G02
 115506184.317 7  90004928.78145  21980063.477                    21980073.621
 109317759.267 8  85182733.409 7  20802476.008                    20802484.957
 106981874.215 8  83362607.981 8  20357950.313                    20357959.660
 125118485.409 6  97495051.66343  23809238.789                    23809250.836
 126875347.048 6  98863918.031 6  24143577.445                    24143588.016
 116158024.992 8  90512816.622 7  22104139.477                    22104151.086
 116673207.410 7  90914256.36845  22202171.461                    22202182.016
 110638372.938 8  86211921.63446  21053771.477                    21053778.766
 11  8 26  1  5 30.0000000  0  8G10G12G05G04G29G25G30G02
 115584890.112 7  90066257.96045  21995041.117                    21995051.082
 109330281.720 8  85192491.162 7  20804858.859                    20804867.996
 106957099.257 8  83343302.857 8  20353235.867                    20353245.012
 125198358.697 7  97557290.58243  23824438.898                    23824450.527
 126792936.607 6  98799702.199 6  24127895.367                    24127906.117
 116106168.933 8  90472409.350 7  22094271.516                    22094283.129
 116625297.472 7  90876923.97245  22193054.852                    22193065.270
 110665808.986 8  86233300.39346  21058992.813                    21058999.648
 11  8 26  1  6  0.0000000  0  8G10G12G05G04G29G25G30G02
 115664007.249 7  90127907.66845  22010096.508                    22010106.602
 109343382.899 8  85202699.865 7  20807352.188                    20807361.254
 106932895.748 8  83324443.014 8  20348629.742                    20348639.289
 125278186.362 6  97619493.92643  23839628.797                    23839641.094
 126710468.928 6  98735441.745 6  24112202.414                    24112212.695
 116054820.338 8  90432397.501 7  22084499.578                    22084511.828
 116577940.599 7  90840022.54745  22184043.313                    22184053.508
 110693373.261 8  86254779.06346  21064237.570                    21064244.547
 11  8 26  1  6 30.0000000  0  8G10G12G05G04G29G25G30G02
 115743534.171 7  90189876.67745  22025230.180                    22025239.934
 109357062.547 8  85213359.315 7  20809955.227                    20809964.176
 106909264.807 8  83306029.335 8  20344132.930                    20344142.203
 125357968.137 6  97681661.50043  23854811.375                    23854823.707
 126627945.275 6  98671137.658 6  24096498.859                    24096508.555
 116003981.576 8  90392782.922 7  22074825.609                    22074837.172
 116531138.849 7  90803553.68145  22175137.273                    22175147.215
 110721065.686 8  86276357.58546  21069507.375                    21069514.492
 11  8 26  1  7  0.0000000  0  8G10G12G05G04G29G25G30G02
 115823466.968 7  90252161.97345  22040440.969                    22040450.852
 109371320.125 8  85224469.115 7  20812668.695                    20812677.547
 106886206.074 8  83288061.523 8  20339744.969                    20339754.461
 125437702.964 6  97743792.51243  23869984.563                    23869996.391
 126545366.071 6  98606790.282 6  24080784.008                    24080794.578
 115953653.672 8  90353566.422 7  22065248.602                    22065260.703
 116484893.084 7  90767518.06145  22166336.609                    22166346.922
 110748884.625 8  86298034.69546  21074801.109                    21074808.684
 11  8 26  1  7 30.0000000  0  8G10G12G05G04G29G25G30G02
 115903803.632 7  90314761.95445  22055728.094                    22055738.605
 109386155.086 8  85236028.807 7  20815491.305                    20815500.465
 106863720.717 8  83270540.504 8  20335466.438                    20335475.422
 125517390.763 6  97805886.85243  23885148.469                    23885159.887
 126462732.953 6  98542400.897 6  24065059.391                    24065070.430
 115903838.923 8  90314749.770 7  22055768.867                    22055780.844
 116439205.333 7  90731917.26645  22157642.375                    22157652.512
 110776829.935 8  86319810.27646  21080119.133                    21080126.309
 11  8 26  1  8  0.0000000  0  8G10G12G05G04G29G25G30G02
 115984541.014 7  90377674.17645  22071092.258                    22071102.363
 109401566.964 8  85248038.055 7  20818424.445                    20818433.238
 106841808.544 8  83253466.112 8  20331296.656                    20331305.457
 125597030.716 6  97867943.94343  23900303.242                    23900314.582
 126380046.445 6  98477969.909 6  24049323.680                    24049335.309
 115854538.759 8  90276334.087 7  22046387.453                    22046398.938
 116394076.736 7  90696752.16545  22149054.813                    22149065.125
 110804900.469 8  86341683.43246  21085460.641                    21085467.570
 11  8 26  1  8 30.0000000  0  8G10G12G05G04G29G25G30G02
 116065675.878 7  90440896.14945  22086531.742                    22086541.789
 109417555.370 8  85260496.550 7  20821466.609                    20821475.625
 106820470.181 8  83236838.853 8  20327236.078                    20327245.047
 125676622.350 6  97929963.35343  23915450.164                    23915460.832
 126297307.423 6  98413497.982 6  24033579.891                    24033590.211
 115805754.691 7  90238320.566 7  22037104.484                    22037116.078
 116349508.637 7  90662023.81345  22140574.102                    22140583.801
 110833095.447 8  86363653.55146  21090826.086                    21090833.469
 11  8 26  1  9  0.0000000  0  8G10G12G05G04G29G25G30G02
 116147206.358 7  90504426.38145  22102046.344                    22102056.160
 109434119.144 8  85273403.376 7  20824618.742                    20824627.699
 106799705.985 8  83220658.993 8  20323284.141                    20323293.816
 125756165.318 6  97991944.87443  23930586.500                    23930597.629
 126214517.270 6  98348986.209 6  24017825.430                    24017835.844
 115757488.779 8  90200710.792 7  22027919.461                    22027931.129
 116305502.742 8  90627733.54345  22132200.203                    22132209.754
 110861414.286 8  86385720.18446  21096215.234                    21096222.129
 11  8 26  1  9 30.0000000  0  8G10G12G05G04G29G25G30G02
 116229129.203 7  90568262.35045  22117636.000                    22117645.563
 109451257.665 8  85286758.066 7  20827880.211                    20827889.039
 106779516.024 8  83204926.594 8  20319442.070                    20319451.750
 125835658.909 6  98053887.90843  23945713.836                    23945724.945
 126131676.871 6  98284435.254 6  24002061.719                    24002071.902
 115709742.332 8  90163505.792 7  22018833.469                    22018845.613
 116262060.211 7  90593882.24845  22123932.891                    22123943.465
 110889855.967 8  86407882.53546  21101627.461                    21101634.340
 11  8 26  1 10  0.0000000  0  8G10G12G05G04G29G25G30G02
 116311441.095 7  90632401.47045  22133299.391                    22133309.047
 109468970.421 8  85300560.204 7  20831250.484                    20831259.617
 106759900.357 8  83189641.690 8  20315709.688                    20315718.523
 125915102.208 6  98115791.76843  23960830.898                    23960842.293
 126048786.677 7  98219845.503 6  23986287.531                    23986297.926
 115662516.626 8  90126706.567 7  22009847.234                    22009858.887
 116219181.977 7  90560470.68345  22115773.242                    22115783.785
 110918419.238 8  86430139.62046  21107062.477                    21107069.742
 11  8 26  1 10 30.0000000  0  8G10G12G05G04G29G25G30G02
 116394140.074 7  90696842.20645  22149036.383                    22149045.980
 109487256.817 8  85314809.334 7  20834730.430                    20834739.785
 106740860.283 8  83174805.304 8  20312086.391                    20312095.398
 125994495.890 6  98177656.95043  23975939.008                    23975949.953
 125965848.324 7  98155218.228 6  23970505.391                    23970515.961
 115615814.234 8  90090315.111 7  22000959.664                    22000972.031
 116176870.417 7  90527500.66445  22107721.609                    22107731.691
 110947104.726 8  86452491.95246  21112521.383                    21112528.684
 11  8 26  1 11  0.0000000  0  8G10G12G05G04G29G25G30G02
 116477222.924 7  90761582.07845  22164846.336                    22164855.980
 109506115.620 8  85329504.501 7  20838319.234                    20838328.629
 106722395.239 8  83160416.991 8  20308572.906                    20308581.785
 126073838.438 6  98239482.30943  23991037.070                    23991048.754
 125882862.228 7  98090553.745 6  23954714.195                    23954723.703
 115569635.977 8  90054332.066 7  21992172.578                    21992183.996
 116135126.015 8  90494972.59745  22099778.039                    22099788.438
 110975910.334 8  86474937.88146  21118002.898                    21118010.133
 11  8 26  1 11 30.0000000  0  8G10G12G05G04G29G25G30G02
 116560687.304 7  90826619.23145  22180729.406                    22180739.063
 109525546.779 8  85344645.663 7  20842016.547                    20842026.070
 106704505.851 8  83146477.234 8  20305168.508                    20305178.027
 126153130.260 7  98301268.10443  24006125.719                    24006138.262
 125799830.064 7  98025853.365 6  23938913.461                    23938923.086
 115523984.164 8  90018759.257 7  21983484.930                    21983496.480
 116093950.911 7  90462888.11445  22091942.719                    22091952.609
 111004836.501 8  86497477.75146  21123507.391                    21123514.430
 11  8 26  1 12  0.0000000  0  8G10G12G05G04G29G25G30G02
 116644529.489 7  90891950.77445  22196684.133                    22196693.953
 109545548.653 8  85360231.534 7  20845822.977                    20845832.547
 106687191.688 8  83132985.720 8  20301873.734                    20301882.484
 126232370.103 6  98363013.42843  24021204.219                    24021217.340
 125716752.349 7  97961117.509 6  23923103.852                    23923113.840
 115478859.480 8  89983597.189 7  21974898.125                    21974909.875
 116053345.432 7  90431247.50245  22084215.820                    22084225.234
 111033881.316 8  86520110.07446  21129034.273                    21129041.828
 11  8 26  1 12 30.0000000  0  8G10G12G05G04G29G25G30G02
 116728747.167 7  90957574.91545  22212710.594                    22212720.168
 109566120.822 8  85376261.789 7  20849737.742                    20849746.977
 106670453.303 8  83119942.852 8  20298687.945                    20298697.453
 126311557.626 6  98424717.95643  24036273.875                    24036286.012
 125633630.135 7  97896346.982 6  23907286.203                    23907296.883
 115434263.680 8  89948847.229 7  21966411.734                    21966423.320
 116013311.075 7  90400051.91545  22076597.430                    22076607.707
 111063044.300 8  86542834.47546  21134584.078                    21134591.180
 11  8 26  1 13  0.0000000  0  8G10G12G05G04G29G25G30G02
 116813337.040 7  91023489.09144  22228807.289                    22228817.121
 109587262.333 8  85392735.696 7  20853760.734                    20853770.293
 106654290.527 8  83107348.508 8  20295612.602                    20295621.742
 126390692.383 6  98486381.39243  24051332.672                    24051344.535
 125550464.503 7  97831542.626 6  23891459.961                    23891470.836
 115390198.080 8  89914510.414 7  21958026.820                    21958038.109
 115973848.851 7  90369302.14645  22069087.711                    22069097.441
 111092324.624 8  86565650.30646  21140155.695                    21140163.016
 11  8 26  1 13 30.0000000  0  8G10G12G05G04G29G25G30G02
 116898296.931 7  91089691.57344  22244974.891                    22244984.609
 109608972.509 8  85409652.700 7  20857892.148                    20857901.590
 106638704.060 8  83095203.245 8  20292646.563                    20292655.664
 126469774.167 6  98548003.51643  24066381.164                    24066393.094
 125467256.823 7  97766705.535 6  23875626.328                    23875636.848
 115346664.597 8  89880588.245 7  21949742.656                    21949754.125
 115934960.441 7  90338999.51245  22061687.922                    22061698.129
 111121722.084 8  86588557.40546  21145749.906                    21145757.313
 11  8 26  1 14  0.0000000  0  8G10G12G05G04G29G25G30G02
 116983623.904 7  91156180.08045  22261212.109                    22261222.012
 109631250.392 8  85427012.089 7  20862131.406                    20862140.750
 106623693.750 8  83083506.924 8  20289790.172                    20289799.492
 126548802.630 6  98609584.09643  24081420.258                    24081432.500
 125384007.899 7  97701836.301 6  23859784.563                    23859794.852
 115303664.566 8  89847081.754 7  21941559.813                    21941571.215
 115896646.934 7  90309144.84945  22054397.258                    22054406.805
 111151235.816 8  86611555.10446  21151366.188                    21151372.875
 11  8 26  1 14 30.0000000  0  8G10G12G05G04G29G25G30G02
 117069314.459 7  91222951.92745  22277518.711                    22277527.746
 109654094.925 8  85444813.019 7  20866478.789                    20866488.332
 106609259.135 8  83072259.199 8  20287043.570                    20287052.383
 126627776.841 6  98671122.42043  24096447.648                    24096460.875
 125300718.756 7  97636935.750 6  23843934.859                    23843945.121
 115261199.059 8  89813991.751 7  21933478.461                    21933490.277
 115858909.005 7  90279738.68945  22047215.813                    22047225.535
 111180864.609 8  86634642.47546  21157004.188                    21157011.574
 11  8 26  1 15  0.0000000  0  8G10G12G05G04G29G25G30G02
 117155366.527 7  91290005.45645  22293893.664                    22293903.039
 109677505.509 8  85463055.016 7  20870933.648                    20870942.930
 106595400.867 8  83061460.581 8  20284406.227                    20284415.301
 126706697.211 6  98732618.75543  24111466.898                    24111478.695
 125217391.089 7  97572005.195 6  23828078.531                    23828088.609
 115219270.255 8  89781319.967 7  21925500.102                    21925512.117
 115821748.632 7  90250782.55845  22040144.281                    22040154.191
 111210608.866 8  86657819.81846  21162664.406                    21162671.977
 11  8 26  1 15 30.0000000  0  8G10G12G05G04G29G25G30G02
 117241776.914 7  91357338.21045  22310336.719                    22310346.633
 109701480.373 8  85481736.716 7  20875495.836                    20875505.051
 106582118.415 8  83051110.651 8  20281878.781                    20281887.426
 126785562.511 6  98794072.22643  24126473.453                    24126485.773
 125134024.987 7  97507044.697 6  23812213.766                    23812224.496
 115177878.641 8  89749066.782 7  21917623.180                    21917634.855
 115785165.936 7  90222276.57145  22033183.063                    22033192.988
 111240466.493 8  86681085.50446  21168346.414                    21168353.645
 11  8 26  1 16  0.0000000  0  8G10G12G05G04G29G25G30G02
 117328542.837 7  91424948.00045  22326847.148                    22326857.617
 109726019.121 8  85500857.810 7  20880165.117                    20880174.211
 106569412.140 8  83041209.690 8  20279460.953                    20279469.637
 126864372.603 6  98855482.60043  24141471.492                    24141483.457
 125050622.137 7  97442055.581 6  23796343.047                    23796353.582
 115137026.027 8  89717233.604 7  21909849.078                    21909860.988
 115749162.534 7  90194222.00545  22026331.633                    22026341.832
 111270437.491 8  86704439.51346  21174049.531                    21174056.426
 11  8 26  1 16 30.0000000  0  9G10G12G05G26G04G29G25G30G02
 117415661.482 7  91492832.62945  22343425.992                    22343435.793
 109751120.607 8  85520417.408 7  20884941.914                    20884950.906
 106557282.297 8  83031757.896 8  20277152.383                    20277161.199
 130617518.10715                  24855692.922
 126943127.558 6  98916850.08943  24156458.086                    24156469.316
 124967183.653 7  97377038.710 6  23780464.805                    23780475.930
 115096714.015 8  89685821.667 7  21902178.227                    21902190.500
 115713739.638 7  90166619.77845  22019590.719                    22019600.422
 111300521.502 8  86727881.59446  21179774.227                    21179781.531
 11  8 26  1 17  0.0000000  0  9G10G12G05G26G04G29G25G30G02
 117503129.885 7  91560989.82645  22360070.086                    22360080.070
 109776783.941 8  85540414.798 7  20889825.898                    20889834.594
 106545728.430 8  83022754.912 8  20274953.914                    20274962.707
 130526154.728 6 101708758.07752  24838307.266                    24838319.559
 127021826.682 6  98978174.05443  24171433.906                    24171445.484
 124883710.773 7  97311995.031 6  23764580.680                    23764591.008
 115056943.766 8  89654831.885 7  21894610.031                    21894621.789
 115678898.125 7  90139470.57045  22012960.961                    22012970.441
 111330717.624 8  86751411.03146  21185520.820                    21185527.656
 11  8 26  1 17 30.0000000  0  9G10G12G05G26G04G29G25G30G02
 117590944.641 7  91629416.87945  22376781.102                    22376791.039
 109803007.702 8  85560848.888 7  20894815.914                    20894825.051
 106534750.098 8  83014200.402 8  20272864.695                    20272873.660
 130434646.351 6 101637453.13943  24820892.555                    24820906.379
 127100469.249 6  99039453.93043  24186399.172                    24186411.145
 124800204.365 7  97246925.230 6  23748689.742                    23748700.105
 115017716.188 8  89624264.960 7  21887145.430                    21887156.898
 115644638.586 7  90112774.86545  22006441.609                    22006450.992
 111361024.337 8  86775026.64346  21191287.875                    21191295.195
 11  8 26  1 18  0.0000000  0  9G10G12G05G26G04G29G25G30G02
 117679103.241 7  91698111.87145  22393557.188                    22393566.957
 109829790.978 8  85581718.969 7  20899912.523                    20899921.406
 106524347.645 8  83006094.629 8  20270885.422                    20270894.188
 130342996.282 6 101566037.76743  24803452.250                    24803466.969
 127179055.351 6  99100689.80143  24201353.406                    24201365.344
 124716665.529 7  97181830.142 6  23732792.797                    23732803.164
 114979032.906 8  89594122.162 7  21879784.375                    21879795.680
 115610962.309 7  90086533.64345  22000033.195                    22000042.813
 111391442.048 8  86798728.74446  21197076.234                    21197082.910
 11  8 26  1 18 30.0000000  0  9G10G12G05G26G04G29G25G30G02
 117767602.852 7  91767072.57744  22410398.016                    22410408.547
 109857133.181 8  85603024.572 7  20905115.586                    20905125.043
 106514520.882 8  82998437.440 8  20269015.469                    20269024.246
 130251206.843 6 101494513.81643  24785985.500                    24785999.426
 127257584.529 6  99161881.33843  24216297.453                    24216308.414
 124633095.337 7  97116710.624 6  23716889.906                    23716900.734
 114940895.176 8  89564404.458 7  21872526.813                    21872538.375
 115577870.254 7  90060747.66545  21993735.281                    21993745.484
 111421969.819 8  86822516.61746  21202884.977                    21202892.598
 11  8 26  1 19  0.0000000  0  9G10G12G05G26G04G29G25G30G02
 117856440.665 7  91836296.81744  22427303.445                    22427314.457
 109885032.055 8  85624763.950 7  20910424.719                    20910433.414
 106505269.397 8  82991228.518 8  20267254.563                    20267263.480
 130159280.927 6 101422883.51143  24768492.508                    24768506.383
 127336056.288 6  99223028.12643  24231229.477                    24231241.117
 124549495.357 7  97051567.885 6  23700981.320                    23700991.770
 114903304.017 8  89535112.677 7  21865373.547                    21865385.203
 115545363.100 7  90035417.44945  21987549.500                    21987559.520
 111452606.788 8  86846389.57746  21208714.969                    21208722.035
 11  8 26  1 19 30.0000000  0  9G10G12G05G26G04G29G25G30G02
 117945613.497 7  91905782.11445  22444272.398                    22444282.961
 109913486.558 8  85646936.274 7  20915839.375                    20915848.500
 106496592.895 8  82984467.640 8  20265603.438                    20265612.398
 130067221.171 6 101351148.91643  24750974.117                    24750987.641
 127414470.242 6  99284129.87143  24246151.461                    24246162.910
 124465866.458 7  96986402.600 6  23685067.141                    23685077.484
 114866260.597 8  89506247.690 7  21858323.984                    21858336.008
 115513441.720 7  90010543.67945  21981475.281                    21981485.020
 111483352.178 8  86870347.02846  21214565.977                    21214572.914
 11  8 26  1 20  0.0000000  0  9G10G12G05G26G04G29G25G30G02
 118035119.139 7  91975526.74644  22461305.008                    22461314.723
 109942496.109 8  85669541.111 7  20921359.695                    20921368.984
 106488491.811 8  82978155.134 8  20264062.250                    20264070.961
 129975030.778 6 101279312.52143  24733430.344                    24733444.656
 127492826.375 6  99345186.57143  24261062.750                    24261074.207
 124382209.927 7  96921215.784 6  23669147.320                    23669157.848
 114829766.531 8  89477810.764 7  21851379.414                    21851391.750
 115482107.373 7  89986127.32745  21975512.695                    21975522.504
 111514205.725 8  86894388.75946  21220437.023                    21220444.543
 11  8 26  1 20 30.0000000  0  9G10G12G05G26G04G29G25G30G02
 118124954.227 7  92045528.08944  22478399.891                    22478409.910
 109972058.996 8  85692577.119 7  20926985.484                    20926995.105
 106480965.241 8  82972290.304 8  20262629.859                    20262638.324
 129882712.409 6 101207376.40643  24715862.352                    24715876.945
 127571124.244 7  99406197.90843  24275962.250                    24275974.086
 124298526.975 7  96856008.381 6  23653223.344                    23653233.504
 114793822.614 8  89449802.516 7  21844539.867                    21844551.719
 115451360.489 7  89962168.74045  21969661.883                    21969671.801
 111545166.534 8  86918514.07146  21226328.719                    21226336.004
 11  8 26  1 21  0.0000000  0  9G10G12G05G26G04G29G25G30G02
 118215115.977 7  92115783.98144  22495557.188                    22495567.285
 110002174.166 8  85716043.476 7  20932715.859                    20932725.074
 106474013.312 8  82966873.242 8  20261306.461                    20261315.605
 129790268.985 6 101135342.84243  24698271.234                    24698285.152
 127649363.410 7  99467163.48243  24290850.500                    24290861.574
 124214818.958 7  96790781.424 6  23637294.305                    23637304.035
 114758430.229 7  89422224.037 7  21837804.680                    21837816.398
 115421202.282 7  89938668.86445  21963922.445                    21963932.422
 111576234.389 8  86942722.78746  21232240.156                    21232247.582
 11  8 26  1 21 30.0000000  0  9G10G12G05G26G04G29G25G30G02
 118305601.378 7  92186292.05944  22512775.727                    22512785.598
 110032840.383 8  85739939.216 7  20938551.664                    20938560.551
 106467635.631 8  82961903.645 8  20260093.086                    20260102.301
 129697703.358 6 101063214.05243  24680656.844                    24680670.563
 127727543.671 6  99528083.17343  24305727.602                    24305738.703
 124131086.907 7  96725535.728 6  23621360.383                    23621371.082
 114723590.337 8  89395076.066 7  21831174.758                    21831187.008
 115391633.161 7  89915628.00745  21958295.867                    21958305.797
 111607408.237 8  86967014.10646  21238173.203                    21238180.074
 11  8 26  1 22  0.0000000  0  9G10G12G05G26G04G29G25G30G02
 118396407.337 7  92257049.92244  22530055.188                    22530065.824
 110064056.460 8  85764263.421 7  20944491.883                    20944501.051
 106461831.592 8  82957381.044 8  20258988.492                    20258997.398
 129605018.312 6 100990992.20143  24663019.070                    24663032.742
 127805664.664 6  99588956.66843  24320594.023                    24320604.281
 124047332.076 7  96660272.291 6  23605422.375                    23605432.672
 114689304.038 8  89368359.460 7  21824650.539                    21824662.586
 115362653.954 7  89893046.83245  21952780.906                    21952790.238
 111638687.481 8  86991387.53846  21244125.172                    21244132.180
 11  8 26  1 22 30.0000000  0  9G10G12G05G26G04G29G25G30G02
 118487531.023 7  92328055.35244  22547395.961                    22547406.105
 110095821.048 8  85789015.035 7  20950536.992                    20950545.477
 106456601.106 8  82953305.359 8  20257993.289                    20258001.883
 129512216.708 6 100918679.48043  24645358.898                    24645372.406
 127883726.284 6  99649783.87943  24335448.266                    24335459.367
 123963555.816 7  96594992.152 6  23589480.531                    23589490.496
 114655572.403 8  89342075.052 7  21818231.352                    21818243.578
 115334265.454 7  89870925.90745  21947379.242                    21947388.840
 111670071.636 8  87015842.73846  21250097.672                    21250104.582
 11  8 26  1 23  0.0000000  0  9G10G12G05G26G04G29G25G30G02
 118578969.886 7  92399306.38144  22564795.680                    22564806.152
 110128132.484 8  85814192.773 7  20956685.352                    20956694.336
 106451943.896 8  82949676.390 8  20257107.125                    20257115.781
 129419301.604 6 100846278.40242  24627677.383                    24627690.926
 127961728.090 6  99710564.50943  24350291.445                    24350302.738
 123879759.119 7  96529696.072 6  23573534.234                    23573544.398
 114622396.707 8  89316223.854 7  21811918.539                    21811930.418
 115306468.420 7  89849265.87845  21942089.516                    21942099.402
 111701560.018 8  87040379.15446  21256089.383                    21256096.828
 11  8 26  1 23 30.0000000  0  9G10G12G05G26G04G29G25G30G02
 118670720.783 7  92470800.56744  22582256.250                    22582265.613
 110160989.386 8  85839795.542 7  20962937.773                    20962946.996
 106447859.206 8  82946493.544 8  20256329.633                    20256338.500
 129326275.739 6 100773791.01843  24609975.289                    24609988.828
 128039669.858 6  99771298.34143  24365123.523                    24365135.113
 123795943.322 7  96464385.101 6  23557584.383                    23557594.824
 114589777.640 7  89290806.383 7  21805710.930                    21805722.754
 115279263.415 7  89828067.16845  21936911.969                    21936922.555
 111733152.142 7  87064996.40446  21262101.055                    21262108.738
 11  8 26  1 24  0.0000000  0  9G10G12G05G26G04G29G25G30G02
 118762780.834 7  92542535.64544  22599774.250                    22599784.281
 110194390.792 8  85865822.598 7  20969293.164                    20969302.648
 106444346.842 8  82943756.660 8  20255661.508                    20255670.164
 129233142.175 6 100701219.66142  24592252.430                    24592264.738
 128117551.302 6  99831985.17243  24379943.555                    24379955.313
 123712109.678 7  96399060.237 6  23541631.250                    23541641.633
 114557716.481 7  89265823.652 7  21799610.445                    21799622.145
 115252651.245 7  89807330.40645  21931848.742                    21931857.914
 111764847.669 8  87089694.21946  21268132.695                    21268139.852
 11  8 26  1 24 30.0000000  0  9G10G12G05G26G04G29G25G30G02
 118855147.037 6  92614509.28744  22617350.844                    22617360.625
 110228334.925 8  85892272.563 7  20975753.141                    20975762.039
 106441406.274 8  82941465.330 8  20255101.727                    20255110.699
 129139903.591 6 100628566.44543  24574509.406                    24574521.664
 128195372.136 6  99892624.78043  24394751.953                    24394763.672
 123628259.810 7  96333722.708 6  23525675.313                    23525685.129
 114526214.068 8  89241276.306 7  21793616.000                    21793627.625
 115226632.296 7  89787055.89245  21926897.523                    21926907.570
 111796645.725 7  87114471.94246  21274183.633                    21274191.234
 11  8 26  1 25  0.0000000  0  9G10G12G05G26G04G29G25G30G02
 118947816.725 6  92686719.40744  22634985.172                    22634995.180
 110262820.742 7  85919144.616 7  20982315.820                    20982324.809
 106439037.308 8  82939619.405 8  20254651.148                    20254659.695
 129046563.199 6 100555833.94742  24556746.867                    24556758.969
 128273132.254 6  99953217.05943  24409549.320                    24409561.125
 123544394.597 7  96268373.249 6  23509716.633                    23509726.426
 114495271.489 7  89217165.200 7  21787727.320                    21787738.852
 115201207.435 7  89767244.28745  21922059.156                    21922068.898
 111828545.839 7  87139329.18046  21280254.133                    21280261.219
 11  8 26  1 25 30.0000000  0  9G10G12G05G26G04G29G25G30G02
 119040786.937 7  92759163.70444  22652677.039                    22652686.230
 110297846.210 8  85946437.176 7  20988980.547                    20988989.680
 106437239.082 8  82938218.218 8  20254309.109                    20254317.547
 128953123.844 6 100483024.25242  24538965.578                    24538978.375
 128350831.342 6 100013761.81543  24424335.680                    24424346.641
 123460515.739 7  96203013.138 6  23493754.672                    23493764.887
 114464889.482 8  89193490.890 7  21781945.766                    21781957.695
 115176376.998 7  89747895.88445  21917334.086                    21917343.422
 111860547.449 7  87164265.51246  21286343.602                    21286350.848
 11  8 26  1 26  0.0000000  0  9G10G12G05G26G04G29G25G30G02
 119134054.817 7  92831839.97344  22670425.633                    22670434.855
 110333410.120 8  85974149.309 7  20995748.195                    20995757.422
 106436011.538 8  82937261.712 8  20254075.484                    20254083.902
 128859588.395 6 100410139.72943  24521166.813                    24521179.945
 128428469.120 6 100074258.77443  24439110.031                    24439121.508
 123376624.358 7  96137643.283 6  23477790.367                    23477800.633
 114435069.246 8  89170254.340 7  21776271.539                    21776283.098
 115152141.775 7  89729011.27245  21912722.008                    21912731.648
 111892650.012 7  87189280.50846  21292452.719                    21292459.805
 11  8 26  1 26 30.0000000  0  9G10G12G05G26G04G29G25G30G02
 119227617.351 7  92904745.81644  22688229.813                    22688239.680
 110369510.994 8  86002279.852 7  21002617.953                    21002627.316
 106435353.628 8  82936749.084 8  20253949.797                    20253958.727
 128765959.971 6 100337182.76643  24503349.375                    24503363.348
 128506045.288 7 100134707.72343  24453871.938                    24453883.008
 123292721.613 7  96072264.565 6  23461824.438                    23461834.199
 114405811.464 8  89147456.067 7  21770703.594                    21770715.480
 115128502.078 7  89710590.71445  21908223.586                    21908233.613
 111924852.892 7  87214373.67046  21298580.555                    21298587.633
 11  8 26  1 27  0.0000000  0  9G10G12G05G26G04G29G25G30G02
 119321471.376 6  92977878.82344  22706089.484                    22706098.965
 110406147.007 8  86030827.391 7  21009589.273                    21009598.699
 106435264.715 8  82936679.826 8  20253933.000                    20253941.449
 128672241.475 6 100264155.57443  24485515.133                    24485528.660
 128583559.522 6 100195108.41943  24468622.406                    24468633.902
 123208808.816 7  96006877.996 6  23445856.273                    23445866.145
 114377116.723 8  89125096.534 7  21765243.773                    21765255.313
 115105458.250 7  89692634.47845  21903838.523                    21903848.090
 111957155.194 7  87239544.31246  21304727.719                    21304734.676
 11  8 26  1 27 30.0000000  0  9G10G12G05G26G04G29G25G30G02
 119415614.042 6  93051236.72844  22724004.156                    22724014.066
 110443316.779 8  86059790.832 7  21016662.922                    21016671.941
 106435744.168 8  82937053.449 8  20254024.289                    20254033.168
 128578435.712 7 100191060.40343  24467664.313                    24467677.773
 128661011.734 6 100255460.84442  24483360.320                    24483372.359
 123124887.498 6  95941484.802 6  23429886.422                    23429896.738
 114348986.111 8  89103176.592 7  21759890.484                    21759901.801
 115083010.893 8  89675143.01945  21899566.664                    21899576.914
 111989556.893 7  87264792.40046  21310893.727                    21310900.719
 11  8 26  1 28  0.0000000  0  9G10G12G05G26G04G29G25G30G02
 119510042.601 6  93124817.42344  22741973.477                    22741983.590
 110481018.505 8  86089168.798 7  21023837.078                    21023846.660
 106436791.547 8  82937869.612 8  20254223.313                    20254232.254
 128484545.784 6 100117899.67543  24449797.602                    24449811.563
 128738401.663 6 100315764.73043  24498087.297                    24498098.664
 123040959.040 6  95876086.042 6  23413916.102                    23413926.188
 114321420.429 8  89081696.863 7  21754644.938                    21754656.332
 115061160.431 7  89658116.67145  21895408.766                    21895418.914
 112022057.153 7  87290117.28446  21317077.953                    21317085.387
 11  8 26  1 28 30.0000000  0  9G10G12G05G26G04G29G25G30G02
 119604754.118 6  93198618.59944  22759996.453                    22760006.898
 110519251.273 8  86118960.556 7  21031112.523                    21031121.855
 106438406.304 8  82939127.893 8  20254530.641                    20254539.453
 128390574.844 7 100044675.81443  24431915.117                    24431929.012
 128815729.333 6 100376020.01242  24512801.695                    24512813.320
 122957024.565 6  95810682.585 6  23397943.664                    23397953.746
 114294420.442 8  89060657.930 7  21749506.914                    21749518.543
 115039907.306 8  89641555.78945  21891365.273                    21891374.320
 112054655.839 7  87315518.87546  21323281.320                    21323288.078
 11  8 26  1 29  0.0000000  0  9G10G12G05G26G04G29G25G30G02
 119699745.920 6  93272638.15944  22778072.039                    22778083.035
 110558012.770 8  86149164.302 7  21038489.094                    21038497.809
 106440587.878 8  82940827.854 8  20254945.883                    20254954.031
 128296525.820 6  99971391.13043  24414018.352                    24414031.832
 128892994.533 6 100436226.69142  24527505.438                    24527516.996
 122873085.694 6  95745275.710 6  23381970.406                    23381980.176
 114267987.153 8  89040060.584 7  21744476.570                    21744488.387
 115019252.044 8  89625460.75745  21887434.445                    21887443.719
 112087352.261 7  87340996.61446  21329503.039                    21329510.297
 11  8 26  1 29 30.0000000  0  9G10G12G05G26G04G29G25G30G02
 119795015.030 6  93346873.82544  22796201.789                    22796211.820
 110597301.490 8  86179778.879 7  21045965.313                    21045974.273
 106443335.493 8  82942968.865 8  20255468.875                    20255477.695
 128202401.938 7  99898048.07343  24396106.680                    24396120.000
 128970196.986 6 100496384.46342  24542197.234                    24542208.902
 122789143.703 6  95679866.412 6  23365996.625                    23366006.707
 114242121.068 8  89019905.212 7  21739554.766                    21739566.105
 114999194.869 7  89609831.79545  21883617.359                    21883626.781
 112120145.965 7  87366550.16746  21335743.344                    21335750.719
 11  8 26  1 30  0.0000000  0  9G10G12G05G26G04G29G25G30G02
 119890558.351 6  93421323.13244  22814383.125                    22814393.691
 110637115.748 8  86210802.971 7  21053541.313                    21053550.883
 106446648.156 8  82945550.178 8  20256099.039                    20256107.578
 128108206.018 6  99824648.88043  24378182.320                    24378195.672
 129047336.432 6 100556493.15942  24556875.789                    24556887.793
 122705200.000 6  95614455.773 6  23350022.445                    23350032.285
 114216822.871 8  89000192.350 7  21734740.242                    21734751.754
 114979736.016 8  89594669.05445  21879914.594                    21879924.172
 112153036.283 7  87392178.98946  21342002.055                    21342009.371
 11  8 26  1 30 30.0000000  0  9G10G12G05G26G04G29G25G30G02
 119986373.043 6  93495983.91144  22832616.289                    22832626.160
 110677453.976 8  86242235.345 7  21061217.641                    21061227.180
 106450525.263 8  82948571.333 8  20256836.898                    20256845.559
 128013941.080 6  99751195.92643  24360243.227                    24360256.953
 129124412.946 6 100616552.74742  24571543.078                    24571555.160
 122621255.788 6  95549044.759 6  23334048.352                    23334058.563
 114192093.338 8  88980922.600 7  21730034.633                    21730045.957
 114960875.886 8  89579972.86045  21876325.227                    21876334.723
 112186022.811 7  87417882.78346  21348279.313                    21348286.453
 11  8 26  1 31  0.0000000  0  9G10G12G05G26G04G29G25G30G02
 120082456.521 7  93570854.14244  22850899.875                    22850910.555
 110718314.796 8  86274074.926 7  21068993.047                    21069002.234
 106454966.750 8  82952032.247 8  20257681.945                    20257690.969
 127919610.542 6  99677691.84843  24342293.000                    24342306.031
 129201426.426 6 100676563.20943  24586197.852                    24586210.773
 122537312.910 6  95483634.795 6  23318074.672                    23318084.129
 114167933.434 8  88962096.713 7  21725437.266                    21725448.813
 114942615.030 8  89565743.63245  21872850.578                    21872860.020
 112219105.529 7  87443661.54146  21354574.828                    21354581.660
 11  8 26  1 31 30.0000000  0  9G10G12G05G26G04G29G25G30G02
 120178805.745 6  93645931.43244  22869235.195                    22869245.488
 110759696.283 8  86306320.227 7  21076868.227                    21076877.258
 106459971.077 8  82955931.738 8  20258634.453                    20258643.055
 127825217.277 6  99604138.87443  24324330.211                    24324343.402
 129278376.507 6 100736524.26743  24600841.195                    24600852.855
 122453372.687 7  95418226.891 6  23302101.227                    23302111.445
 114144343.479 8  88943714.949 7  21720947.680                    21720959.691
 114924953.417 8  89551981.34445  21869489.547                    21869499.035
 112252283.740 7  87469514.70846  21360888.375                    21360895.750
 11  8 26  1 32  0.0000000  0  9G10G12G05G26G04G29G25G30G02
 120275417.693 7  93721213.44444  22887619.867                    22887629.527
 110801596.363 8  86338969.623 7  21084841.164                    21084850.688
 106465537.552 8  82960269.270 8  20259693.383                    20259702.203
 127730764.472 6  99530539.48043  24306355.898                    24306368.898
 129355262.886 6 100796435.72543  24615471.961                    24615483.824
 122369436.597 7  95352822.207 6  23286128.469                    23286138.496
 114121324.022 8  88925777.730 7  21716567.609                    21716579.051
 114907891.106 8  89538686.03645  21866242.742                    21866251.832
 112285556.590 7  87495441.61046  21367220.203                    21367226.898
 11  8 26  1 32 30.0000000  0  9G10G12G05G26G04G29G25G30G02
 120372289.233 7  93796697.74444  22906053.891                    22906064.055
 110844013.182 8  86372021.677 7  21092912.977                    21092922.477
 106471665.461 8  82965044.285 8  20260859.773                    20260868.285
 127636255.138 6  99456896.04543  24288371.648                    24288384.047
 129432085.712 6 100856297.65943  24630090.859                    24630102.777
 122285506.080 7  95287421.859 6  23270157.406                    23270166.863
 114098875.754 8  88908285.584 7  21712295.664                    21712307.434
 114891428.544 7  89525858.07545  21863109.977                    21863119.883
 112318923.957 7  87521442.15546  21373569.664                    21373576.211
 11  8 26  1 33  0.0000000  0  9G10G12G05G26G04G29G25G30G02
 120469417.914 7  93872382.40644  22924536.969                    22924546.652
 110886945.172 8  86405475.155 7  21101082.852                    21101092.078
 106478353.774 8  82970255.976 8  20262132.289                    20262141.039
 127541692.411 6  99383210.97843  24270376.563                    24270388.605
 129508844.636 6 100916109.78043  24644698.125                    24644710.141
 122201582.292 7  95222026.765 6  23254187.102                    23254196.824
 114076999.177 8  88891238.923 7  21708132.891                    21708144.352
 114875565.669 8  89513497.39845  21860091.570                    21860101.211
 112352385.178 7  87547515.84046  21379936.797                    21379943.609
 11  8 26  1 33 30.0000000  0  9G10G12G05G26G04G29G25G30G02
 120566800.468 7  93948264.88344  22943067.625                    22943078.035
 110930390.254 8  86439328.452 7  21109349.891                    21109358.883
 106485601.226 8  82975903.355 8  20263511.086                    20263520.070
 127447079.004 6  99309486.42243  24252372.977                    24252384.637
 129585539.600 6 100975872.06943  24659293.227                    24659304.484
 122117666.814 6  95156638.153 6  23238218.406                    23238228.035
 114055694.654 8  88874638.012 7  21704078.195                    21704090.305
 114860302.482 7  89501604.00945  21857186.820                    21857196.188
 112385939.743 8  87573662.26146  21386322.516                    21386329.422
 11  8 26  1 34  0.0000000  0  8G10G12G05G26G29G25G30G02
 120664434.431 7  94024343.28444  22961647.047                    22961657.160
 110974347.328 8  86473580.699 7  21117714.609                    21117723.875
 106493407.935 8  82981986.516 8  20264996.938                    20265005.293
 127352418.956 6  99235725.51943  24234359.273                    24234371.281
 122033761.448 7  95091257.411 6  23222252.148                    23222261.664
 114034963.303 8  88858483.732 7  21700133.148                    21700145.555
 114845639.755 7  89490178.51945  21854396.773                    21854406.520
 112419587.780 8  87599881.51446  21392725.305                    21392732.922
 11  8 26  1 34 30.0000000  0  8G10G12G05G26G29G25G30G02
 120762317.167 6  94100615.50844  22980273.867                    22980283.813
 111018814.390 8  86508230.338 7  21126176.688                    21126185.824
 106501772.897 8  82988504.684 8  20266588.867                    20266597.285
 127257715.241 6  99161930.60043  24216337.648                    24216349.145
 121949867.908 7  95025885.886 6  23206287.773                    23206297.098
 114014805.552 8  88842776.405 7  21696297.070                    21696309.324
 114831577.448 7  89479220.88845  21851720.625                    21851730.211
 112453328.987 8  87626173.37346  21399145.953                    21399153.035
 11  8 26  1 35  0.0000000  0  8G10G12G05G26G29G25G30G02
 120860445.317 7  94177078.97644  22998946.828                    22998957.305
 111063789.290 8  86543275.703 7  21134735.094                    21134744.410
 106510694.284 8  82995456.428 8  20268286.563                    20268294.887
 127162970.470 7  99088103.69643  24198307.977                    24198319.984
 121865986.961 7  94960524.182 6  23190325.641                    23190335.113
 113995221.411 8  88827516.046 7  21692570.609                    21692582.230
 114818115.161 7  89468730.81245  21849158.891                    21849168.621
 112487162.322 8  87652537.01346  21405584.156                    21405591.336
 11  8 26  1 35 30.0000000  0  8G10G12G05G26G29G25G30G02
 120958815.856 6  94253731.31444  23017666.125                    23017676.184
 111109269.841 8  86578715.075 7  21143389.703                    21143398.695
 106520171.277 8  83002841.109 8  20270090.016                    20270098.449
 127068187.869 6  99014247.29943  24180271.313                    24180282.578
 121782120.136 7  94895173.488 6  23174365.828                    23174375.988
 113976211.270 8  88812702.955 7  21688953.289                    21688964.570
 114805252.896 7  89458708.28545  21846710.859                    21846720.859
 112521087.323 8  87678972.08746  21412040.227                    21412047.223
 11  8 26  1 36  0.0000000  0  8G10G12G05G26G29G25G30G02
 121057426.009 6  94330570.35344  23036431.102                    23036441.535
 111155253.798 8  86614546.721 7  21152140.078                    21152149.551
 106530202.862 8  83010657.953 8  20271998.961                    20272007.461
 126973370.632 6  98940363.93243  24162227.742                    24162239.949
 121698268.980 7  94829834.993 6  23158409.531                    23158419.316
 113957775.459 8  88798337.409 7  21685444.938                    21685456.566
 114792990.527 7  89449153.20545  21844378.172                    21844388.195
 112555103.530 8  87705478.23546  21418513.227                    21418520.445
 11  8 26  1 36 30.0000000  0  8G10G12G05G26G29G25G30G02
 121156273.220 6  94407594.12344  23055241.039                    23055251.273
 111201739.773 8  86650769.538 7  21160985.938                    21160995.219
 106540788.730 8  83018906.701 8  20274013.031                    20274021.664
 126878522.092 6  98866456.19243  24144179.328                    24144190.566
 121614435.529 7  94764510.276 6  23142456.266                    23142466.563
 113939914.805 8  88784420.028 7  21682046.500                    21682057.910
 114781328.480 7  89440065.91845  21842158.633                    21842168.508
 112589211.032 8  87732055.51446  21425003.648                    21425011.332
 11  8 26  1 37  0.0000000  0  8G10G12G05G26G29G25G30G02
 121255354.303 6  94484800.13944  23074096.039                    23074105.516
 111248725.873 8  86687382.076 7  21169927.281                    21169936.188
 106551927.400 8  83027586.208 8  20276132.703                    20276141.512
 126783645.466 6  98792526.55843  24126124.406                    24126136.066
 121530620.857 7  94699200.203 6  23126507.258                    23126516.844
 113922629.532 8  88770951.001 7  21678756.984                    21678768.879
 114770266.487 7  89431446.19945  21840053.328                    21840063.352
 112623409.246 8  87758703.47446  21431511.070                    21431518.223
 11  8 26  1 37 30.0000000  0  8G10G12G05G26G29G25G30G02
 121354666.430 6  94562186.17444  23092994.367                    23093004.402
 111296210.225 8  86724382.859 7  21178963.242                    21178972.273
 106563617.571 8  83036695.461 8  20278357.477                    20278365.758
 126688743.846 6  98718577.45043  24108064.664                    24108076.270
 121446826.663 7  94633906.069 6  23110561.352                    23110571.758
 113905919.817 8  88757930.447 7  21675576.969                    21675589.047
 114759804.393 7  89423293.93145  21838062.438                    21838072.473
 112657697.812 8  87785421.83746  21438036.102                    21438043.156
 11  8 26  1 38  0.0000000  0  8G10G12G05G26G29G25G30G02
 121454207.008 6  94639750.22843  23111936.266                    23111945.617
 111344190.789 8  86761770.298 7  21188093.945                    21188102.863
 106575858.665 8  83046233.986 8  20280686.742                    20280695.371
 126593820.492 7  98644611.40143  24090000.758                    24090013.211
 121363054.474 7  94568629.084 6  23094620.430                    23094630.465
 113889786.184 8  88745358.777 7  21672506.648                    21672518.934
 114749942.248 7  89415609.15745  21836186.148                    21836195.781
 112692076.396 8  87812210.35046  21444578.008                    21444584.961
 11  8 26  1 38 30.0000000  0  8G10G12G05G26G29G25G30G02
 121553972.740 7  94717489.73543  23130920.641                    23130930.574
 111392665.079 8  86799542.465 7  21197318.453                    21197327.367
 106588648.887 8  83056200.416 8  20283120.742                    20283129.520
 126498878.545 7  98570630.84943  24071934.047                    24071945.984
 121279305.786 7  94503370.412 6  23078683.055                    23078692.941
 113874228.512 8  88733235.897 7  21669546.609                    21669558.570
 114740679.551 7  89408391.49345  21834423.250                    21834432.871
 112726544.280 8  87839068.44546  21451136.969                    21451144.336
 11  8 26  1 39  0.0000000  0  8G10G12G05G26G29G25G30G02
 121653961.158 7  94795402.75643  23149948.391                    23149957.949
 111441631.207 8  86837697.878 7  21206636.063                    21206645.266
 106601987.862 8  83066594.454 8  20285658.922                    20285667.609
 126403921.473 6  98496638.52443  24053863.734                    24053876.074
 121195582.477 7  94438131.509 6  23062750.820                    23062760.590
 113859247.554 8  88721562.425 7  21666695.813                    21666707.770
 114732016.543 7  89401641.12745  21832775.000                    21832784.879
 112761101.645 8  87865996.26146  21457713.117                    21457720.387
 11  8 26  1 39 30.0000000  0  8G10G12G05G26G29G25G30G02
 121754169.345 7  94873487.02544  23169017.641                    23169027.625
 111491087.411 8  86876235.173 7  21216047.422                    21216056.570
 106615874.385 8  83077415.143 8  20288301.695                    20288310.352
 126308952.549 6  98422636.91743  24035792.320                    24035803.855
 121111886.270 7  94372913.708 6  23046824.047                    23046834.102
 113844843.515 8  88710338.493 7  21663954.648                    21663966.793
 114723953.064 8  89395357.91345  21831240.555                    21831249.961
 112795748.150 8  87892993.55546  21464306.430                    21464313.227
 11  8 26  1 40  0.0000000  0  8G10G12G05G26G29G25G30G02
 121854594.411 7  94951740.29243  23188127.531                    23188136.852
 111541031.247 8  86915152.443 7  21225551.188                    21225560.574
 106630306.791 8  83088661.196 8  20291047.664                    20291056.090
 126213974.660 6  98348628.34743  24017718.516                    24017729.617
 121028218.286 7  94307717.889 6  23030902.391                    23030912.730
 113831016.267 8  88699564.006 7  21661323.188                    21661335.363
 114716488.560 7  89389541.42445  21829819.992                    21829829.582
 112830483.291 8  87920059.89846  21470916.617                    21470923.352
 11  8 26  1 40 30.0000000  0  8G10G12G05G26G29G25G30G02
 121955233.454 7  95030160.29544  23207278.875                    23207288.121
 111591460.934 8  86954448.290 7  21235147.609                    21235156.883
 106645284.064 8  83100331.811 8  20293897.852                    20293906.133
 126118991.293 6  98274615.46843  23999643.695                    23999655.387
 120944580.119 7  94242545.298 6  23014987.000                    23014996.430
 113817766.007 8  88689239.120 7  21658801.867                    21658814.129
 114709622.740 7  89384191.43645  21828513.578                    21828522.871
 112865306.613 8  87947194.96046  21477543.008                    21477550.125
 11  8 26  1 41  0.0000000  0  8G10G12G05G26G29G25G30G02
 122056083.673 7  95108744.84544  23226469.461                    23226479.305
 111642374.086 8  86994120.864 7  21244835.914                    21244845.348
 106660804.913 8  83112426.003 8  20296851.320                    20296859.816
 126024005.568 6  98200600.78743  23981568.234                    23981579.766
 120860973.388 7  94177397.197 6  22999077.227                    22999086.613
 113805093.004 8  88679364.039 7  21656390.500                    21656402.563
 114703355.430 7  89379307.82745  21827320.445                    21827330.430
 112900217.732 8  87974398.43246  21484185.969                    21484193.066
 11  8 26  1 41 30.0000000  0  8G10G12G05G26G29G25G30G02
 122157142.216 7  95187491.73144  23245700.570                    23245710.461
 111693768.636 7  87034168.555 7  21254616.289                    21254625.473
 106676868.113 8  83124942.801 8  20299907.781                    20299916.641
 125929020.881 6  98126586.90043  23963492.898                    23963504.273
 120777399.916 7  94112275.004 6  22983173.469                    22983183.469
 113792997.302 8  88669938.803 7  21654089.156                    21654100.621
 114697686.224 8  89374890.26045  21826242.148                    21826252.078
 112935216.465 8  88001670.17046  21490846.047                    21490853.281
 11  8 26  1 42  0.0000000  0  8G10G12G05G26G29G25G30G02
 122258406.284 7  95266398.75844  23264970.258                    23264980.551
 111745642.257 8  87074589.545 7  21264487.508                    21264496.832
 106693472.343 8  83137881.185 8  20303067.680                    20303076.234
 125834040.399 6  98052576.30843  23945418.508                    23945429.969
 120693861.264 7  94047179.949 6  22967276.508                    22967286.535
 113781479.004 8  88660963.496 7  21651897.234                    21651908.789
 114692614.856 8  89370938.53145  21825277.102                    21825286.355
 112970302.337 8  88029009.81446  21497523.156                    21497529.566
 11  8 26  1 42 30.0000000  0  8G10G12G05G26G29G25G30G02
 122359873.039 7  95345463.73744  23284279.438                    23284289.633
 111797993.265 8  87115382.524 7  21274449.570                    21274458.762
 106710616.861 8  83151240.564 8  20306330.258                    20306338.797
 125739067.797 6  97978571.82843  23927346.766                    23927356.707
 120610359.359 7  93982113.525 6  22951386.695                    22951396.172
 113770538.388 8  88652438.337 7  21649814.984                    21649827.395
 114688141.067 7  89367452.44845  21824425.727                    21824435.281
 113005475.286 8  88056417.30445  21504216.328                    21504222.586
 11  8 26  1 43  0.0000000  0  8G10G12G05G26G29G25G30G02
 122461539.711 7  95424684.48844  23303625.313                    23303636.156
 111850819.474 8  87156545.781 7  21284501.867                    21284511.219
 106728299.995 7  83165019.645 8  20309694.914                    20309703.574
 125644106.174 6  97904575.93943  23909275.539                    23909286.488
 120526895.561 7  93917076.795 6  22935504.055                    22935513.613
 113760175.363 8  88644363.259 7  21647843.172                    21647855.023
 114684264.379 7  89364431.64045  21823688.109                    21823697.941
 113040734.781 8  88083892.23946  21510925.742                    21510932.879
 11  8 26  1 43 30.0000000  0  8G10G12G05G26G29G25G30G02
 122563403.850 7  95504059.10644  23323009.805                    23323020.305
 111904118.277 8  87198077.305 7  21294644.477                    21294653.488
 106746520.924 8  83179217.784 8  20313162.375                    20313171.063
 125549158.911 6  97830591.21143  23891207.453                    23891218.465
 120443471.800 7  93852071.257 6  22919629.242                    22919638.879
 113750390.192 8  88636738.443 7  21645981.273                    21645993.051
 114680984.557 7  89361875.91545  21823063.797                    21823073.793
 113076081.141 8  88111434.85646  21517652.023                    21517659.285
 11  8 26  1 44  0.0000000  0  8G10G12G05G26G29G25G30G02
 122665462.383 7  95583585.18944  23342430.406                    23342441.023
 111957887.232 7  87239975.175 7  21304876.086                    21304885.637
 106765277.438 8  83193833.248 8  20316731.945                    20316740.852
 125454229.006 6  97756620.04343  23873141.656                    23873153.555
 120360089.413 7  93787097.985 7  22903762.094                    22903771.859
 113741182.443 8  88629563.567 7  21644228.891                    21644240.695
 114678300.757 7  89359784.63945  21822553.023                    21822563.113
 113111513.487 8  88139044.48046  21524394.766                    21524401.469
 11  8 26  1 44 30.0000000  0  8G10G12G05G26G29G25G30G02
 122767712.291 7  95663260.39943  23361888.039                    23361898.117
 112012124.960 7  87282238.316 7  21315197.172                    21315206.727
 106784568.543 8  83208865.299 8  20320402.625                    20320411.336
 125359320.069 6  97682665.16743  23855081.375                    23855092.984
 120276750.352 7  93722158.472 6  22887903.125                    22887913.145
 113732552.290 8  88622838.771 7  21642586.398                    21642598.043
 114676212.705 7  89358157.57745  21822155.977                    21822165.789
 113147031.751 8  88166721.05146  21531153.281                    21531160.328
 11  8 26  1 45  0.0000000  0  8G10G12G05G26G29G25G30G02
 122870150.654 7  95743082.47543  23381381.898                    23381391.945
 112066828.529 8  87324864.451 7  21325607.109                    21325616.762
 106804392.967 8  83224312.912 8  20324175.094                    20324183.719
 125264435.604 6  97608729.37543  23837025.961                    23837036.559
 120193456.405 7  93657254.123 6  22872052.555                    22872062.430
 113724499.689 8  88616564.012 7  21641053.992                    21641065.867
 114674719.948 8  89356994.37645  21821871.711                    21821881.133
 113182635.778 8  88194464.45045  21537928.531                    21537935.508
 11  8 26  1 45 30.0000000  0  8G10G12G05G26G29G25G30G02
 122972774.895 7  95823049.38443  23400910.367                    23400920.570
 112121995.620 8  87367851.768 7  21336105.063                    21336114.750
 106824749.170 8  83240174.901 8  20328048.695                    20328057.516
 125169578.688 6  97534815.02943  23818975.500                    23818986.617
 120110209.040 7  93592386.071 7  22856211.258                    22856220.953
 113717024.520 8  88610739.210 7  21639631.422                    21639643.441
 114673821.759 8  89356294.48145  21821701.188                    21821710.656
 113218324.983 8  88222274.22045  21544719.633                    21544726.707
 11  8 26  1 46  0.0000000  0  8G10G12G05G26G29G25G30G02
 123075582.429 7  95903159.14043  23420474.477                    23420483.895
 112177623.897 7  87411198.460 7  21346690.867                    21346700.262
 106845635.498 8  83256449.970 8  20332023.461                    20332032.016
 125074752.452 6  97460924.59743  23800930.227                    23800941.051
 120027009.882 7  93527555.591 6  22840379.094                    22840388.633
 113710126.452 8  88605364.102 7  21638319.016                    21638330.930
 114673517.573 8  89356057.44445  21821643.055                    21821652.844
 113254099.134 8  88250150.17746  21551527.633                    21551534.551
 11  8 26  1 46 30.0000000  0  8G10G12G05G26G29G25G30G02
 123178570.387 7  95983409.46743  23440071.984                    23440081.723
 112233711.378 7  87454902.967 7  21357363.648                    21357373.195
 106867051.045 8  83273137.422 8  20336098.555                    20336107.484
 124979960.982 6  97387061.25444  23782891.875                    23782902.957
 119943860.805 7  93462764.150 7  22824556.445                    22824566.250
 113703805.742 8  88600438.877 7  21637116.070                    21637127.867
 114673807.081 8  89356283.02745  21821698.164                    21821708.172
 113289958.470 8  88278092.51246  21558351.203                    21558358.293
 11  8 26  1 47  0.0000000  0  8G10G12G05G26G29G25G30G02
 123281736.296 7  96063798.46343  23459703.875                    23459713.730
 112290256.045 7  87498963.728 7  21368124.078                    21368133.188
 106888994.609 8  83290236.300 8  20340274.242                    20340283.027
 124885207.351 6  97313227.36043  23764861.078                    23764871.848
 119860763.784 7  93398013.264 6  22808743.648                    22808752.707
 113698062.231 8  88595963.410 7  21636023.352                    21636035.242
 114674689.665 8  89356970.75545  21821866.273                    21821875.941
 113325902.650 8  88306100.96246  21565191.477                    21565198.660
 11  8 26  1 47 30.0000000  0  8G10G12G05G26G29G25G30G02
 123385076.882 7  96144323.58543  23479369.320                    23479379.164
 112347255.454 7  87543378.831 7  21378970.727                    21378979.992
 106911464.203 8  83307745.087 8  20344550.047                    20344558.684
 124790494.710 6  97239425.44343  23746837.422                    23746848.324
 119777720.486 7  93333304.252 6  22792940.828                    22792950.609
 113692895.475 8  88591937.362 7  21635040.125                    21635051.926
 114676164.405 7  89358119.88945  21822146.727                    21822156.574
 113361931.050 8  88334175.03845  21572047.188                    21572054.480
 11  8 26  1 48  0.0000000  0  8G10G12G05G26G29G25G30G02
 123488589.396 7  96224982.66443  23499066.844                    23499077.141
 112404706.845 7  87588146.126 7  21389903.281                    21389912.527
 106934458.020 8  83325662.348 8  20348925.484                    20348934.383
 124695826.558 6  97165658.15243  23728823.000                    23728833.574
 119694732.371 7  93268638.247 6  22777148.641                    22777158.418
 113688305.272 8  88588360.575 7  21634166.719                    21634178.117
 114678230.688 8  89359729.97145  21822539.828                    21822549.523
 113398043.639 8  88362314.71945  21578919.430                    21578926.082
 11  8 26  1 48 30.0000000  0  9G10G12G05G26G15G29G25G30G02
 123592271.131 7  96305773.59643  23518796.617                    23518807.133
 112462607.323 7  87633263.364 7  21400921.617                    21400930.750
 106957974.721 8  83343987.068 8  20353400.648                    20353409.605
 124601206.311 6  97091928.22743  23710816.844                    23710827.172
 129417154.75916 100844615.17616  24627279.375
 119611801.171 7  93204016.594 6  22761367.016                    22761376.645
 113684291.326 8  88585232.829 7  21633402.922                    21633414.688
 114680887.751 7  89361800.39345  21823045.555                    21823055.707
 113434240.283 8  88390519.90246  21585807.008                    21585814.438
 11  8 26  1 49  0.0000000  0  9G10G12G05G26G15G29G25G30G02
 123696119.644 7  96386694.52543  23538559.094                    23538568.699
 112520955.406 8  87678729.382 7  21412024.867                    21412034.000
 106982013.264 8  83362718.400 8  20357975.109                    20357983.805
 124506637.286 6  97018238.19443  23692821.211                    23692831.461
 129324221.585 6 100772200.123 6  24609594.156                    24609607.137
 119528928.910 7  93139440.858 6  22745597.102                    22745606.410
 113680853.551 8  88582554.038 7  21632748.844                    21632760.492
 114684135.072 7  89364330.75645  21823663.555                    21823673.270
 113470520.975 8  88418790.57446  21592711.336                    21592718.082
 11  8 26  1 49 30.0000000  0  9G10G12G05G26G15G29G25G30G02
 123800131.452 7  96467742.63944  23558351.109                    23558361.453
 112579747.667 8  87724541.513 7  21423212.773                    21423221.770
 107006571.095 8  83381854.378 8  20362648.164                    20362657.363
 124412122.615 6  96944590.53343  23674835.813                    23674846.289
 129231153.836 6 100699680.217 6  24591883.461                    24591895.758
 119446116.881 7  93074912.038 6  22729838.695                    22729847.891
 113677990.906 8  88580323.395 7  21632203.844                    21632215.820
 114687971.106 8  89367319.86245  21824393.297                    21824403.152
 113506884.573 7  88447125.84545  21599630.977                    21599638.172
 11  8 26  1 50  0.0000000  0  9G10G12G05G26G15G29G25G30G02
 123904304.481 7  96548916.41043  23578175.039                    23578185.270
 112638982.506 7  87770698.505 7  21434484.680                    21434494.055
 107031647.505 8  83401394.446 8  20367420.305                    20367429.055
 124317666.342 6  96870988.34943  23656861.641                    23656871.898
 129137954.948 6 100627058.081 6  24574147.859                    24574159.969
 119363367.482 7  93010432.031 6  22714092.750                    22714101.402
 113675703.846 8  88578541.264 7  21631768.867                    21631780.676
 114692395.837 7  89370767.69145  21825235.227                    21825245.254
 113543331.719 8  88475526.22745  21606566.539                    21606573.594
 11  8 26  1 50 30.0000000  0  9G10G12G05G26G15G29G25G30G02
 124008636.129 7  96630213.77043  23598028.406                    23598039.258
 112698657.830 8  87817198.741 7  21445840.500                    21445849.754
 107057241.212 8  83421337.605 8  20372290.617                    20372299.055
 124223272.043 6  96797434.48044  23638898.719                    23638908.996
 129044627.703 6 100554335.911 6  24556387.859                    24556400.395
 119280682.637 7  92946002.332 6  22698357.578                    22698367.102
 113673992.232 8  88577207.536 7  21631443.086                    21631454.734
 114697408.661 8  89374673.76445  21826189.555                    21826199.316
 113579862.539 8  88503991.81245  21613518.063                    21613525.371
 11  8 26  1 51  0.0000000  0  9G10G12G05G26G15G29G25G30G02
 124113123.339 7  96711632.36443  23617911.586                    23617922.625
 112758770.621 8  87864039.853 7  21457279.578                    21457288.652
 107083349.946 8  83441682.084 8  20377258.875                    20377267.230
 124128942.716 7  96723931.22844  23620948.023                    23620958.281
 128951173.997 6 100481515.214 5  24538604.109                    24538616.352
 119198064.049 7  92881624.259 7  22682635.391                    22682644.984
 113672855.370 8  88576321.667 7  21631226.859                    21631238.516
 114703008.484 7  89379037.24745  21827255.117                    21827264.633
 113616476.340 8  88532522.05345  21620485.305                    21620492.746
 11  8 26  1 51 30.0000000  0  9G10G12G05G26G15G29G25G30G02
 124217763.802 6  96793170.33643  23637824.320                    23637835.020
 112819318.952 8  87911220.346 7  21468801.461                    21468811.066
 107109972.278 8  83462426.765 8  20382324.828                    20382333.105
 124034682.013 7  96650481.46044  23603010.938                    23603021.180
 128857596.627 6 100408598.146 5  24520796.828                    24520808.391
 119115513.327 7  92817299.064 7  22666926.891                    22666936.438
 113672292.882 8  88575883.357 7  21631119.500                    21631131.039
 114709194.466 8  89383857.48145  21828432.586                    21828442.129
 113653173.189 8  88561116.99845  21627469.414                    21627475.785
 11  8 26  1 52  0.0000000  0  9G10G12G05G26G15G29G25G30G02
 124322554.577 7  96874825.47543  23657764.984                    23657775.984
 112880300.194 8  87958738.181 7  21480405.969                    21480415.254
 107137106.885 7  83483570.627 8  20387488.273                    20387497.203
 123940493.693 7  96577088.06644  23585086.563                    23585097.879
 128763898.075 6 100335586.644 5  24502965.805                    24502977.773
 119033032.598 7  92753028.407 7  22651231.031                    22651240.691
 113672304.575 8  88575892.476 7  21631121.750                    21631133.535
 114715965.808 8  89389133.84045  21829721.180                    21829730.730
 113689953.047 8  88589776.63745  21634468.125                    21634474.301
 11  8 26  1 52 30.0000000  0  9G10G12G05G26G15G29G25G30G02
 124427493.047 7  96956595.68243  23677734.000                    23677745.402
 112941711.500 8  88006591.134 7  21492092.133                    21492101.488
 107164752.418 8  83505112.608 8  20392749.328                    20392758.004
 123846381.155 6  96503753.74344  23567177.523                    23567188.742
 128670080.924 6 100262482.725 5  24485113.383                    24485124.652
 118950623.821 7  92688813.814 7  22635549.375                    22635559.047
 113672890.055 8  88576348.696 7  21631233.219                    21631245.090
 114723321.775 8  89394865.74345  21831120.328                    21831130.309
 113726816.071 8  88618501.07445  21641482.344                    21641489.508
 11  8 26  1 53  0.0000000  0  9G10G12G05G26G15G29G25G30G02
 124532576.576 7  97038478.90643  23697730.773                    23697741.746
 113003550.782 8  88054777.577 7  21503859.656                    21503868.883
 107192906.704 7  83527051.023 8  20398106.703                    20398115.285
 123752347.653 6  96430481.00743  23549283.297                    23549294.059
 128576147.664 6 100189288.325 5  24467238.250                    24467249.137
 118868288.640 7  92624656.569 7  22619881.602                    22619890.957
 113674048.619 8  88577251.461 7  21631453.781                    21631465.371
 114731261.168 8  89401052.27345  21832631.406                    21832641.133
 113763761.846 8  88647289.99545  21648513.172                    21648520.277
 11  8 26  1 53 30.0000000  0  9G10G12G05G26G15G29G25G30G02
 124637802.228 7  97120472.88743  23717754.891                    23717765.414
 113065814.952 8  88103295.096 7  21515708.109                    21515717.563
 107221567.553 8  83549384.163 8  20403560.930                    20403569.207
 123658396.372 6  96357272.30543  23531405.297                    23531415.191
 128482100.713 6 100116005.353 5  24449341.398                    24449352.828
 118786028.508 7  92560557.808 7  22604227.883                    22604237.172
 113675779.437 8  88578600.145 7  21631783.203                    21631794.535
 114739782.686 8  89407692.39845  21834253.055                    21834262.512
 113800789.576 8  88676142.77945  21655559.203                    21655566.066
 11  8 26  1 54  0.0000000  0  9G10G12G05G26G15G29G25G30G02
 124743167.661 7  97202575.80643  23737805.445                    23737816.434
 113128501.869 7  88152142.025 7  21527637.055                    21527646.273
 107250734.035 8  83572111.302 8  20409110.961                    20409119.484
 123564531.312 6  96284130.81043  23513543.375                    23513553.992
 128387942.426 6 100042635.613 6  24431422.781                    24431434.973
 118703845.751 7  92496519.336 7  22588588.719                    22588598.168
 113678082.436 8  88580394.693 7  21632221.383                    21632233.211
 114748885.776 7  89414785.70345  21835985.461                    21835994.926
 113837899.778 7  88705059.82945  21662621.047                    21662627.813
 11  8 26  1 54 30.0000000  0  9G10G12G05G26G15G29G25G30G02
 124848670.112 7  97284785.49143  23757881.609                    23757892.961
 113191609.449 7  88201316.742 7  21539646.219                    21539655.375
 107280404.181 8  83595230.901 8  20414757.070                    20414765.781
 123470755.824 7  96211059.10543  23495698.281                    23495708.762
 128293675.432 7  99969181.175 6  24413484.406                    24413496.297
 118621742.210 7  92432542.586 7  22572964.883                    22572974.887
 113680956.953 8  88582634.585 7  21632768.586                    21632779.996
 114758569.403 8  89422331.39745  21837827.977                    21837837.914
 113875092.291 8  88734041.01545  21669698.813                    21669705.121
 11  8 26  1 55  0.0000000  0  9G10G12G05G26G15G29G25G30G02
 124954306.668 7  97367099.66443  23777983.672                    23777994.477
 113255133.974 8  88250816.364 7  21551734.586                    21551744.191
 107310575.917 8  83618741.357 8  20420498.828                    20420507.391
 123377073.247 7  96138059.81644  23477871.313                    23477881.965
 128199302.027 7  99895643.763 6  24395525.273                    24395537.078
 118539719.524 7  92368628.855 7  22557356.438                    22557366.699
 113684402.193 8  88585319.194 7  21633423.938                    21633435.531
 114768832.254 7  89430328.44145  21839781.000                    21839790.754
 113912366.892 7  88763086.15245  21676791.875                    21676798.383
 11  8 26  1 55 30.0000000  0  9G10G12G05G26G15G29G25G30G02
 125060074.940 7  97449516.47943  23798110.891                    23798121.398
 113319073.398 8  88300639.274 7  21563901.570                    21563910.883
 107341247.767 8  83642641.516 8  20426335.125                    20426343.605
 123283487.232 7  96065135.73443  23460062.578                    23460073.266
 128104824.923 7  99822025.577 6  24377546.758                    24377558.707
 118457779.744 7  92304779.721 7  22541763.641                    22541773.430
 113688417.696 8  88588448.156 7  21634188.000                    21634199.523
 114779673.354 7  89438776.06745  21841843.492                    21841853.523
 113949723.344 7  88792195.08646  21683900.977                    21683907.398
 11  8 26  1 56  0.0000000  0  9G10G12G05G26G15G29G25G30G02
 125165972.010 7  97532033.67143  23818262.383                    23818272.695
 113383424.990 7  88350783.354 7  21576147.602                    21576156.723
 107372417.949 7  83666929.982 8  20432266.508                    20432275.297
 123190001.132 7  95992289.51744  23442272.422                    23442282.824
 128010246.854 6  99748328.709 6  24359549.508                    24359560.617
 118375924.786 7  92240996.686 7  22526187.266                    22526196.672
 113693002.681 8  88592020.880 7  21635060.648                    21635072.379
 114791091.504 8  89447673.34045  21844016.492                    21844026.938
 113987161.647 8  88821367.79445  21691024.469                    21691031.855
 11  8 26  1 56 30.0000000  0  9G10G12G05G26G15G29G25G30G02
 125271995.323 7  97614649.22743  23838437.688                    23838447.992
 113448186.772 7  88401247.070 7  21588470.992                    21588480.707
 107404084.803 8  83691605.464 8  20438292.820                    20438301.188
 123096618.686 7  95919524.05744  23424502.211                    23424512.945
 127915570.612 6  99674555.350 6  24341532.266                    24341543.789
 118294156.793 7  92177281.417 7  22510627.188                    22510636.520
 113698156.671 8  88596036.977 7  21636041.258                    21636052.879
 114803085.763 8  89457019.52445  21846299.281                    21846309.074
 114024681.688 7  88850604.19445  21698164.961                    21698171.656
 11  8 26  1 57  0.0000000  0  9G10G12G05G26G15G29G25G30G02
 125378142.159 6  97697361.03243  23858637.250                    23858647.012
 113513355.777 7  88452028.099 7  21600872.281                    21600882.125
 107436246.332 8  83716666.412 8  20444412.922                    20444421.129
 123003343.455 7  95846842.13244  23406752.867                    23406762.813
 127820798.604 6  99600707.319 6  24323497.711                    24323508.641
 118212477.409 7  92113635.192 7  22495084.055                    22495093.703
 113703878.911 8  88600495.863 7  21637129.930                    21637141.770
 114815654.904 8  89466813.68245  21848690.969                    21848700.359
 114062283.495 7  88879904.31045  21705320.016                    21705327.141
 11  8 26  1 57 30.0000000  0  9G10G12G05G26G15G29G25G30G02
 125484410.006 6  97780167.15243  23878858.961                    23878868.449
 113578928.715 7  88503123.886 7  21613350.438                    21613360.336
 107468900.680 8  83742111.378 8  20450626.320                    20450634.977
 122910178.527 7  95774246.17044  23389023.438                    23389033.773
 127725933.170 6  99526786.499 6  24305444.992                    24305456.234
 118130888.786 7  92050059.681 7  22479558.133                    22479567.781
 113710168.565 8  88605396.892 7  21638326.938                    21638338.887
 114828797.509 8  89477054.67845  21851191.766                    21851201.746
 114099967.010 8  88909268.09046  21712491.086                    21712498.090
 11  8 26  1 58  0.0000000  0  9G10G12G05G26G15G29G25G30G02
 125590796.335 6  97863065.58643  23899103.914                    23899113.465
 113644903.676 7  88554532.935 7  21625905.109                    21625914.680
 107502046.037 8  83767938.936 8  20456933.758                    20456942.211
 122817127.848 7  95701739.22544  23371317.039                    23371327.375
 127630976.927 6  99452794.931 6  24287374.359                    24287386.191
 118049392.559 7  91986556.175 7  22464050.336                    22464059.641
 113717025.045 8  88610739.595 7  21639632.109                    21639643.734
 114842512.588 8  89487741.74945  21853801.672                    21853811.480
 114137732.199 7  88938695.51045  21719677.609                    21719684.590
 11  8 26  1 58 30.0000000  0  9G10G12G05G26G15G29G25G30G02
 125697298.464 6  97946054.22543  23919370.250                    23919380.398
 113711277.811 7  88606253.032 7  21638535.781                    21638545.516
 107535680.568 8  83794147.672 8  20463334.414                    20463342.922
 122724194.974 7  95629324.09344  23353632.117                    23353642.684
 127535932.778 6  99378734.806 6  24269288.563                    24269299.668
 117967990.674 7  91923126.178 7  22448559.656                    22448569.094
 113724447.537 8  88616523.349 7  21641044.445                    21641056.211
 114856798.893 8  89498873.94745  21856519.875                    21856530.086
 114175578.826 8  88968186.38845  21726879.461                    21726886.016
 11  8 26  1 59  0.0000000  0  9G10G12G05G26G15G29G25G30G02
 125803913.833 6  98029131.09443  23939658.289                    23939669.008
 113778048.850 7  88658282.408 7  21651242.211                    21651251.398
 107569802.428 8  83820736.146 8  20469827.406                    20469835.867
 122631383.121 7  95557003.26844  23335970.742                    23335980.434
 127440803.344 6  99304608.206 6  24251186.273                    24251196.969
 117886685.306 7  91859771.386 7  22433087.711                    22433097.195
 113732435.173 8  88622747.467 7  21642564.328                    21642576.113
 114871655.067 8  89510450.19845  21859346.969                    21859357.352
 114213506.619 8  88997740.51645  21734096.742                    21734103.492
 11  8 26  1 59 30.0000000  0  9G10G12G05G26G15G29G25G30G02
 125910639.895 6  98112294.24443  23959967.859                    23959978.148
 113845213.494 7  88710618.479 7  21664022.805                    21664032.578
 107604409.881 8  83847703.011 8  20476413.203                    20476421.770
 122538696.406 7  95484779.96044  23318332.711                    23318342.750
 127345590.752 7  99230416.805 5  24233067.188                    24233078.445
 117805478.542 7  91796493.417 7  22417634.703                    22417644.605
 113740987.298 8  88629411.459 7  21644191.664                    21644203.316
 114887079.959 8  89522469.59145  21862282.336                    21862292.273
 114251516.155 8  89027358.33845  21741329.789                    21741336.750
 11  8 26  2  0  0.0000000  0  9G10G12G05G26G15G29G25G30G02
 126017473.849 6  98195541.43743  23980297.242                    23980307.637
 113912769.102 7  88763259.202 7  21676878.516                    21676887.820
 107639500.573 7  83875046.421 8  20483091.000                    20483099.250
 122446138.034 7  95412656.64744  23300719.234                    23300729.660
 127250297.791 7  99156162.742 5  24214933.641                    24214944.438
 117724371.983 7  91733293.530 7  22402200.898                    22402209.945
 113750102.792 8  88636514.440 7  21645926.398                    21645937.703
 114903072.074 8  89534930.98545  21865326.227                    21865336.086
 114289607.108 7  89057039.59845  21748578.219                    21748584.844
 11  8 26  2  0 30.0000000  0  9G10G12G05G26G15G29G25G30G02
 126124413.250 6  98278870.80843  24000647.422                    24000657.770
 113980713.215 7  88816202.659 7  21689807.750                    21689817.020
 107675072.972 8  83902765.186 8  20489859.789                    20489868.234
 122353711.430 7  95340635.99044  23283131.672                    23283141.313
 127154927.348 6  99081848.297 6  24196785.445                    24196796.637
 117643367.845 7  91670173.464 7  22386786.016                    22386795.789
 113759780.989 8  88644055.882 7  21647768.203                    21647779.625
 114919630.245 8  89547833.44845  21868476.773                    21868486.582
 114327779.460 7  89086784.29145  21755842.141                    21755849.301
 11  8 26  2  1  0.0000000  0  9G10G12G05G26G15G29G25G30G02
 126231455.495 6  98362280.34543  24021017.094                    24021027.840
 114049043.134 7  88869446.731 7  21702810.250                    21702819.875
 107711125.241 8  83930857.879 8  20496720.539                    20496728.977
 122261420.494 7  95268721.06344  23265568.680                    23265579.039
 127059482.110 7  99007475.543 6  24178622.695                    24178634.207
 117562468.084 7  91607134.721 7  22371391.023                    22371400.605
 113770020.974 8  88652035.088 7  21649716.820                    21649728.074
 114936753.035 8  89561175.86545  21871735.055                    21871744.984
 114366033.168 7  89116592.37445  21763121.758                    21763128.637
 11  8 26  2  1 30.0000000  0  9G10G12G05G26G15G29G25G30G02
 126338597.976 7  98445767.95843  24041406.008                    24041415.977
 114117755.841 7  88922989.091 7  21715886.203                    21715895.227
 107747655.026 8  83959322.641 8  20503671.453                    20503680.434
 122169268.539 7  95196914.42344  23248032.719                    23248042.777
 126963964.721 7  98933046.593 6  24160445.961                    24160457.289
 117481674.594 7  91544178.765 7  22356016.914                    22356026.219
 113780821.669 8  88660451.198 7  21651771.813                    21651783.859
 114954438.882 8  89574957.02745  21875100.656                    21875110.422
 114404367.945 7  89146463.63345  21770416.570                    21770423.266
 11  8 26  2  2  0.0000000  0  9G10G12G05G26G15G29G25G30G02
 126445838.368 6  98529331.87043  24061812.695                    24061823.203
 114186849.095 7  88976827.974 7  21729034.016                    21729043.379
 107784660.724 8  83988158.262 8  20510713.492                    20510722.273
 122077259.410 7  95125219.05644  23230524.219                    23230533.773
 126868377.727 6  98858563.411 6  24142256.781                    24142267.742
 117400989.353 7  91481307.165 7  22340662.820                    22340672.484
 113792182.418 8  88669303.726 7  21653934.047                    21653945.852
 114972686.652 8  89589176.06045  21878572.898                    21878582.891
 114442784.124 7  89176398.32645  21777726.523                    21777733.523
 11  8 26  2  2 30.0000000  0  9G10G12G05G26G15G29G25G30G02
 126553173.917 7  98612969.94243  24082237.758                    24082248.129
 114256319.731 7  89030960.925 7  21742254.008                    21742263.508
 107822140.392 8  84017363.216 8  20517845.820                    20517854.203
 121985396.612 7  95053637.73444  23213043.305                    23213053.223
 126772724.020 6  98784028.254 6  24124052.992                    24124065.203
 117320414.829 7  91418521.839 7  22325330.125                    22325339.738
 113804102.066 8  88678591.748 7  21656202.188                    21656213.902
 114991494.836 8  89603831.77145  21882152.078                    21882161.934
 114481281.620 7  89206396.37345  21785052.641                    21785059.434
 11  8 26  2  3  0.0000000  0  9G10G12G05G26G15G29G25G30G02
 126660602.124 6  98696680.21343  24102681.008                    24102690.852
 114326165.098 7  89085385.867 7  21755545.008                    21755554.836
 107860092.010 8  84046935.904 8  20525067.977                    20525076.152
 121893683.866 7  94982173.30444  23195590.773                    23195600.898
 126677006.229 6  98709443.169 6  24105838.406                    24105850.180
 117239952.797 7  91355824.172 7  22310018.625                    22310028.500
 113816579.688 8  88688314.560 7  21658576.539                    21658587.910
 115010861.983 8  89618923.04045  21885837.563                    21885847.313
 114519860.452 7  89236457.79645  21792393.625                    21792400.566
 11  8 26  2  3 30.0000000  0  9G10G12G05G26G15G29G25G30G02
 126768120.743 6  98780460.95343  24123141.016                    24123150.590
 114396382.970 7  89140101.068 7  21768907.078                    21768916.574
 107898513.739 8  84076874.928 8  20532379.039                    20532387.914
 121802124.659 7  94910828.54144  23178166.523                    23178177.609
 126581227.088 6  98634810.284 6  24087612.977                    24087624.617
 117159605.160 7  91293215.659 7  22294729.172                    22294738.762
 113829614.326 8  88698471.413 7  21661056.719                    21661068.750
 115030786.647 8  89634448.74245  21889629.063                    21889638.898
 114558520.866 7  89266582.80345  21799751.078                    21799756.965
 11  8 26  2  4  0.0000000  0  9G10G12G05G26G15G29G25G30G02
 126875727.063 6  98864310.03543  24143618.406                    24143627.969
 114466969.685 7  89195103.691 7  21782339.258                    21782348.797
 107937403.188 8  84107178.404 8  20539779.484                    20539787.980
 121710722.496 7  94839606.13844  23160774.344                    23160784.441
 126485389.085 6  98560131.509 6  24069375.242                    24069386.563
 117079374.117 7  91230697.980 7  22279461.547                    22279470.922
 113843204.763 8  88709061.371 7  21663643.102                    21663655.102
 115051267.167 8  89650407.58145  21893526.609                    21893536.164
 114597262.573 7  89296771.15245  21807122.945                    21807130.137
 11  8 26  2  4 30.0000000  0  9G10G12G05G26G15G29G25G30G02
 126983418.094 6  98948225.07143  24164111.359                    24164121.043
 114537922.671 7  89250391.722 7  21795840.945                    21795850.582
 107976758.173 8  84137844.627 8  20547268.570                    20547277.344
 121619481.090 7  94768509.02944  23143411.266                    23143421.770
 126389495.079 7  98485409.087 6  24051127.344                    24051137.703
 116999261.594 7  91168272.648 7  22264216.539                    22264225.605
 113857349.795 8  88720083.475 7  21666334.805                    21666346.641
 115072301.881 8  89666798.25245  21897528.820                    21897539.434
 114636085.397 7  89327022.69945  21814510.711                    21814518.148
 11  8 26  2  5  0.0000000  0  9G10G12G05G26G15G29G25G30G02
 127091191.802 6  99032204.56943  24184619.750                    24184629.086
 114609239.058 7  89305962.925 7  21809412.016                    21809421.809
 108016576.663 8  84168872.030 8  20554845.664                    20554853.883
 121528403.799 7  94697539.79844  23126079.148                    23126090.492
 126293547.542 7  98410644.935 6  24032869.008                    24032879.469
 116919269.642 7  91105941.257 7  22248994.625                    22249003.453
 113872048.388 8  88731536.920 7  21669132.133                    21669143.652
 115093889.271 8  89683619.58345  21901637.070                    21901647.230
 114674989.353 7  89357337.46445  21821914.008                    21821920.504
 11  8 26  2  5 30.0000000  0  9G10G12G05G26G15G29G25G30G02
 127199045.755 6  99116246.62042  24205144.172                    24205153.418
 114680916.242 7  89361815.259 7  21823052.000                    21823061.336
 108056857.018 8  84200259.330 8  20562510.922                    20562519.488
 121437494.234 7  94626701.24944  23108779.938                    23108790.855
 126197549.223 7  98335841.194 6  24014600.773                    24014611.059
 116839400.673 7  91043705.715 7  22233795.914                    22233805.070
 113887299.362 8  88743420.790 7  21672034.055                    21672045.957
 115116027.749 8  89700870.33445  21905849.914                    21905859.531
 114713974.712 7  89387715.66145  21829332.391                    21829339.453
 11  8 26  2  6  0.0000000  0  9G10G12G05G26G15G29G25G30G02
 127306977.474 6  99200349.22043  24225682.250                    24225692.426
 114752951.536 7  89417946.665 7  21836759.695                    21836769.332
 108097597.309 8  84232005.020 8  20570263.727                    20570272.090
 121346756.421 7  94555996.52944  23091513.359                    23091523.813
 126101503.480 7  98261000.500 6  23996323.836                    23996334.953
 116759656.445 7  90981567.379 7  22218620.930                    22218630.543
 113903102.057 8  88755734.575 7  21675041.227                    21675053.043
 115138716.100 8  89718549.56445  21910167.664                    21910177.711
 114753041.975 8  89418157.67345  21836766.766                    21836774.008
 11  8 26  2  6 30.0000000  0  9G10G12G05G26G15G29G25G30G02
 127414984.250 6  99284510.35342  24246234.859                    24246245.063
 114825342.113 7  89474354.898 7  21850535.430                    21850544.691
 108138795.098 8  84264107.207 8  20578103.023                    20578111.668
 121256193.842 7  94485428.36244  23074279.719                    23074290.191
 126005412.613 6  98186124.652 6  23978038.219                    23978049.391
 116680039.062 7  90919527.889 7  22203470.539                    22203480.000
 113919454.941 8  88768477.088 7  21678153.016                    21678165.293
 115161952.396 8  89736655.76845  21914589.133                    21914599.289
 114792190.592 8  89448663.09045  21844216.609                    21844224.070
 11  8 26  2  7  0.0000000  0  9G10G12G05G26G15G29G25G30G02
 127523063.786 6  99368728.14243  24266801.883                    24266812.355
 114898084.876 8  89531037.575 7  21864377.727                    21864387.406
 108180448.182 8  84296564.161 8  20586029.484                    20586037.926
 121165810.206 7  94414999.61544  23057080.336                    23057090.883
 125909279.219 7  98111215.669 6  23959744.258                    23959755.535
 116600550.350 7  90857588.654 7  22188343.945                    22188353.625
 113936356.767 8  88781647.337 7  21681369.359                    21681381.324
 115185734.941 8  89755187.61045  21919114.859                    21919124.645
 114831420.585 7  89479231.91645  21851681.609                    21851688.523
 11  8 26  2  7 30.0000000  0  9G10G12G05G26G15G29G25G30G02
 127631213.818 6  99453000.90743  24287382.648                    24287392.824
 114971177.485 8  89587992.856 7  21878287.383                    21878297.148
 108222555.037 7  84329374.708 7  20594042.367                    20594050.813
 121075609.242 7  94344713.21644  23039915.938                    23039925.742
 125813106.503 6  98036276.022 6  23941443.086                    23941454.289
 116521192.873 7  90795751.692 7  22173243.078                    22173252.426
 113953806.616 8  88795244.623 7  21684690.117                    21684702.258
 115210062.238 8  89774143.93945  21923744.320                    21923754.273
 114870732.527 7  89509864.57345  21859162.602                    21859169.566
 11  8 26  2  8  0.0000000  0  9G10G12G05G26G15G29G25G30G02
 127739431.519 6  99537326.32743  24307975.859                    24307985.730
 115044616.382 7  89645217.969 7  21892261.922                    21892271.363
 108265112.847 8  84362536.654 8  20602140.492                    20602149.164
 120985594.310 7  94274571.77044  23022786.234                    23022796.555
 125716896.760 6  97961307.523 6  23923134.766                    23923146.203
 116441968.551 7  90734018.499 7  22158166.750                    22158176.289
 113971802.773 8  88809267.593 7  21688114.289                    21688126.105
 115234932.288 8  89793523.19545  21928477.055                    21928486.883
 114910125.860 7  89540560.65745  21866659.211                    21866666.184
 11  8 26  2  8 30.0000000  0  9G10G12G05G26G15G29G25G30G02
 127847714.600 6  99621702.74143  24328581.609                    24328591.648
 115118399.004 8  89702710.921 7  21906302.297                    21906311.508
 108308119.719 8  84396048.509 8  20610324.102                    20610332.965
 120895768.970 7  94204578.07744  23005692.563                    23005703.242
 125620652.984 6  97886312.529 6  23904820.195                    23904831.211
 116362879.420 7  90672390.637 7  22143117.047                    22143126.516
 113990344.155 8  88823715.426 7  21691642.844                    21691655.082
 115260343.393 7  89813324.04745  21933312.383                    21933322.031
 114949601.119 8  89571320.58745  21874170.844                    21874177.867
 11  8 26  2  9  0.0000000  0  9G10G12G05G26G15G29G25G30G02
 127956060.665 7  99706128.20443  24349198.461                    24349209.289
 115192522.634 8  89760469.596 7  21920407.469                    21920417.352
 108351573.962 8  84429908.966 8  20618593.398                    20618602.012
 120806137.381 7  94134735.34844  22988636.539                    22988646.824
 125524378.027 6  97811293.241 6  23886499.727                    23886510.898
 116283928.061 7  90610870.131 7  22128093.008                    22128102.551
 114009429.812 8  88838587.364 7  21695274.805                    21695286.488
 115286294.271 7  89833545.50245  21938250.797                    21938260.465
 114989158.552 8  89602144.54345  21881698.352                    21881705.301
 11  8 26  2  9 30.0000000  0  9G10G12G05G26G15G29G25G30G02
 128064467.558 6  99790601.07443  24369827.734                    24369838.258
 115266984.331 8  89818491.687 7  21934577.266                    21934586.559
 108395473.279 8  84464116.241 8  20626947.297                    20626955.906
 120716702.655 7  94065046.01344  22971617.789                    22971627.809
 125428074.825 6  97736251.915 6  23868173.953                    23868184.234
 116205116.176 7  90549458.310 7  22113095.461                    22113104.957
 114029058.144 8  88853882.173 7  21699010.039                    21699021.559
 115312782.752 8  89854185.88845  21943291.703                    21943301.219
 115028797.916 7  89633032.34545  21889241.453                    21889248.477
 11  8 26  2 10  0.0000000  0  9G10G12G05G26G15G29G25G30G02
 128172932.572 6  99875119.28343  24390468.391                    24390478.469
 115341781.318 8  89876775.051 7  21948810.492                    21948819.926
 108439815.513 8  84498668.635 8  20635385.430                    20635394.117
 120627469.020 7  93995513.38144  22954637.133                    22954647.738
 125331746.027 7  97661190.649 6  23849842.680                    23849853.418
 116126445.952 7  90488156.871 7  22098125.242                    22098134.000
 114049227.833 8  88869598.809 7  21702847.875                    21702859.563
 115339807.107 7  89875243.82245  21948433.797                    21948443.648
 115068519.447 8  89663984.18045  21896800.398                    21896806.898
 11  8 26  2 10 30.0000000  0  9G10G12G05G26G15G29G25G30G02
 128281453.194 6  99959680.77843  24411119.234                    24411129.539
 115416910.501 8  89935317.276 7  21963107.320                    21963116.387
 108484598.112 8  84533564.182 8  20643907.219                    20643915.805
 120538439.467 7  93926139.78544  22937695.172                    22937705.336
 125235394.391 7  97586111.572 6  23831507.789                    23831518.340
 116047919.434 7  90426967.404 7  22083181.922                    22083191.301
 114069937.403 8  88885736.142 7  21706788.781                    21706800.563
 115367365.493 7  89896717.88145  21953678.148                    21953687.961
 115108323.000 7  89694999.91245  21904375.094                    21904381.492
 11  8 26  2 11  0.0000000  0  9G10G12G05G26G15G29G25G30G02
 128390027.078 6 100044283.79943  24431780.109                    24431790.633
 115492368.471 8  89994115.691 7  21977466.391                    21977475.441
 108529818.416 8  84568800.800 8  20652512.328                    20652520.910
 120449617.492 7  93856927.92044  22920793.625                    22920803.672
 125139022.223 6  97511016.504 6  23813169.172                    23813179.238
 115969538.626 7  90365891.483 7  22068266.453                    22068275.840
 114091185.082 8  88902292.783 7  21710832.266                    21710844.066
 115395455.581 7  89918606.27045  21959023.195                    21959033.012
 115148208.417 8  89726079.42545  21911964.891                    21911971.305
 11  8 26  2 11 30.0000000  0  9G10G12G05G26G15G29G25G30G02
 128498652.121 6 100128926.70643  24452450.750                    24452460.598
 115568152.951 8  90053168.520 7  21991887.688                    21991897.270
 108575475.584 8  84604377.828 8  20661200.281                    20661209.023
 120361007.441 7  93787881.19644  22903930.570                    22903941.250
 125042633.300 7  97435908.350 6  23794826.641                    23794836.605
 115891306.301 7  90304931.268 7  22053379.328                    22053388.992
 114112970.240 8  88919268.234 7  21714977.633                    21714989.355
 115424076.335 7  89940908.15445  21964469.563                    21964479.836
 115188176.529 8  89757223.40345  21919570.086                    21919577.406
 11  8 26  2 12  0.0000000  0  9G10G12G05G26G15G29G25G30G02
 128607325.886 6 100213607.50442  24473131.078                    24473140.457
 115644261.350 8  90112473.762 7  22006370.289                    22006379.980
 108621567.039 8  84640293.263 8  20669971.344                    20669980.367
 120272612.890 7  93719002.39844  22887110.047                    22887120.125
 124946230.241 6  97360789.219 6  23776481.156                    23776491.594
 115813224.439 7  90244088.304 7  22038520.867                    22038530.684
 114135291.354 8  88936661.317 7  21719225.023                    21719237.180
 115453225.761 7  89963622.01145  21970016.781                    21970026.824
 115228227.419 7  89788431.87445  21927191.758                    21927199.133
 11  8 26  2 12 30.0000000  0  9G10G12G05G26G15G29G25G30G02
 128716046.035 6 100298324.46942  24493819.273                    24493829.609
 115720690.370 8  90172028.843 7  22020914.805                    22020923.992
 108668090.372 8  84676545.218 8  20678824.500                    20678833.168
 120184437.508 7  93650294.37244  22870330.594                    22870341.207
 124849815.604 7  97285661.031 6  23758134.422                    23758144.672
 115735294.977 8  90183364.088 7  22023691.375                    22023700.418
 114158146.681 8  88954470.673 7  21723574.555                    21723586.391
 115482901.666 7  89986746.10645  21975663.922                    21975673.523
 115268361.207 7  89819704.94345  21934828.820                    21934836.273
 11  8 26  2 13  0.0000000  0  9G10G12G05G26G15G29G25G30G02
 128824810.085 5 100383075.67342  24514516.086                    24514526.652
 115797436.923 8  90231831.334 7  22035518.875                    22035528.879
 108715043.208 8  84713131.856 8  20687759.219                    20687767.586
 120096484.770 7  93581759.84444  22853593.563                    22853603.969
 124753392.292 7  97210526.094 6  23739785.227                    23739795.445
 115657520.180 8  90122760.389 7  22008891.578                    22008900.418
 114181534.811 8  88972695.193 7  21728025.406                    21728037.250
 115513102.225 7  90010279.03245  21981410.750                    21981420.297
 115308577.816 8  89851042.54545  21942481.578                    21942488.863
 11  8 26  2 13 30.0000000  0  9G10G12G05G26G15G29G25G30G02
 128933615.756 5 100467859.33242  24535221.305                    24535231.898
 115874498.005 8  90291878.925 7  22050183.602                    22050193.320
 108762423.415 8  84750051.521 8  20696775.484                    20696784.203
 120008758.351 7  93513401.66244  22836899.500                    22836910.355
 124656963.211 7  97135386.659 6  23721435.563                    23721446.012
 115579902.272 7  90062278.936 7  21994121.359                    21994130.301
 114205454.117 8  88991333.633 7  21732576.773                    21732589.008
 115543825.330 7  90034219.11845  21987257.078                    21987266.953
 115348876.981 7  89882444.48745  21950150.492                    21950157.871
 11  8 26  2 14  0.0000000  0  9G10G12G05G26G15G29G25G30G02
 129042460.620 6 100552673.49942  24555933.656                    24555944.148
 115951870.907 8  90352169.497 7  22064907.031                    22064916.887
 108810228.978 8  84787302.618 7  20705872.844                    20705881.070
 119921262.055 7  93445222.78244  22820250.008                    22820259.375
 124560531.411 7  97060245.105 6  23703085.508                    23703094.852
 115502443.510 8  90001921.494 7  21979381.242                    21979390.426
 114229903.324 8  89010384.967 7  21737229.461                    21737240.746
 115575069.269 7  90058565.04545  21993202.727                    21993212.324
 115389259.524 8  89913911.39545  21957835.555                    21957842.656
 11  8 26  2 14 30.0000000  0  9G10G12G05G26G15G29G25G30G02
 129151342.611 6 100637516.64142  24576653.914                    24576663.598
 116029552.421 8  90412700.553 7  22079689.047                    22079698.680
 108858457.318 8  84824883.158 8  20715050.117                    20715058.871
 119833999.323 7  93377225.89544  22803644.758                    22803653.867
 124464099.389 6  96985103.374 6  23684734.367                    23684744.410
 115425145.853 8  89941689.591 7  21964672.289                    21964681.309
 114254880.563 8  89029847.756 7  21741982.141                    21741994.367
 115606831.696 7  90083314.99645  21999246.633                    21999257.012
 115429725.156 8  89945443.04845  21965535.445                    21965543.109
 11  8 26  2 15  0.0000000  0  8G12G05G26G15G29G25G30G02
 116107542.799 7  90473472.261 7  22094530.219                    22094539.469
 108907109.090 8  84862793.633 8  20724308.242                    20724316.695
 119746976.584 7  93309416.02744  22787084.242                    22787094.160
 124367672.975 7  96909966.021 6  23666385.344                    23666395.676
 115348014.511 8  89881587.283 7  21949994.273                    21950003.332
 114280387.168 8  89049723.037 7  21746836.227                    21746847.875
 115639113.586 7  90108469.71445  22005389.797                    22005399.355
 115470276.842 7  89977041.77945  21973252.078                    21973259.512
 11  8 26  2 15 30.0000000  0  8G12G05G26G15G29G25G30G02
 116185836.040 8  90534479.971 7  22109428.781                    22109437.930
 108956179.015 8  84901029.960 8  20733646.109                    20733654.406
 119660194.830 7  93241793.92544  22770570.602                    22770580.434
 124271252.361 6  96834833.199 6  23648036.250                    23648047.254
 115271048.573 8  89821613.870 7  21935348.242                    21935357.406
 114306418.683 8  89070007.335 7  21751789.531                    21751801.641
 115671909.958 7  90134025.33745  22011631.023                    22011640.559
 115510912.262 7  90008705.74745  21980984.953                    21980991.992
 11  8 26  2 16  0.0000000  0  9G21G12G05G26G15G29G25G30G02
 132405305.76616                  25195902.188
 116264429.059 7  90595721.292 7  22124384.367                    22124393.691
 109005664.801 8  84939590.322 8  20743062.563                    20743071.355
 119573657.552 7  93174362.32345  22754102.781                    22754112.754
 124174840.038 7  96759706.826 6  23629689.789                    23629700.277
 115194250.276 8  89761771.086 7  21920733.680                    21920743.320
 114332973.334 8  89090699.279 7  21756843.133                    21756854.859
 115705218.593 7  90159980.11645  22017969.789                    22017979.059
 115551631.312 8  90040434.87345  21988733.695                    21988740.801
 11  8 26  2 16 30.0000000  0  9G21G12G05G26G15G29G25G30G02
 132349751.363 6 103129756.97952  25185330.906                    25185340.590
 116343318.393 7  90657193.492 7  22139396.469                    22139406.145
 109055564.411 8  84978473.154 8  20752558.234                    20752566.430
 119487368.231 7  93107123.95244  22737682.406                    22737692.246
 124078438.828 7  96684589.121 6  23611345.234                    23611355.730
 115117621.879 8  89702060.692 7  21906151.844                    21906161.605
 114360049.478 8  89111797.569 7  21761995.508                    21762006.656
 115739037.457 7  90186332.46945  22024404.664                    22024414.395
 115592433.957 7  90072229.15345  21996498.367                    21996505.203
 11  8 26  2 17  0.0000000  0  9G21G12G05G26G15G29G25G30G02
 132294198.040 6 103086468.83842  25174758.570                    25174769.836
 116422501.509 7  90718894.612 7  22154464.930                    22154474.645
 109105874.982 8  85017676.209 8  20762132.031                    20762140.914
 119401330.614 7  93040081.70644  22721309.789                    22721319.801
 123982051.501 7  96609482.234 6  23593003.531                    23593013.477
 115041165.360 8  89642484.227 7  21891602.531                    21891612.180
 114387645.162 8  89133300.689 7  21767246.789                    21767258.719
 115773364.135 7  90213080.52245  22030936.422                    22030946.359
 115633320.219 7  90104088.60045  22004278.555                    22004285.891
 11  8 26  2 17 30.0000000  0  9G21G12G05G26G15G29G25G30G02
 132238645.452 6 103043181.20542  25164187.336                    25164198.883
 116501975.093 7  90780822.091 7  22169588.305                    22169597.844
 109156594.702 8  85057198.084 8  20771783.742                    20771792.277
 119315548.526 7  92973238.55944  22704986.648                    22704995.738
 123885681.423 6  96534388.764 6  23574664.453                    23574674.719
 114964883.352 8  89583043.753 7  21877086.734                    21877096.043
 114415759.113 8  89155207.666 7  21772596.977                    21772608.938
 115808197.001 7  90240223.00845  22037565.336                    22037575.109
 115674290.724 7  90136013.69045  22012074.773                    22012082.027
 11  8 26  2 18  0.0000000  0  9G21G12G05G26G15G29G25G30G02
 132183093.168 6 102999893.80742  25153615.852                    25153626.738
 116581736.372 7  90842973.730 7  22184766.133                    22184775.910
 109207721.281 8  85097036.989 8  20781513.117                    20781521.668
 119230025.695 7  92906597.44944  22688711.820                    22688721.527
 123789331.501 7  96459310.987 6  23556329.711                    23556339.816
 114888778.194 8  89523741.081 7  21862604.172                    21862613.504
 114444389.635 8  89177517.155 7  21778044.563                    21778056.480
 115843533.892 8  90267758.24545  22044289.875                    22044299.824
 115715345.347 8  90168004.33345  22019887.055                    22019894.094
 11  8 26  2 18 30.0000000  0  9G21G12G05G26G15G29G25G30G02
 132127540.665 6 102956606.31442  25143044.672                    25143055.734
 116661782.818 7  90905347.594 7  22199998.875                    22200007.988
 109259252.592 8  85137191.276 7  20791318.828                    20791327.449
 119144765.818 7  92840161.23545  22672487.766                    22672497.344
 123693005.006 7  96384251.498 6  23537999.969                    23538009.086
 114812851.979 8  89464577.846 7  21848156.008                    21848164.613
 114473535.157 8  89200227.959 7  21783591.016                    21783602.781
 115879372.797 7  90295684.67445  22051109.438                    22051119.750
 115756484.767 7  90200061.03945  22027715.695                    22027722.566
 11  8 26  2 19  0.0000000  0  9G21G12G05G26G15G29G25G30G02
 132071986.724 6 102913317.62742  25132472.977                    25132483.398
 116742110.449 7  90967940.567 7  22215283.977                    22215293.871
 109311185.139 8  85177658.210 7  20801201.672                    20801210.000
 119059772.158 7  92773932.46745  22656313.570                    22656323.578
 123596703.708 7  96309211.594 6  23519674.586                    23519683.867
 114737106.405 8  89405555.365 7  21833741.664                    21833750.902
 114503193.115 8  89223338.063 7  21789234.656                    21789246.387
 115915710.695 7  90323999.90945  22058024.500                    22058034.043
 115797708.594 7  90232183.51645  22035560.102                    22035567.016
 11  8 26  2 19 30.0000000  0  9G21G12G05G26G15G29G25G30G02
 132016431.518 6 102870028.06642  25121901.156                    25121911.605
 116822717.270 7  91030751.081 7  22230623.305                    22230633.113
 109363517.970 8  85218437.056 7  20811159.867                    20811167.969
 118975048.947 7  92707914.43344  22640190.938                    22640200.738
 123500431.398 7  96234194.315 6  23501354.125                    23501364.266
 114661544.455 8  89346675.959 7  21819363.320                    21819371.945
 114533362.605 8  89246846.767 7  21794975.969                    21794987.551
 115952546.224 7  90352702.92945  22065034.047                    22065043.938
 115839017.746 7  90264372.49545  22043421.102                    22043428.289
 11  8 26  2 20  0.0000000  0  9G21G12G05G26G15G29G25G30G02
 131960874.531 6 102826737.05042  25111328.648                    25111339.617
 116903600.332 7  91093776.855 7  22246014.852                    22246023.832
 109416249.134 8  85259526.288 7  20821194.453                    20821202.328
 118890600.079 7  92642110.16544  22624121.188                    22624131.180
 123404191.408 7  96159202.207 6  23483039.820                    23483049.770
 114586168.763 8  89287941.690 7  21805019.398                    21805028.402
 114564042.118 8  89270752.872 7  21800813.766                    21800825.438
 115989877.531 7  90381792.26145  22072137.953                    22072147.621
 115880412.624 7  90296628.25445  22051298.203                    22051305.266
 11  8 26  2 20 30.0000000  0  9G21G12G05G26G15G29G25G30G02
 131905314.864 5 102783443.94442  25100755.492                    25100766.582
 116984756.041 7  91157015.073 7  22261458.398                    22261466.836
 109469375.610 8  85300923.558 7  20831304.125                    20831312.348
 118806428.908 7  92576522.29445  22608103.938                    22608113.805
 123307986.278 7  96084237.256 6  23464732.523                    23464742.402
 114510981.106 8  89229353.938 7  21790711.844                    21790720.762
 114595229.281 8  89295054.572 7  21806748.375                    21806760.316
 116027701.773 7  90411265.69545  22079335.516                    22079345.453
 115921892.994 7  90328950.64545  22059192.070                    22059199.098
 11  8 26  2 21  0.0000000  0  9G21G12G05G26G15G29G25G30G02
 131849752.118 6 102740148.45442  25090182.953                    25090193.234
 117066181.892 7  91220463.771 7  22276952.586                    22276962.105
 109522895.366 8  85342627.269 7  20841488.719                    20841496.629
 118722539.353 7  92511153.86244  22592140.047                    22592150.074
 123211819.381 7  96009302.120 6  23446432.781                    23446442.848
 114435984.232 8  89170914.855 7  21776440.547                    21776449.496
 114626922.641 8  89319750.687 7  21812779.813                    21812790.918
 116066017.109 7  90441121.79745  22086626.836                    22086637.594
 115963459.175 7  90361339.90345  22067101.133                    22067108.238
 11  8 26  2 21 30.0000000  0  9G21G12G05G26G15G29G25G30G02
 131794185.188 6 102696849.66242  25079609.039                    25079619.609
 117147874.366 7  91284120.243 7  22292498.492                    22292508.063
 109576805.394 8  85384635.099 7  20851747.000                    20851755.527
 118638934.733 7  92446007.46644  22576230.391                    22576240.031
 123115693.076 7  95934398.599 6  23428140.289                    23428150.602
 114361179.848 8  89112625.748 7  21762205.531                    21762214.301
 114659119.945 8  89344839.505 7  21818906.563                    21818918.281
 116104820.921 7  90471358.53645  22094011.211                    22094021.586
 116005111.358 8  90393796.16145  22075027.633                    22075034.570
 11  8 26  2 22  0.0000000  0  9G21G12G05G26G15G29G25G30G02
 131738613.825 5 102653547.46142  25069032.750                    25069044.520
 117229830.745 7  91347982.354 7  22308094.195                    22308103.762
 109631103.345 8  85426945.191 7  20862079.578                    20862088.012
 118555618.687 7  92381085.91644  22560375.703                    22560386.074
 123019610.334 7  95859529.029 6  23409856.352                    23409866.086
 114286570.195 8  89054488.394 7  21748007.617                    21748016.949
 114691819.262 8  89370319.485 7  21825128.813                    21825140.801
 116144110.693 7  90501973.93845  22101487.836                    22101497.293
 116046849.572 7  90426319.45845  22082970.297                    22082977.156
 11  8 26  2 22 30.0000000  0  9G21G12G05G26G15G29G25G30G02
 131683037.551 5 102610241.40742  25058456.984                    25058469.145
 117312048.311 7  91412047.985 7  22323740.008                    22323748.777
 109685787.388 8  85469556.146 7  20872485.547                    20872493.883
 118472594.978 7  92316392.17345  22544576.633                    22544587.047
 122923574.622 7  95784696.080 6  23391581.156                    23391590.551
 114212158.029 8  88996504.918 7  21733847.406                    21733856.746
 114725019.136 8  89396189.535 7  21831447.180                    21831458.852
 116183884.709 7  90532966.67245  22109056.445                    22109065.984
 116088674.535 7  90458910.34645  22090929.172                    22090936.605
 11  8 26  2 23  0.0000000  0  9G21G12G05G26G15G29G25G30G02
 131627455.625 5 102566930.96852  25047880.328                    25047891.793
 117394523.132 7  91476314.072 7  22339434.172                    22339443.828
 109740854.669 8  85512465.715 7  20882964.781                    20882972.949
 118389867.226 7  92251929.04445  22528834.383                    22528844.266
 122827588.457 7  95709901.750 6  23373315.117                    23373324.863
 114137945.267 8  88938676.825 7  21719725.328                    21719734.414
 114758717.188 8  89422447.769 7  21837859.320                    21837870.668
 116224140.068 7  90564334.47945  22116716.805                    22116726.824
 116130586.174 7  90491568.77745  22098904.797                    22098912.117
 11  8 26  2 23 30.0000000  0  9G21G12G05G26G15G29G25G30G02
 131571867.21215 102523615.44752  25037301.484                    25037313.848
 117477252.722 7  91540778.684 7  22355177.203                    22355186.305
 109796303.089 8  85555672.283 7  20893516.422                    20893524.410
 118307438.982 7  92187699.29245  22513148.883                    22513158.559
 122731654.997 7  95635148.487 6  23355060.375                    23355069.379
 114063934.197 8  88881005.899 7  21705641.492                    21705650.449
 114792911.507 8  89449092.703 7  21844366.133                    21844377.652
 116264874.555 7  90596075.64745  22124468.078                    22124477.941
 116172584.789 7  90524294.96045  22106896.875                    22106903.797
 11  8 26  2 24  0.0000000  0  9G21G12G05G26G15G29G25G30G02
 131516272.282 6 102480294.83842  25026722.922                    25026733.762
 117560233.986 7  91605439.404 7  22370968.133                    22370977.574
 109852130.498 8  85599174.172 7  20904139.719                    20904147.875
 118225314.340 7  92123706.11345  22497520.797                    22497530.648
 122635777.474 7  95560438.799 6  23336814.969                    23336824.418
 113990127.437 8  88823494.166 7  21691596.242                    21691605.492
 114827600.467 8  89476123.084 7  21850967.172                    21850978.746
 116306086.042 8  90628188.49545  22132310.773                    22132320.203
 116214670.753 7  90557089.20645  22114905.586                    22114911.707
 11  8 26  2 24 30.0000000  0  9G21G12G05G26G15G29G25G30G02
 131460669.498 6 102436968.17542  25016142.273                    25016152.766
 117643463.607 7  91670293.638 7  22386805.992                    22386815.859
 109908334.178 8  85642969.250 7  20914834.867                    20914843.168
 118143496.650 7  92059952.12845  22481951.539                    22481961.707
 122539958.518 7  95485774.761 6  23318581.523                    23318590.410
 113916527.381 8  88766143.509 7  21677590.500                    21677599.867
 114862781.897 8  89503537.210 7  21857661.867                    21857673.383
 116347772.024 8  90660671.08345  22140243.242                    22140252.656
 116256844.363 7  90589951.76945  22122930.859                    22122938.117
 11  8 26  2 25  0.0000000  0  9G21G12G05G26G15G29G25G30G02
 131405058.885 6 102393635.40142  25005559.023                    25005570.445
 117726939.059 7  91735339.418 7  22402691.211                    22402701.066
 109964911.933 8  85687055.813 7  20925601.414                    20925609.781
 118061989.748 7  91996440.30745  22466441.117                    22466451.059
 122444201.449 7  95411158.941 6  23300358.953                    23300368.629
 113843136.133 8  88708955.560 7  21663624.711                    21663633.945
 114898454.024 8  89531333.681 7  21864450.055                    21864461.813
 116389930.264 8  90693521.64845  22148266.078                    22148275.449
 116299105.868 7  90622882.80345  22130972.953                    22130980.184
 11  8 26  2 25 30.0000000  0  9G21G12G05G26G15G29G25G30G02
 131349439.686 6 102350295.91742  24994975.688                    24994986.234
 117810656.890 7  91800574.079 7  22418622.141                    22418631.867
 110021861.249 8  85731431.909 7  20936438.375                    20936446.906
 117980797.185 7  91933173.42445  22450990.945                    22451000.414
 122348509.080 7  95336593.543 6  23282149.820                    23282158.703
 113769955.922 8  88651932.044 7  21649699.219                    21649708.051
 114934614.586 8  89559510.755 7  21871331.406                    21871342.973
 116432558.154 7  90726738.20145  22156377.469                    22156386.703
 116341455.534 7  90655882.53345  22139032.227                    22139039.047
 11  8 26  2 26  0.0000000  0  9G21G12G05G26G15G29G25G30G02
 131293811.515 5 102306949.38542  24984388.828                    24984399.906
 117894614.339 7  91865995.470 7  22434598.320                    22434608.215
 110079179.906 8  85776095.803 7  20947345.781                    20947354.090
 117899922.742 7  91870154.42345  22435600.977                    22435610.945
 122252884.353 7  95262080.838 6  23263952.570                    23263962.090
 113696989.150 8  88595074.858 7  21635813.859                    21635822.574
 114971261.614 8  89588066.902 7  21878305.188                    21878316.578
 116475653.321 7  90760318.85845  22164578.039                    22164587.285
 116383893.666 7  90688951.19545  22147107.563                    22147114.664
 11  8 26  2 26 30.0000000  0  9G21G12G05G26G15G29G25G30G02
 131238173.520 6 102263595.20642  24973802.359                    24973812.840
 117978808.129 7  91931601.011 7  22450620.773                    22450629.781
 110136865.084 8  85821045.298 7  20958322.836                    20958331.320
 117819369.731 7  91807385.88345  22420271.781                    22420281.953
 122157330.316 7  95187623.233 6  23245769.492                    23245779.160
 113624238.390 8  88538385.987 7  21621970.016                    21621978.914
 115008392.961 8  89617000.427 7  21885371.203                    21885382.551
 116519213.159 7  90794261.60245  22172867.242                    22172877.141
 116426420.511 7  90722088.99445  22155200.148                    22155206.797
 11  8 26  2 27  0.0000000  0  9G21G12G05G26G15G29G25G30G02
 131182525.356 6 102220233.15742  24963211.820                    24963222.863
 118063235.696 7  91997388.714 7  22466685.750                    22466695.652
 110194915.096 8  85866279.075 7  20969369.336                    20969377.824
 117739142.176 7  91744870.93745  22405005.320                    22405015.117
 122061850.268 7  95113223.268 6  23227599.945                    23227609.242
 113551705.860 8  88481867.174 7  21608167.344                    21608176.207
 115046006.759 8  89646309.892 7  21892528.367                    21892540.543
 116563235.469 7  90828564.71745  22181244.086                    22181254.082
 116469036.571 7  90755296.30445  22163309.781                    22163316.961
 11  8 26  2 27 30.0000000  0  9G21G12G05G26G15G29G25G30G02
 131126866.126 6 102176862.43142  24952620.711                    24952631.461
 118147893.074 7  92063355.492 7  22482796.016                    22482805.309
 110253326.962 8  85911794.832 7  20980484.992                    20980493.324
 117659243.338 7  91682612.13945  22389801.148                    22389810.484
 121966447.045 7  95038883.153 6  23209444.898                    23209455.027
 113479393.667 8  88425520.064 7  21594406.945                    21594415.734
 115084100.697 8  89675993.492 7  21899777.625                    21899789.129
 116607717.602 7  90863226.12845  22189709.023                    22189718.855
 116511741.890 7  90788573.17045  22171436.406                    22171443.594
 11  8 26  2 28  0.0000000  0  9G21G12G05G26G15G29G25G30G02
 131071195.337 6 102133482.72442  24942025.984                    24942037.230
 118232777.779 7  92129499.406 7  22498948.797                    22498958.461
 110312098.336 8  85957590.709 7  20991668.305                    20991676.691
 117579676.998 7  91620612.43945  22374659.781                    22374669.215
 121871123.550 7  94964605.193 6  23191305.906                    23191316.066
 113407304.223 8  88369346.510 7  21580688.648                    21580697.254
 115122672.623 8  89706049.556 7  21907117.961                    21907129.398
 116652656.976 7  90898243.84045  22198260.789                    22198270.672
 116554536.837 8  90821919.87645  22179580.008                    22179587.266
 11  8 26  2 28 30.0000000  0  9G21G12G05G26G15G29G25G30G02
 131015512.621 6 102090093.76042  24931430.891                    24931440.766
 118317886.857 7  92195818.162 7  22515144.805                    22515153.965
 110371227.058 8  86003665.051 7  21002920.430                    21002928.512
 117500446.977 7  91558874.81345  22359582.844                    22359592.578
 121775883.167 7  94890391.976 6  23173181.984                    23173192.035
 113335440.123 8  88313348.551 7  21567013.227                    21567022.242
 115161720.703 8  89736476.636 7  21914548.422                    21914560.422
 116698051.282 7  90933616.06645  22206898.945                    22206908.633
 116597421.791 7  90855336.73345  22187741.078                    22187748.000
 11  8 26  2 29  0.0000000  0  9G21G12G05G26G15G29G25G30G02
 130959817.398 6 102046695.03342  24920831.789                    24920842.531
 118403217.145 7  92262309.290 7  22531382.766                    22531392.023
 110430710.320 8  86050015.649 7  21014239.648                    21014247.887
 117421556.676 7  91497401.89945  22344570.516                    22344579.992
 121680728.736 7  94816245.743 6  23155074.992                    23155084.656
 113263803.688 8  88257527.987 7  21553381.383                    21553390.371
 115201242.598 8  89767272.925 7  21922068.961                    21922080.910
 116743897.901 7  90969340.72245  22215623.406                    22215633.141
 116640396.893 7  90888823.83045  22195919.172                    22195925.020
 11  8 26  2 29 30.0000000  0  9G21G12G05G26G15G29G25G30G02
 130904108.895 6 102003285.84842  24910230.898                    24910242.008
 118488765.320 7  92328970.195 7  22547661.703                    22547670.855
 110490545.793 8  86096640.712 7  21025625.766                    21025634.098
 117343009.826 7  91436196.60345  22329624.391                    22329633.559
 121585663.380 7  94742168.904 6  23136983.953                    23136993.859
 113192397.029 8  88201886.469 7  21539792.922                    21539801.816
 115241236.072 8  89798436.663 7  21929679.539                    21929691.145
 116790194.190 7  91005415.76745  22224433.219                    22224442.832
 116683462.585 7  90922381.51445  22204113.758                    22204120.625
 11  8 26  2 30  0.0000000  0  9G21G12G05G26G15G29G25G30G02
 130848386.718 6 101959866.07842  24899626.563                    24899637.281
 118574528.257 7  92395798.455 7  22563981.875                    22563991.027
 110550731.153 8  86143538.402 7  21037078.727                    21037087.012
 117264809.893 7  91375261.64245  22314742.531                    22314752.016
 121490689.775 7  94668163.581 6  23118911.406                    23118920.992
 113121222.538 8  88146425.868 7  21526248.773                    21526257.746
 115281698.911 8  89829966.159 7  21937379.086                    21937391.219
 116836937.504 7  91041839.13645  22233327.797                    22233338.180
 116726619.392 7  90956010.20245  22212326.164                    22212333.227
 11  8 26  2 30 30.0000000  0  9G21G12G05G26G15G29G25G30G02
 130792650.412 6 101916435.28642  24889020.320                    24889030.984
 118660503.349 7  92462792.029 7  22580342.453                    22580352.305
 110611264.336 8  86190707.126 7  21048597.930                    21048606.203
 117186960.803 7  91314600.06645  22299928.406                    22299938.207
 121395811.387 7  94594232.428 6  23100856.148                    23100866.629
 113050282.816 8  88091148.205 7  21512749.586                    21512758.430
 115322629.192 8  89861859.883 7  21945168.180                    21945179.953
 116884125.562 7  91078609.07145  22242307.555                    22242317.762
 116769867.641 7  90989710.15545  22220555.648                    22220563.254
 11  8 26  2 31  0.0000000  0  9G21G12G05G26G15G29G25G30G02
 130736899.214 6 101872992.83642  24878412.320                    24878421.820
 118746687.187 7  92529948.258 7  22596743.008                    22596752.152
 110672142.418 8  86238144.600 7  21060182.594                    21060191.094
 117109465.782 7  91254214.37745  22285181.648                    22285191.266
 121301031.126 7  94520377.750 6  23082820.469                    23082830.293
 112979580.237 8  88036055.334 7  21499294.883                    21499304.145
 115364024.549 8  89894116.011 7  21953045.414                    21953057.051
 116931755.617 7  91115723.41245  22251371.383                    22251380.848
 116813207.627 8  91023481.57545  22228803.492                    22228810.020
 11  8 26  2 31 30.0000000  0  9G21G12G05G26G15G29G25G30G02
 130681132.429 6 101829538.30242  24867799.305                    24867809.305
 118833077.001 7  92597264.994 7  22613182.148                    22613191.605
 110733363.151 8  86285849.079 7  21071832.570                    21071840.445
 117032328.918 7  91194107.77945  22270502.859                    22270512.574
 121206352.459 7  94446602.227 6  23064803.570                    23064812.805
 112909117.369 8  87981149.240 7  21485886.219                    21485895.492
 115405882.924 8  89926732.924 7  21961010.578                    21961022.602
 116979825.346 7  91153180.35145  22260518.898                    22260528.965
 116856639.647 8  91057324.70445  22237067.852                    22237074.980
 11  8 26  2 32  0.0000000  0  9G21G12G05G26G15G29G25G30G02
 130625349.835 6 101786071.39943  24857184.414                    24857194.496
 118919669.428 7  92664739.615 7  22629660.211                    22629669.770
 110794923.708 8  86333818.362 7  21083547.609                    21083555.402
 116955553.142 7  91134282.55145  22255892.664                    22255902.516
 121111777.553 7  94372907.551 6  23046806.523                    23046816.086
 112838895.863 8  87926431.225 7  21472523.500                    21472532.547
 115448201.536 8  89959708.450 7  21969063.859                    21969075.477
 117028331.487 7  91190977.35445  22269748.961                    22269758.945
 116900163.597 8  91091239.47345  22245350.641                    22245357.879
 11  8 26  2 32 30.0000000  0  9G21G12G05G26G15G29G25G30G02
 130569550.323 6 101742591.36343  24846565.828                    24846576.070
 119006460.955 7  92732369.374 7  22646176.156                    22646185.527
 110856821.230 8  86382050.213 7  21095326.109                    21095334.289
 116879141.979 7  91074741.43145  22241352.195                    22241361.684
 121017309.737 7  94299296.354 6  23028829.906                    23028839.156
 112768917.898 8  87871902.978 7  21459207.352                    21459216.859
 115490977.917 8  89993040.697 7  21977203.672                    21977215.539
 117077271.184 7  91229112.19645  22279062.086                    22279072.023
 116943779.873 8  91125226.19645  22253650.938                    22253657.457
 11  8 26  2 33  0.0000000  0  9G21G12G05G26G15G29G25G30G02
 130513733.900 6 101699098.17043  24835944.641                    24835954.395
 119093449.193 7  92800152.405 7  22662729.781                    22662738.719
 110919054.558 8  86430543.729 7  21107168.641                    21107177.059
 116803099.664 7  91015487.70645  22226881.461                    22226891.469
 120922952.751 7  94225771.488 6  23010874.227                    23010883.574
 112699187.083 8  87817567.329 7  21445938.102                    21445947.465
 115534210.628 8  90026728.527 7  21985430.797                    21985442.691
 117126642.759 7  91267583.56945  22288456.859                    22288466.852
 116987489.548 8  91159285.68945  22261968.141                    22261975.414
 11  8 26  2 33 30.0000000  0  9G21G12G05G26G15G29G25G30G02
 130457900.008 6 101655591.30143  24825319.336                    24825329.484
 119180631.113 7  92868086.372 6  22679319.508                    22679328.887
 110981620.637 8  86479296.523 7  21119074.281                    21119082.469
 116727429.756 7  90956524.18145  22212482.742                    22212491.582
 120828709.333 7  94152335.118 6  22992940.453                    22992949.754
 112629705.486 8  87763425.870 7  21432715.898                    21432725.086
 115577897.226 8  90060770.044 7  21993743.781                    21993755.660
 117176443.319 7  91306389.20845  22297933.820                    22297943.367
 117031292.645 7  91193417.98245  22270303.578                    22270310.754
 11  8 26  2 34  0.0000000  0  9G21G12G05G26G15G29G25G30G02
 130402047.531 6 101612069.95843  24814691.148                    24814701.113
 119268002.932 7  92936168.317 7  22695945.328                    22695955.086
 111044516.439 8  86528306.249 7  21131043.164                    21131051.059
 116652134.959 7  90897852.96145  22198154.117                    22198163.098
 120734581.939 7  94078989.139 6  22975028.344                    22975037.781
 112560474.375 8  87709479.594 7  21419541.414                    21419550.980
 115622034.546 8  90095162.762 7  22002143.063                    22002154.914
 117226669.328 7  91345526.36745  22307491.586                    22307501.113
 117075189.227 7  91227623.11845  22278656.438                    22278663.930
 11  8 26  2 34 30.0000000  0  9G21G12G05G26G15G29G25G30G02
 130346176.320 6 101568534.01343  24804059.156                    24804069.219
 119355561.968 7  93004396.132 7  22712607.477                    22712617.039
 111107739.949 8  86577571.326 7  21143074.328                    21143082.402
 116577219.232 7  90839477.09645  22183898.641                    22183907.684
 120640574.144 7  94005736.375 6  22957139.344                    22957149.023
 112491496.779 8  87655730.862 7  21406415.891                    21406424.613
 115666620.697 8  90129905.223 7  22010627.727                    22010639.129
 117277318.599 7  91384993.33745  22317129.672                    22317139.199
 117119179.730 7  91261901.44345  22287027.789                    22287034.965
 11  8 26  2 35  0.0000000  0  9G21G12G05G26G15G29G25G30G02
 130290285.915 6 101524983.13143  24793423.602                    24793433.902
 119443305.204 7  93072767.468 6  22729304.375                    22729314.063
 111171289.030 8  86627090.105 7  21155166.734                    21155175.480
 116502686.560 7  90781399.72545  22169715.195                    22169724.258
 120546689.264 7  93932579.374 6  22939273.680                    22939282.965
 112422775.212 8  87602181.626 7  21393338.492                    21393347.348
 115711653.695 8  90164995.863 7  22019197.344                    22019208.398
 117328388.717 7  91424788.23845  22326847.758                    22326857.832
 117163264.807 7  91296253.45045  22295417.219                    22295424.344
 11  8 26  2 35 30.0000000  0 10G21G12G05G26G15G29G25G30G02G18
 130234375.656 6 101481416.78343  24782783.570                    24782794.008
 119531229.215 7  93141279.666 7  22746035.977                    22746045.816
 111235160.781 8  86676860.303 7  21167321.352                    21167330.129
 116428540.098 7  90723623.29345  22155605.547                    22155614.488
 120452930.149 7  93859520.387 6  22921432.008                    22921441.500
 112354312.017 8  87548833.737 7  21380310.109                    21380319.199
 115757130.701 8  90200432.497 7  22027851.156                    22027863.129
 117379876.620 7  91464908.68445  22336645.617                    22336655.703
 117207444.563 7  91330679.24145  22303824.031                    22303831.219
 129740983.89616                  24688899.430
 11  8 26  2 36  0.0000000  0 10G21G12G05G26G15G29G25G30G02G18
 130178444.733 6 101437834.33643  24772141.102                    24772150.465
 119619330.729 7  93209930.185 7  22762801.523                    22762811.477
 111299352.156 8  86726879.573 7  21179536.578                    21179545.105
 116354782.729 7  90666150.04345  22141569.836                    22141579.000
 120359299.271 7  93786561.320 7  22903614.781                    22903624.250
 112286108.990 8  87495688.576 7  21367331.852                    21367340.797
 115803048.836 8  90236212.859 7  22036588.750                    22036600.820
 117431778.976 7  91505352.08545  22346522.609                    22346532.215
 117251718.941 7  91365178.76945  22312249.258                    22312256.324
 129652046.136 6 101027661.55952  24671975.258                    24671986.750
 11  8 26  2 36 30.0000000  0 10G21G12G05G26G15G29G25G30G02G18
 130122492.803 6 101394235.54943  24761493.383                    24761503.594
 119707606.925 7  93278716.823 7  22779599.945                    22779609.219
 111363861.516 8  86777146.601 7  21191812.586                    21191820.934
 116281418.500 7  90608983.14645  22127609.352                    22127618.297
 120265800.271 7  93713705.033 7  22885821.633                    22885832.117
 112218169.144 8  87442748.490 7  21354403.203                    21354412.203
 115849406.209 8  90272335.486 7  22045410.273                    22045422.020
 117484093.655 7  91546116.76945  22356477.242                    22356487.426
 117296088.665 7  91399752.58645  22320692.578                    22320699.781
 129563275.284 6 100958489.69142  24655082.063                    24655093.719
 11  8 26  2 37  0.0000000  0 10G21G12G05G26G15G29G25G30G02G18
 130066519.790 6 101350620.28643  24750841.953                    24750852.363
 119796055.104 7  93347637.477 7  22796431.242                    22796440.266
 111428686.748 8  86827659.783 7  21204148.477                    21204156.387
 116208451.568 7  90552125.83445  22113723.719                    22113732.891
 120172436.609 7  93640954.176 6  22868055.844                    22868065.223
 112150495.132 8  87390015.539 7  21341525.383                    21341533.887
 115896200.887 8  90308798.891 7  22054314.961                    22054326.938
 117536818.244 7  91587200.87345  22366510.883                    22366520.605
 117340554.619 7  91434401.39645  22329154.039                    22329161.438
 129474672.544 6 100889448.87442  24638221.273                    24638232.848
 11  8 26  2 37 30.0000000  0 10G21G12G05G26G15G29G25G30G02G18
 130010525.110 6 101306988.14943  24740186.461                    24740196.465
 119884672.262 7  93416689.788 6  22813293.672                    22813303.230
 111493825.290 8  86878417.097 7  21216543.555                    21216551.789
 116135885.223 7  90495580.65745  22099914.844                    22099924.160
 120079211.220 7  93568311.076 6  22850314.461                    22850324.574
 112083089.112 8  87337491.411 7  21328698.211                    21328707.051
 115943430.181 8  90345600.937 7  22063302.648                    22063314.578
 117589949.768 7  91628602.06045  22376621.336                    22376630.945
 117385117.129 7  91469125.43745  22337633.953                    22337641.027
 129386238.956 6 100820539.80642  24621392.773                    24621404.656
 11  8 26  2 38  0.0000000  0 10G21G12G05G26G15G29G25G30G02G18
 129954507.950 6 101263338.51743  24729526.969                    24729536.445
 119973455.384 7  93485871.436 6  22830189.289                    22830198.195
 111559274.251 8  86929416.289 7  21228998.031                    21229006.359
 116063722.712 7  90439350.16445  22086182.766                    22086191.973
 119986127.221 7  93495778.144 6  22832602.180                    22832611.816
 112015953.551 8  87285178.035 7  21315922.680                    21315931.613
 115991091.599 8  90382739.712 7  22072372.352                    22072383.684
 117643485.396 7  91670318.13345  22386809.227                    22386818.535
 117429776.449 7  91503924.90645  22346132.359                    22346138.887
 129297976.075 6 100751763.75142  24604596.656                    24604608.180
 11  8 26  2 38 30.0000000  0 10G21G12G05G26G15G29G25G30G02G18
 129898467.825 6 101219670.95943  24718862.609                    24718872.156
 120062401.200 7  93555179.858 6  22847114.305                    22847124.574
 111625031.196 8  86980655.483 7  21241511.320                    21241519.434
 115991967.689 7  90383437.20845  22072528.211                    22072537.719
 119893187.694 7  93423357.774 7  22814915.844                    22814925.602
 111949090.813 8  87233077.243 7  21303199.078                    21303207.988
 116039182.631 8  90420213.253 7  22081523.789                    22081535.398
 117697422.325 7  91712346.90545  22397072.742                    22397082.594
 117474532.964 7  91538800.12745  22354649.195                    22354656.402
 129209885.067 6 100683121.69942  24587833.375                    24587845.055
 11  8 26  2 39  0.0000000  0 10G21G12G05G26G15G29G25G30G02G18
 129842404.233 6 101175985.09343  24708193.797                    24708203.863
 120151506.270 7  93624612.363 6  22864071.023                    22864080.492
 111691093.515 8  87032132.621 7  21254082.352                    21254091.320
 115920623.373 7  90327844.26345  22058952.266                    22058961.582
 119800395.559 7  93351052.254 7  22797258.703                    22797268.504
 111882503.127 8  87181190.776 7  21290527.805                    21290536.852
 116087700.636 8  90458019.507 7  22090756.391                    22090767.250
 117751757.553 7  91754686.03845  22407412.711                    22407422.406
 117519387.162 7  91573751.46445  22363184.914                    22363191.625
 129121966.807 6 100614614.22242  24571102.664                    24571114.742
 11  8 26  2 39 30.0000000  0 10G21G12G05G26G15G29G25G30G02G18
 129786316.851 6 101132280.73843  24697520.820                    24697530.516
 120240767.907 7  93694166.873 6  22881057.023                    22881065.852
 111757459.272 8  87083846.201 7  21266711.406                    21266720.457
 115849693.533 7  90272574.28845  22045454.063                    22045463.551
 119707754.361 7  93278864.386 7  22779628.422                    22779638.551
 111816193.100 8  87129520.665 7  21277909.422                    21277918.320
 116136643.333 8  90496156.674 7  22100069.813                    22100080.898
 117806488.525 7  91797333.55645  22417827.180                    22417837.328
 117564339.208 7  91608779.05145  22371738.852                    22371745.527
 129034223.212 6 100546242.80843  24554406.086                    24554417.445
 11  8 26  2 40  0.0000000  0 10G21G12G05G26G15G29G25G30G02G18
 129730204.995 6 101088557.30143  24686843.375                    24686852.789
 120330183.038 7  93763841.002 6  22898071.703                    22898081.652
 111824125.686 8  87135794.056 7  21279397.773                    21279406.359
 115779181.676 7  90217630.02545  22032036.953                    22032045.652
 119615266.810 7  93206796.202 7  22762029.289                    22762039.148
 111750163.339 8  87078068.946 7  21265344.227                    21265352.742
 116186008.204 8  90534622.825 7  22109463.492                    22109474.746
 117861612.317 7  91840287.16245  22428317.313                    22428326.918
 117609389.841 7  91643883.45745  22380311.836                    22380318.707
 128946655.147 6 100478008.20443  24537741.688                    24537753.465
 11  8 26  2 40 30.0000000  0 10G21G12G05G26G15G29G25G30G02G18
 129674068.244 6 101044814.46443  24676160.273                    24676170.449
 120419749.050 7  93833632.693 6  22915115.563                    22915125.082
 111891090.326 8  87187974.306 7  21292140.625                    21292149.051
 115709090.957 7  90163013.92345  22018698.297                    22018707.668
 119522936.055 7  93134850.233 7  22744459.477                    22744468.801
 111684415.866 8  87026837.178 7  21252833.023                    21252841.523
 116235792.593 8  90573415.860 7  22118937.508                    22118948.875
 117917126.015 7  91883544.58845  22438880.953                    22438890.555
 117654539.195 7  91679064.77945  22388903.063                    22388910.023
 128859264.148 6 100409911.54943  24521111.703                    24521123.426
 11  8 26  2 41  0.0000000  0 10G21G12G05G26G15G29G25G30G02G18
 129617906.203 6 101001051.89843  24665473.648                    24665482.789
 120509461.976 7  93903538.863 6  22932187.695                    22932196.719
 111958350.818 8  87240385.084 7  21304939.844                    21304948.527
 115639425.130 7  90108728.90745  22005441.766                    22005450.750
 119430765.488 7  93063029.058 7  22726919.852                    22726929.098
 111618953.368 7  86975827.469 7  21240376.109                    21240384.430
 116285994.164 8  90612533.988 7  22128490.406                    22128502.238
 117973026.926 7  91927103.73645  22449518.531                    22449528.688
 117699787.971 7  91714323.57645  22397514.102                    22397520.418
 128772051.039 6 100341953.48843  24504516.055                    24504527.172
 11  8 26  2 41 30.0000000  0 10G21G12G05G26G15G29G25G30G02G18
 129561718.308 6 100957269.20143  24654781.109                    24654790.105
 120599318.870 7  93973557.201 6  22949286.695                    22949295.609
 112025904.911 8  87293024.635 7  21317795.258                    21317803.332
 115570187.354 7  90054777.43245  21992266.273                    21992275.539
 119338757.878 7  92991334.861 7  22709411.211                    22709420.898
 111553777.924 8  86925041.442 7  21227973.344                    21227982.484
 116336610.154 8  90651975.031 7  22138122.203                    22138134.125
 118029312.008 7  91970962.24045  22460228.961                    22460238.527
 117745136.298 7  91749659.95645  22406143.516                    22406149.734
 128685017.311 6 100274135.18942  24487953.117                    24487965.074
 11  8 26  2 42  0.0000000  0 10G21G12G05G26G15G29G25G30G02G18
 129505504.356 6 100913466.20043  24644084.031                    24644093.535
 120689317.123 7  94043685.692 6  22966413.477                    22966421.633
 112093749.822 8  87345890.815 7  21330705.336                    21330713.855
 115501381.387 7  90001162.43145  21979173.117                    21979181.902
 119246916.846 7  92919770.488 7  22691934.102                    22691943.945
 111488892.844 8  86874481.673 7  21215626.328                    21215635.125
 116387638.310 8  90691737.249 7  22147832.648                    22147844.125
 118085978.708 7  92015118.11545  22471012.500                    22471022.012
 117790584.794 7  91785074.39145  22414792.047                    22414798.582
 128598164.343 6 100206457.75342  24471425.445                    24471436.941
 11  8 26  2 42 30.0000000  0 10G21G12G05G26G15G29G25G30G02G18
 129449263.183 6 100869641.96943  24633381.305                    24633390.945
 120779453.200 7  94113921.583 6  22983565.211                    22983574.660
 112161882.536 8  87398981.243 7  21343670.461                    21343679.195
 115433009.967 7  89947886.04345  21966162.117                    21966171.418
 119155244.799 7  92848337.756 6  22674489.617                    22674498.813
 111424298.844 7  86824148.710 7  21203334.055                    21203342.820
 116439075.322 8  90731818.061 7  22157620.656                    22157632.277
 118143023.358 7  92059568.51145  22481868.367                    22481877.613
 117836133.454 7  91820566.86945  22423459.742                    22423466.438
 128511492.535 6 100138921.45142  24454932.531                    24454943.500
 11  8 26  2 43  0.0000000  0 10G21G12G05G26G15G29G25G30G02G18
 129392994.516 6 100825796.34343  24622673.945                    24622683.367
 120869724.342 7  94184262.717 6  23000743.398                    23000753.086
 112230301.081 8  87452294.403 7  21356690.016                    21356698.539
 115365076.919 7  89894951.25245  21953235.234                    21953243.977
 119063745.142 7  92777039.376 7  22657077.961                    22657088.137
 111359999.217 8  86774045.132 7  21191098.508                    21191107.090
 116490919.092 8  90772215.822 7  22167486.258                    22167497.695
 118200443.552 7  92104311.51245  22492795.117                    22492804.422
 117881783.037 8  91856137.97745  22432146.820                    22432153.129
 128425003.842 6 100071527.87442  24438473.789                    24438484.582
 11  8 26  2 43 30.0000000  0 10G21G12G05G26G15G29G25G30G02G18
 129336697.608 6 100781928.71443  24611960.859                    24611970.266
 120960126.990 7  94254706.343 7  23017946.422                    23017956.480
 112299002.644 8  87505828.093 7  21369763.859                    21369772.156
 115297585.177 7  89842360.33545  21940391.063                    21940400.617
 118972420.765 7  92705877.578 7  22639699.648                    22639709.148
 111295996.075 8  86724172.581 7  21178919.117                    21178927.797
 116543166.505 8  90812928.103 7  22177428.281                    22177439.695
 118258235.947 7  92149344.57945  22503792.203                    22503801.984
 117927533.988 7  91891788.07945  22440852.703                    22440859.398
 128338698.884 6 100004277.47543  24422050.430                    24422061.207
 11  8 26  2 44  0.0000000  0 10G21G12G05G26G15G29G25G30G02G18
 129280372.399 6 100738039.05143  24601242.344                    24601252.145
 121050658.520 7  94325250.381 6  23035174.305                    23035183.605
 112367985.283 8  87559580.797 7  21382890.750                    21382898.871
 115230538.495 7  89790116.22145  21927632.914                    21927642.734
 118881275.125 7  92634855.037 7  22622355.117                    22622365.078
 111232292.243 7  86674533.260 7  21166796.289                    21166804.895
 116595815.412 8  90853953.243 7  22187446.984                    22187458.730
 118316398.156 7  92194665.78745  22514860.438                    22514869.473
 117973386.831 7  91927517.61145  22449578.109                    22449584.871
 128252579.268 6  99937171.46843  24405662.703                    24405673.664
 11  8 26  2 44 30.0000000  0 10G21G12G05G26G15G29G25G30G02G18
 129224018.543 6 100694127.03643  24590518.492                    24590528.125
 121141315.828 7  94395892.417 6  23052425.617                    23052434.691
 112437246.220 8  87613550.362 7  21396070.664                    21396078.910
 115163940.357 7  89738221.59445  21914959.578                    21914968.516
 118790311.094 7  92563974.025 7  22605045.602                    22605055.086
 111168890.022 7  86625128.958 7  21154731.492                    21154740.027
 116648863.151 8  90895289.161 7  22197542.234                    22197553.395
 118374927.030 7  92240272.72445  22525997.516                    22526006.988
 118019341.848 7  91963326.73145  22458322.695                    22458330.027
 128166645.931 6  99870210.59143  24389309.742                    24389320.430
 11  8 26  2 45  0.0000000  0 10G21G12G05G26G15G29G25G30G02G18
 129167635.452 6 100650192.25343  24579788.211                    24579798.129
 121232095.967 7  94466630.167 6  23069700.500                    23069709.539
 112506783.457 8  87667735.226 7  21409303.180                    21409311.539
 115097794.165 7  89686679.15045  21902372.125                    21902381.504
 118699532.263 7  92493237.322 7  22587770.328                    22587779.895
 111105791.914 8  86575961.630 7  21142724.422                    21142732.793
 116702307.116 8  90936933.802 7  22207712.008                    22207722.918
 118433819.786 7  92286163.19645  22537204.977                    22537214.254
 118065399.510 7  91999215.82345  22467087.789                    22467093.965
 128080900.416 6  99803396.10043  24372993.305                    24373003.742
 11  8 26  2 45 30.0000000  0 10G21G12G05G26G15G29G25G30G02G18
 129111222.872 6 100606234.48243  24569053.648                    24569063.262
 121322995.641 7  94537461.056 6  23086998.000                    23087007.539
 112576594.308 8  87722133.288 7  21422587.875                    21422595.973
 115032103.180 8  89635491.42145  21889871.570                    21889880.852
 118608941.679 7  92422647.317 7  22570531.859                    22570540.473
 111043000.435 8  86527033.247 7  21130775.531                    21130783.988
 116756144.634 8  90978885.133 7  22217956.859                    22217968.105
 118493073.410 7  92332334.87245  22548480.219                    22548489.867
 118111560.342 7  92035185.32445  22475871.648                    22475877.875
 127995343.631 6  99736728.61043  24356711.898                    24356722.895
 11  8 26  2 46  0.0000000  0 10G21G12G05G26G15G29G25G30G02G18
 129054779.938 6 100562253.07743  24558313.063                    24558322.570
 121414011.819 7  94608382.738 6  23104318.102                    23104327.367
 112646675.800 8  87776742.255 7  21435923.906                    21435932.410
 114966870.369 7  89584660.69445  21877458.305                    21877467.336
 118518542.070 7  92352206.112 7  22553329.273                    22553338.336
 110980517.528 7  86478345.298 7  21118885.406                    21118893.926
 116810372.568 8  91021140.679 7  22228276.063                    22228287.684
 118552684.484 7  92378785.06645  22559823.688                    22559833.645
 118157824.560 8  92071235.38645  22484675.359                    22484681.551
 127909976.706 6  99670209.11143  24340467.000                    24340477.965
 11  8 26  2 46 30.0000000  0 10G21G12G05G26G15G29G25G30G02G18
 128998306.176 6 100518247.63443  24547566.383                    24547575.625
 121505141.674 7  94679392.987 6  23121659.648                    23121669.152
 112717026.074 8  87831560.659 7  21449311.031                    21449319.492
 114902099.139 7  89534189.64745  21865132.625                    21865141.879
 118428336.858 7  92281916.386 7  22536164.008                    22536172.621
 110918345.679 8  86429899.733 7  21107054.555                    21107063.129
 116864988.561 8  91063698.609 7  22238668.859                    22238680.949
 118612650.472 7  92425511.83145  22571234.875                    22571244.738
 118204192.775 7  92107366.46145  22493498.547                    22493506.008
 127824800.800 6  99603838.45143  24324258.508                    24324269.328
 11  8 26  2 47  0.0000000  0 10G21G12G05G26G15G29G25G30G02G18
 128941801.320 6 100474217.98243  24536813.828                    24536823.656
 121596381.891 7  94750489.236 6  23139022.023                    23139031.496
 112787642.565 8  87886586.502 7  21462748.594                    21462757.258
 114837793.062 7  89484081.04645  21852896.031                    21852904.563
 118338328.956 7  92211780.402 6  22519035.898                    22519044.656
 110856487.394 8  86381698.522 7  21095283.188                    21095292.289
 116919990.002 8  91106556.876 7  22249135.742                    22249147.426
 118672968.327 7  92472512.77545  22582712.844                    22582723.125
 118250665.499 7  92143578.99745  22502342.320                    22502349.602
 127739816.921 6  99537617.42743  24308086.797                    24308097.051
 11  8 26  2 47 30.0000000  0 10G21G12G05G26G15G29G25G30G02G18
 128885264.763 6 100430163.61943  24526055.313                    24526064.297
 121687729.695 7  94821669.328 6  23156405.125                    23156414.250
 112858522.579 8  87941817.681 7  21476236.836                    21476245.492
 114773955.113 7  89434337.22745  21840747.422                    21840756.867
 118248521.387 7  92141800.530 7  22501946.125                    22501954.383
 110794945.036 7  86333743.482 7  21083572.188                    21083580.602
 116975373.969 8  91149713.210 7  22259674.344                    22259686.539
 118733634.954 7  92519785.48245  22594256.820                    22594267.344
 118297242.953 7  92179873.12945  22511205.422                    22511212.672
 127655026.609 6  99471547.24042  24291951.086                    24291961.480
 11  8 26  2 48  0.0000000  0 10G21G12G05G26G15G29G25G30G02G18
 128828696.063 6 100386084.23043  24515290.750                    24515299.840
 121779181.492 7  94892930.450 6  23173807.719                    23173816.684
 112929663.356 8  87997252.053 7  21489774.688                    21489782.762
 114710588.558 7  89384960.73545  21828689.008                    21828698.926
 118158917.192 7  92071979.132 7  22484894.484                    22484903.246
 110733720.554 7  86286036.141 7  21071921.281                    21071930.395
 117031137.485 7  91193165.307 7  22270286.352                    22270298.066
 118794647.135 7  92567327.44945  22605867.609                    22605877.664
 118343925.625 7  92216249.24445  22520088.844                    22520096.125
 127570430.379 6  99405628.22543  24275852.969                    24275863.094
 11  8 26  2 48 30.0000000  0 10G21G12G05G26G15G29G25G30G02G18
 128772095.101 6 100341979.69343  24504519.469                    24504529.031
 121870734.610 7  94964270.513 6  23191229.648                    23191239.195
 113001063.127 8  88052888.249 7  21503361.492                    21503369.559
 114647697.074 7  89335954.40445  21816721.789                    21816730.539
 118069520.104 7  92002319.100 7  22467882.750                    22467891.699
 110672817.264 8  86238579.076 7  21060331.727                    21060340.500
 117087278.374 7  91236911.451 7  22280969.242                    22280981.484
 118856002.274 7  92615136.64145  22617543.234                    22617552.891
 118390714.315 7  92252707.97145  22528992.203                    22528999.441
 127486029.944 6  99339861.82042  24259792.063                    24259801.840
 11  8 26  2 49  0.0000000  0 10G21G12G05G26G15G29G25G30G02G18
 128715461.288 6 100297849.53343  24493742.859                    24493751.668
 121962386.578 7  95035687.629 6  23208670.047                    23208679.793
 113072719.363 8  88108724.280 7  21516997.102                    21517005.637
 114585283.702 7  89287320.64745  21804844.469                    21804853.711
 117980332.946 7  91932822.657 7  22450910.758                    22450919.844
 110612237.406 8  86191374.045 7  21048803.719                    21048812.523
 117143793.784 7  91280949.426 7  22291723.852                    22291735.508
 118917697.334 7  92663210.71945  22629283.258                    22629292.867
 118437609.398 7  92289249.59145  22537916.172                    22537923.051
 127401826.313 6  99274248.79543  24243767.805                    24243778.664
 11  8 26  2 49 30.0000000  0 10G21G12G05G26G15G29G25G30G02G18
 128658794.153 6 100253693.44743  24482959.031                    24482968.496
 122054133.799 7  95107178.949 6  23226128.844                    23226138.973
 113144629.706 8  88164758.311 7  21530681.109                    21530689.215
 114523351.779 7  89239062.04045  21793059.391                    21793068.746
 117891358.823 7  91863492.218 7  22433979.805                    22433989.168
 110551983.050 8  86144422.643 7  21037338.055                    21037346.488
 117200680.961 7  91325277.103 7  22302549.063                    22302560.750
 118979729.304 7  92711547.33445  22641087.320                    22641097.414
 118484611.390 7  92325874.51745  22546860.953                    22546867.723
 127317820.404 6  99208789.82843  24227782.125                    24227793.023
 11  8 26  2 50  0.0000000  0 10G21G12G05G26G15G29G25G30G02G18
 128602093.277 6 100209511.01743  24472169.031                    24472177.945
 122145972.993 7  95178741.920 6  23243605.938                    23243615.258
 113216791.314 8  88220988.149 7  21544412.883                    21544421.371
 114461904.069 7  89191180.73045  21781366.594                    21781375.688
 117802600.866 7  91794330.213 7  22417089.523                    22417098.859
 110492056.615 8  86097726.769 7  21025934.070                    21025942.195
 117257936.995 7  91369892.190 7  22313444.719                    22313456.359
 119042094.990 7  92760143.95945  22652955.570                    22652965.145
 118531720.579 7  92362582.98145  22555825.055                    22555831.738
 127234013.259 6  99143485.72843  24211834.391                    24211844.277
 11  8 26  2 50 30.0000000  0 10G21G12G05G26G15G29G25G30G02G18
 128545358.605 6 100165302.28843  24461373.594                    24461381.621
 122237901.751 7  95250374.696 6  23261099.047                    23261108.531
 113289202.347 8  88277412.327 7  21558192.609                    21558200.758
 114400944.590 7  89143679.85845  21769766.070                    21769775.551
 117714062.537 7  91725339.368 7  22400241.141                    22400250.852
 110432460.920 8  86051288.603 7  21014593.336                    21014601.418
 117315559.444 7  91414792.804 7  22324409.672                    22324421.531
 119104791.709 7  92808998.57045  22664885.406                    22664895.969
 118578937.430 7  92399375.32045  22564810.344                    22564816.820
 127150406.440 7  99078337.69443  24195924.086                    24195934.898
 11  8 26  2 51  0.0000000  0 10G21G12G05G26G15G29G25G30G02G18
 128488588.874 6 100121066.24143  24450570.117                    24450578.902
 122329916.421 6  95322074.427 6  23278608.789                    23278618.219
 113361859.214 8  88334028.070 7  21572019.008                    21572027.121
 114340475.340 7  89096561.00145  21758258.992                    21758268.637
 117625746.330 7  91656521.578 7  22383435.086                    22383444.770
 110373197.092 8  86005109.051 7  21003316.078                    21003324.262
 117373544.632 7  91459976.064 7  22335444.063                    22335456.156
 119167815.540 7  92858108.05045  22676878.906                    22676889.102
 118626262.222 7  92436251.75845  22573815.664                    22573822.660
 127067000.105 7  99013345.92243  24180052.789                    24180063.652
 11  8 26  2 51 30.0000000  0 10G21G12G05G26G15G29G25G30G02G18
 128431784.004 6 100076802.79843  24439760.188                    24439769.277
 122422014.147 7  95393838.862 6  23296134.313                    23296142.832
 113434760.088 8  88390833.942 7  21585891.328                    21585899.742
 114280499.787 7  89049826.82545  21746846.188                    21746855.492
 117537655.348 7  91587879.304 7  22366672.086                    22366681.598
 110314268.251 8  85959190.513 7  20992101.891                    20992110.410
 117431890.168 7  91505440.130 7  22346546.734                    22346558.641
 119231163.859 7  92907470.37344  22688934.531                    22688943.391
 118673695.859 7  92473213.02945  22582842.281                    22582849.418
 126983795.532 7  98948511.33743  24164218.938                    24164229.395
 11  8 26  2 52  0.0000000  0 10G21G12G05G26G15G29G25G30G02G18
 128374943.717 6 100032511.74643  24428943.711                    24428952.996
 122514191.947 6  95465665.681 6  23313675.414                    23313683.629
 113507902.527 8  88447828.067 7  21599809.578                    21599817.895
 114221021.551 7  89003480.18645  21735527.836                    21735537.160
 117449792.989 7  91519415.179 7  22349952.016                    22349961.680
 110255676.827 7  85913534.891 7  20980952.344                    20980961.063
 117490593.433 7  91551182.938 7  22357717.438                    22357729.477
 119294833.742 7  92957083.27245  22701050.125                    22701059.492
 118721238.497 7  92510259.21745  22591889.023                    22591896.480
 126900794.185 6  98883835.12843  24148424.344                    24148434.539
 11  8 26  2 52 30.0000000  0 10G21G12G05G26G15G29G25G30G02G18
 128318067.822 6  99988192.96543  24418120.867                    24418129.695
 122606447.126 6  95537552.812 6  23331230.484                    23331240.215
 113581284.525 8  88505008.844 7  21613773.883                    21613782.332
 114162043.826 7  88957523.55245  21724304.711                    21724313.379
 117362162.480 7  91451131.706 7  22333276.516                    22333285.809
 110197425.317 7  85868144.136 7  20969867.617                    20969875.785
 117549651.723 7  91597202.390 7  22368955.945                    22368967.848
 119358822.273 7  93006944.45744  22713226.469                    22713236.137
 118768890.886 7  92547390.94045  22600957.219                    22600965.086
 126817996.839 6  98819317.87143  24132668.391                    24132678.539
 11  8 26  2 53  0.0000000  0 10G21G12G05G26G15G29G25G30G02G18
 128261156.002 6  99943846.17243  24407290.617                    24407299.305
 122698776.902 7  95609498.059 6  23348800.563                    23348810.016
 113654903.745 8  88562374.474 7  21627783.156                    21627791.574
 114103569.835 7  88911959.43945  21713177.469                    21713186.578
 117274767.231 7  91383031.558 7  22316645.953                    22316655.523
 110139516.474 7  85823020.395 7  20958847.641                    20958856.387
 117609062.358 7  91643496.397 7  22380261.617                    22380273.039
 119423126.476 7  93057051.63545  22725463.250                    22725472.746
 118816653.453 7  92584608.51345  22610046.094                    22610053.781
 126735405.091 7  98754960.82843  24116951.336                    24116961.770
 11  8 26  2 53 30.0000000  0 10G21G12G05G26G15G29G25G30G02G18
 128204207.984 6  99899471.19043  24396453.289                    24396462.551
 122791178.048 7  95681498.926 6  23366384.156                    23366393.738
 113728757.630 8  88619922.958 7  21641837.117                    21641845.465
 114045602.407 7  88866790.04745  21702146.430                    21702155.574
 117187610.245 7  91315117.066 7  22300060.805                    22300069.766
 110081952.590 8  85778165.449 7  20947893.602                    20947902.418
 117668822.418 7  91690062.664 7  22391634.023                    22391645.219
 119487743.286 7  93107402.40244  22737759.531                    22737768.984
 118864526.579 7  92621912.22145  22619155.922                    22619163.023
 126653019.834 6  98690764.67543  24101274.414                    24101283.969
 11  8 26  2 54  0.0000000  0 10G21G12G05G26G15G29G25G30G02G18
 128147222.429 6  99855066.94943  24385609.180                    24385618.219
 122883646.885 6  95753552.548 6  23383980.719                    23383989.770
 113802842.980 8  88677651.802 7  21655934.813                    21655943.520
 113988144.054 7  88822017.34345  21691212.750                    21691221.809
 117100693.918 7  91247390.104 7  22283521.031                    22283530.086
 110024734.997 8  85733580.335 7  20937005.359                    20937014.098
 117728928.311 7  91736898.427 7  22403071.375                    22403082.777
 119552668.769 7  93157993.67045  22750114.656                    22750123.809
 118912510.756 7  92659302.45545  22628287.063                    22628294.855
 126570841.407 6  98626729.68643  24085636.438                    24085646.121
 11  8 26  2 54 30.0000000  0 10G21G12G05G26G15G29G25G30G02G18
 128090199.264 6  99810633.39643  24374758.656                    24374767.008
 122976180.514 7  95825656.633 6  23401589.328                    23401597.676
 113877157.641 8  88735559.325 7  21670076.523                    21670084.934
 113931198.129 7  88777643.91745  21680376.016                    21680384.547
 117014021.470 7  91179853.179 7  22267027.656                    22267036.684
 109967866.306 8  85689267.103 7  20926183.617                    20926192.246
 117789377.405 7  91784001.612 7  22414574.781                    22414585.965
 119617900.101 7  93208823.27745  22762527.516                    22762537.266
 118960606.506 7  92696779.65845  22637440.227                    22637446.785
 126488870.768 7  98562856.62743  24070037.930                    24070047.363
 11  8 26  2 55  0.0000000  0 10G21G12G05G26G15G29G25G30G02G18
 128033138.265 6  99766170.34043  24363900.641                    24363909.039
 123068776.467 7  95897809.278 6  23419210.359                    23419218.500
 113951699.427 8  88793643.839 7  21684261.523                    21684270.160
 113874767.724 7  88733672.22045  21669637.422                    21669646.375
 116927596.338 7  91112508.971 7  22250581.516                    22250590.129
 109911349.165 8  85645227.791 7  20915428.539                    20915437.172
 117850166.990 7  91831370.131 7  22426142.188                    22426154.277
 119683434.424 7  93259888.99344  22774998.445                    22775008.266
 119008814.213 7  92734344.08944  22646613.133                    22646619.844
 126407109.311 6  98499146.53143  24054478.891                    24054488.777
 11  8 26  2 55 30.0000000  0 10G21G12G05G26G15G29G25G30G02G18
 127976039.416 6  99721677.81843  24353034.625                    24353043.621
 123161431.877 6  95970008.288 6  23436841.328                    23436850.672
 114026466.136 8  88851903.616 7  21698488.953                    21698497.102
 113818856.207 7  88690104.84445  21658997.852                    21659006.836
 116841421.729 7  91045359.962 7  22234182.930                    22234191.570
 109855186.215 8  85601464.471 7  20904741.344                    20904749.684
 117911294.507 7  91879001.959 7  22437774.336                    22437786.219
 119749268.905 7  93311188.59544  22787526.156                    22787535.688
 119057134.406 7  92771996.15745  22655808.258                    22655814.684
 126325558.340 6  98435600.47343  24038960.109                    24038969.883
 11  8 26  2 56  0.0000000  0 10G21G12G05G26G15G29G25G30G02G18
 127918902.258 6  99677155.44343  24342160.773                    24342170.535
 123254143.553 6  96042251.123 6  23454483.273                    23454493.293
 114101455.287 8  88910336.729 7  21712759.117                    21712767.316
 113763466.623 7  88646944.17545  21648457.484                    21648466.629
 116755500.819 7  90978408.658 7  22217832.766                    22217841.457
 109799379.788 8  85557978.956 7  20894121.742                    20894129.918
 117972756.872 7  91926894.709 7  22449470.914                    22449482.230
 119815400.194 7  93362719.46645  22800110.141                    22800120.156
 119105567.827 7  92809736.47445  22665025.023                    22665030.965
 126244218.478 6  98372218.89743  24023481.141                    24023491.309
 11  8 26  2 56 30.0000000  0 10G21G12G05G26G15G29G25G30G02G18
 127861726.376 6  99632602.89743  24331280.781                    24331290.086
 123346908.661 7  96114535.588 6  23472135.703                    23472146.309
 114176664.438 8  88968941.263 7  21727070.656                    21727079.238
 113708601.548 7  88604192.20545  21638017.453                    21638026.246
 116669836.609 7  90911657.367 7  22201531.734                    22201540.391
 109743931.985 8  85514772.903 7  20883570.727                    20883579.012
 118034551.106 7  91975046.057 7  22461229.328                    22461241.148
 119881825.117 7  93414479.13745  22812750.508                    22812759.859
 119154114.795 7  92847565.26445  22674263.516                    22674269.898
 126163090.630 6  98309002.52943  24008043.102                    24008053.125
 11  8 26  2 57  0.0000000  0 10G21G12G05G26G15G29G25G30G02G18
 127804511.155 6  99588019.69143  24320393.453                    24320402.457
 123439723.608 7  96186858.903 6  23489798.750                    23489808.309
 114252091.080 8  89027715.271 7  21741423.977                    21741432.398
 113654263.842 7  88561851.16245  21627677.141                    21627685.809
 116584431.778 7  90845108.201 7  22185279.547                    22185288.223
 109688844.890 8  85471847.914 7  20873088.039                    20873096.172
 118096674.177 7  92023453.650 7  22473051.000                    22473062.766
 119948540.467 7  93466465.11044  22825446.461                    22825455.621
 119202775.618 7  92885482.77545  22683522.563                    22683529.789
 126082175.806 6  98245952.14643  23992645.484                    23992655.152
 11  8 26  2 57 30.0000000  0 10G21G12G05G26G15G29G25G30G02G18
 127747256.584 6  99543405.83143  24309498.008                    24309506.895
 123532585.848 6  96259219.065 6  23507469.914                    23507479.254
 114327732.921 8  89086656.962 7  21755818.359                    21755826.648
 113600456.952 7  88519923.75745  21617437.633                    21617446.527
 116499289.918 7  90778763.940 7  22169077.633                    22169086.598
 109634121.224 8  85429206.111 7  20862674.430                    20862682.211
 118159123.451 7  92072115.413 7  22484934.961                    22484946.563
 120015543.312 7  93518675.11144  22838196.758                    22838206.293
 119251551.000 7  92923489.55545  22692804.656                    22692811.527
 126001475.035 6  98183068.56943  23977288.844                    23977298.441
 11  8 26  2 58  0.0000000  0 10G21G12G05G26G15G29G25G30G02G18
 127689961.785 6  99498760.63543  24298595.406                    24298604.066
 123625492.420 6  96331613.750 6  23525148.648                    23525158.590
 114403587.426 8  89145764.368 7  21770252.836                    21770261.199
 113547183.362 7  88478411.90245  21607300.398                    21607309.176
 116414413.722 7  90712626.680 7  22152926.031                    22152934.645
 109579762.916 8  85386849.004 7  20852329.789                    20852338.574
 118221895.716 7  92121028.875 7  22496880.188                    22496892.121
 120082830.313 7  93571106.54244  22851001.078                    22851010.742
 119300441.379 7  92961585.94944  22702108.250                    22702114.773
 125920989.166 6  98120352.44143  23961972.359                    23961981.867
 11  8 26  2 58 30.0000000  0 10G21G12G05G26G15G29G25G30G02G18
 127632626.836 6  99454084.15443  24287684.586                    24287693.359
 123718440.636 6  96404040.900 6  23542836.625                    23542845.855
 114479652.454 8  89205035.822 7  21784727.617                    21784736.082
 113494446.338 7  88437318.14845  21597264.945                    21597273.613
 116329806.919 7  90646699.346 7  22136826.242                    22136834.512
 109525772.804 8  85344778.806 7  20842056.109                    20842064.844
 118284988.434 7  92170192.030 7  22508885.758                    22508897.961
 120150398.646 7  93623757.19544  22863858.156                    22863868.176
 119349447.475 7  92999772.51545  22711433.664                    22711440.316
 125840719.299 6  98057804.63143  23946697.445                    23946706.758
 11  8 26  2 59  0.0000000  0 10G21G12G05G26G15G29G25G30G02G18
 127575251.639 6  99409376.32943  24276765.961                    24276775.398
 123811427.281 6  96476497.989 6  23560531.328                    23560541.105
 114555925.533 8  89264469.388 7  21799241.797                    21799250.496
 113442248.663 8  88396644.68245  21587332.102                    21587340.543
 116245472.317 7  90580984.111 7  22120777.430                    22120786.031
 109472153.274 8  85302997.381 7  20831852.359                    20831860.797
 118348398.452 7  92219602.436 7  22520952.883                    22520964.227
 120218245.090 7  93676624.54644  22876769.484                    22876779.289
 119398569.645 7  93038049.52644  22720781.438                    22720787.855
 125760666.539 6  97995425.99743  23931463.477                    23931473.039
 11  8 26  2 59 30.0000000  0 10G21G12G05G26G15G29G25G30G02G18
 127517835.560 6  99364636.62543  24265840.719                    24265849.512
 123904449.316 6  96548982.636 6  23578232.938                    23578242.012
 114632404.225 8  89324063.173 7  21813795.086                    21813803.426
 113390592.973 8  88356393.52245  21577502.094                    21577511.063
 116161412.565 7  90515483.056 7  22104781.805                    22104789.918
 109418906.271 8  85261506.237 8  20821720.031                    20821728.488
 118412122.708 7  92269257.714 7  22533078.938                    22533090.270
 120286366.158 7  93729705.88644  22889732.414                    22889742.211
 119447808.413 7  93076417.37044  22730151.313                    22730158.129
 125680831.276 6  97933216.81843  23916271.164                    23916281.336
 11  8 26  3  0  0.0000000  0 10G21G12G05G26G15G29G25G30G02G18
 127460378.035 6  99319864.65643  24254906.539                    24254915.617
 123997503.909 6  96621492.678 6  23595940.695                    23595949.910
 114709086.301 8  89383815.441 7  21828387.383                    21828395.852
 113339482.411 7  88316567.13745  21567775.883                    21567785.176
 116077631.078 7  90450198.833 7  22088837.938                    22088846.641
 109366033.941 8  85220307.062 8  20811658.875                    20811667.215
 118476158.303 7  92319155.576 7  22545264.570                    22545276.355
 120354758.896 7  93782998.93844  22902747.367                    22902756.539
 119497164.074 7  93114876.33544  22739543.258                    22739549.945
 125601214.630 6  97871177.97543  23901120.930                    23901130.535
 11  8 26  3  0 30.0000000  0 10G21G12G05G26G15G29G25G30G02G18
 127402878.775 6  99275060.15943  24243964.352                    24243973.508
 124090587.949 7  96694025.665 6  23613653.781                    23613663.859
 114785969.134 8  89443724.142 7  21843017.539                    21843026.621
 113288919.449 8  88277167.45445  21558154.555                    21558163.035
 115994130.671 7  90385133.628 7  22072948.797                    22072957.383
 109313538.670 8  85179401.678 8  20801669.172                    20801677.430
 118540502.206 7  92369293.698 7  22557508.375                    22557520.609
 120423420.085 7  93836501.15844  22915812.953                    22915822.379
 119546637.339 7  93153426.93744  22748957.445                    22748964.625
 125521817.633 6  97809310.29743  23886012.094                    23886021.453
 11  8 26  3  1  0.0000000  0 10G21G12G05G26G15G29G25G30G02G18
 127345337.850 6  99230223.21643  24233014.539                    24233023.699
 124183699.004 7  96766579.695 6  23631372.125                    23631382.566
 114863050.532 8  89503787.572 7  21857685.664                    21857694.500
 113238907.263 7  88238196.95945  21548637.086                    21548646.133
 115910914.664 7  90320290.030 7  22057113.109                    22057122.094
 109261423.093 8  85138792.161 7  20791751.938                    20791760.273
 118605151.671 7  92419669.912 7  22569810.953                    22569822.441
 120492346.775 7  93890210.26744  22928929.156                    22928938.613
 119596228.781 7  93192069.61744  22758394.602                    22758401.176
 125442640.907 6  97747614.27343  23870945.203                    23870954.750
 11  8 26  3  1 30.0000000  0 10G21G12G05G26G15G29G25G30G02G18
 127287755.072 6  99185353.62443  24222056.875                    24222065.953
 124276833.909 7  96839152.314 6  23649096.047                    23649105.781
 114940328.144 8  89564003.897 7  21872391.172                    21872399.711
 113189448.749 8  88199657.88545  21539225.391                    21539234.559
 115827986.321 7  90255670.587 7  22041332.133                    22041341.461
 109209689.386 8  85098480.209 7  20781907.008                    20781915.289
 118670103.742 7  92470281.919 7  22582170.906                    22582182.715
 120561535.804 7  93944123.78944  22942095.203                    22942104.602
 119645938.816 7  93230804.72044  22767853.766                    22767860.625
 125363685.629 6  97686090.79443  23855920.563                    23855929.434
 11  8 26  3  2  0.0000000  0 10G21G12G05G26G15G29G25G30G02G18
 127230129.615 6  99140450.79043  24211091.250                    24211100.508
 124369989.523 7  96911741.068 6  23666822.633                    23666832.727
 115017799.877 8  89624371.486 7  21887133.672                    21887141.855
 113140546.263 8  88161552.07245  21529920.055                    21529928.832
 115745348.294 7  90191277.357 7  22025606.953                    22025616.035
 109158339.546 8  85058467.368 7  20772135.359                    20772143.723
 118735355.192 7  92521127.206 7  22594587.898                    22594599.160
 120630983.824 7  93998239.11644  22955310.750                    22955320.547
 119695767.786 7  93269632.48644  22777336.016                    22777342.695
 125284952.347 6  97624740.29543  23840938.008                    23840946.723
 11  8 26  3  2 30.0000000  0 10G21G12G05G26G15G29G25G30G02G18
 127172461.502 6  99095514.71443  24200117.172                    24200126.227
 124463162.730 7  96984343.529 6  23684553.336                    23684562.387
 115095462.834 8  89684888.070 7  21901912.539                    21901920.402
 113092202.383 8  88123881.54745  21520720.234                    21520729.395
 115663003.655 7  90127112.748 7  22009936.711                    22009946.207
 109107375.831 8  85018755.410 7  20762437.922                    20762446.004
 118800902.932 7  92572203.365 7  22607061.398                    22607072.832
 120700687.471 7  94052553.64444  22968574.734                    22968584.813
 119745716.304 7  93308553.39244  22786840.836                    22786847.535
 125206441.906 6  97563563.45343  23825997.875                    23826006.949
 11  8 26  3  3  0.0000000  0 10G21G12G05G26G15G29G25G30G02G18
 127114750.425 6  99050545.17444  24189135.094                    24189144.117
 124556350.946 7  97056957.692 6  23702286.188                    23702295.422
 115173315.104 8  89745552.174 7  21916727.633                    21916735.289
 113044420.222 7  88086648.72045  21511627.406                    21511636.656
 115580955.569 7  90063179.212 7  21994323.820                    21994333.027
 109056800.700 7  84979346.241 7  20752813.445                    20752821.402
 118866744.039 7  92623508.132 7  22619590.680                    22619602.238
 120770643.694 7  94107065.00344  22981887.023                    22981896.953
 119795784.952 7  93347567.91244  22796368.617                    22796375.445
 125128155.318 6  97502561.04443  23811100.047                    23811110.000
 11  8 26  3  3 30.0000000  0 10G21G12G05G26G15G29G25G30G02G18
 127056996.324 7  99005542.09443  24178144.938                    24178153.621
 124649551.738 7  97129581.648 6  23720021.969                    23720030.770
 115251354.457 8  89806362.044 7  21931577.859                    21931585.777
 112997202.823 8  88049855.96745  21502642.203                    21502651.758
 115499207.430 7  89999479.408 7  21978767.531                    21978776.500
 109006616.830 8  84940241.948 7  20743263.875                    20743272.121
 118932875.967 7  92675039.510 7  22632175.156                    22632186.402
 120840849.759 7  94161771.00544  22995247.125                    22995256.578
 119845974.222 7  93386676.42744  22805919.477                    22805926.699
 125050093.621 6  97441733.85943  23796245.734                    23796255.230
 11  8 26  3  4  0.0000000  0 10G21G12G05G26G15G29G25G30G02G18
 126999198.565 7  98960504.97343  24167146.094                    24167154.594
 124742761.578 7  97202212.633 6  23737758.789                    23737767.703
 115329578.166 8  89867315.600 7  21946463.219                    21946471.227
 112950552.384 7  88013504.99745  21493765.031                    21493773.906
 115417761.952 7  89936015.440 7  21963268.836                    21963277.762
 108956826.059 7  84901443.971 8  20733788.883                    20733797.543
 118999295.483 7  92726794.983 7  22644814.383                    22644826.016
 120911302.318 7  94216669.08644  23008653.633                    23008662.602
 119896284.772 7  93425879.44144  22815493.273                    22815500.313
 124972257.510 6  97381082.44543  23781433.555                    23781442.918
 11  8 26  3  4 30.0000000  0 10G21G12G05G26G15G29G25G30G02G18
 126941356.653 7  98915433.46044  24156139.375                    24156147.828
 124835977.873 7  97274848.677 6  23755497.172                    23755506.906
 115407984.396 8  89928411.360 7  21961383.266                    21961391.488
 112904471.657 7  87977597.97345  21484996.266                    21485005.574
 115336621.866 7  89872789.442 7  21947828.492                    21947837.566
 108907430.553 8  84862953.990 7  20724389.148                    20724397.309
 119065999.432 7  92778772.099 7  22657507.727                    22657519.488
 120981997.922 7  94271756.56244  23022106.648                    23022116.266
 119946716.955 7  93465177.23844  22825090.555                    22825096.543
 124894647.652 6  97320607.32543  23766664.523                    23766674.188
 11  8 26  3  5  0.0000000  0 10G21G12G05G26G15G29G25G30G02G18
 126883470.506 7  98870327.47343  24145123.984                    24145132.434
 124929197.464 7  97347487.296 6  23773237.398                    23773246.672
 115486570.434 8  89989647.244 7  21976337.711                    21976345.926
 112858963.003 8  87942136.71645  21476336.055                    21476345.004
 115255790.676 7  89809804.141 7  21932446.742                    21932455.410
 108858432.232 8  84824773.496 8  20715065.164                    20715073.453
 119132984.567 7  92830968.312 7  22670254.422                    22670266.379
 121052933.277 7  94327030.85444  23035605.430                    23035615.176
 119997271.219 7  93504570.16644  22834710.680                    22834717.152
 124817264.709 6  97260309.03143  23751939.078                    23751948.844
 11  8 26  3  5 30.0000000  0 10G21G12G05G26G15G29G25G30G02G18
 126825540.018 7  98825186.94344  24134100.102                    24134108.867
 125022417.364 7  97420126.148 6  23790975.492                    23790985.246
 115565334.096 8  90051021.534 7  21991326.102                    21991333.820
 112814028.987 8  87907123.22445  21467785.391                    21467794.156
 115175270.761 7  89747061.386 7  21917124.672                    21917133.332
 108809833.670 8  84786904.505 7  20705816.734                    20705825.410
 119200247.929 7  92883381.323 7  22683054.109                    22683065.879
 121124105.203 7  94382489.51644  23049149.016                    23049159.188
 120047948.046 7  93544058.59444  22844354.102                    22844360.902
 124740109.578 6  97200188.25643  23737257.117                    23737266.387
 11  8 26  3  6  0.0000000  0 10G21G12G05G26G15G29G25G30G02G18
 126767564.842 7  98780011.57644  24123067.211                    24123076.520
 125115635.250 7  97492763.440 6  23808714.609                    23808724.668
 115644273.060 8  90112532.402 7  22006347.906                    22006355.820
 112769672.943 7  87872560.11545  21459344.422                    21459353.414
 115095065.945 7  89684564.170 7  21901861.813                    21901870.395
 108761637.322 7  84749348.928 8  20696645.539                    20696654.098
 119267786.939 7  92936009.121 7  22695906.281                    22695918.199
 121195510.956 7  94438130.36444  23062737.156                    23062746.629
 120098748.318 7  93583643.21744  22854020.906                    22854027.234
 124663183.372 6  97140245.87543  23722618.789                    23722627.992
 11  8 26  3  6 30.0000000  0 10G21G12G05G26G15G29G25G30G02G18
 126709544.830 6  98734801.26943  24112026.773                    24112034.734
 125208848.196 6  97565396.857 6  23826452.336                    23826462.645
 115723385.172 7  90174178.204 7  22021401.859                    22021410.098
 112725897.103 8  87838449.09345  21451014.219                    21451023.406
 115015179.013 7  89622314.647 7  21886660.070                    21886668.441
 108713845.546 8  84712108.598 8  20687550.820                    20687559.348
 119335598.555 7  92988849.346 7  22708810.367                    22708821.941
 121267147.409 7  94493950.99044  23076368.836                    23076378.473
 120149672.369 7  93623324.30045  22863711.469                    22863718.762
 124586486.875 6  97080482.45943  23708023.430                    23708032.695
 11  8 26  3  7  0.0000000  0 10G21G12G05G26G15G29G25G30G02G18
 126651479.929 7  98689555.97044  24100977.172                    24100985.539
 125302053.105 7  97638023.997 6  23844188.930                    23844198.691
 115802668.134 7  90235957.137 7  22036488.961                    22036496.879
 112682703.907 8  87804792.09145  21442794.969                    21442803.977
 114935612.988 7  89560315.193 7  21871519.094                    21871527.473
 108666460.377 8  84675185.109 7  20678533.953                    20678542.434
 119403679.602 7  93041899.501 7  22721765.828                    22721777.098
 121339011.188 7  94549948.72744  23090043.469                    23090053.504
 120200720.716 7  93663102.21745  22873425.648                    22873433.191
 124510020.763 6  97020898.56343  23693471.867                    23693481.930
 11  8 26  3  7 30.0000000  0 10G21G12G05G26G15G29G25G30G02G18
 126593369.599 7  98644275.28843  24089918.906                    24089927.871
 125395247.368 6  97710642.831 6  23861922.969                    23861933.340
 115882119.397 8  90297867.213 7  22051608.305                    22051616.316
 112640095.941 8  87771591.12345  21434686.992                    21434695.859
 114856370.699 7  89498567.983 7  21856439.297                    21856447.965
 108619483.808 8  84638580.011 8  20669594.695                    20669602.922
 119472026.831 7  93095157.088 7  22734771.844                    22734783.406
 121411098.876 7  94606120.93144  23103761.789                    23103771.648
 120251893.862 7  93702977.37244  22883162.992                    22883171.043
 124433785.720 6  96961494.74543  23678964.797                    23678975.066
 11  8 26  3  8  0.0000000  0 10G21G12G05G26G15G29G25G30G02G18
 126535213.574 7  98598958.98443  24078852.516                    24078861.008
 125488427.703 7  97783250.840 6  23879654.703                    23879664.719
 115961737.069 8  90359906.958 7  22066759.031                    22066767.656
 112598075.332 8  87738847.82345  21426690.602                    21426699.957
 114777454.980 7  89437075.259 7  21841422.188                    21841431.375
 108572917.921 8  84602294.919 8  20660733.375                    20660741.512
 119540637.272 7  93148619.764 7  22747828.297                    22747839.637
 121483407.355 7  94662465.20144  23117521.633                    23117531.340
 120303192.100 7  93742950.03644  22892925.016                    22892932.156
 124357782.297 7  96902271.37643  23664502.195                    23664511.488
 11  8 26  3  8 30.0000000  0 10G21G12G05G26G15G29G25G30G02G18
 126477011.992 7  98553607.17543  24067776.781                    24067784.633
 125581591.570 7  97855846.011 6  23897383.203                    23897392.770
 116041518.925 8  90422074.631 7  22081940.898                    22081949.465
 112556644.972 8  87706564.45645  21418806.547                    21418815.637
 114698869.284 7  89375839.692 7  21826467.781                    21826476.426
 108526765.138 8  84566331.730 8  20651950.602                    20651959.156
 119609507.863 7  93202285.143 7  22760933.719                    22760945.762
 121555933.472 7  94718979.06144  23131322.773                    23131332.457
 120354616.048 7  93783020.63845  22902711.305                    22902718.301
 124282011.357 7  96843229.16143  23650083.516                    23650092.492
 11  8 26  3  9  0.0000000  0 10G21G12G05G26G15G29G25G30G02G18
 126418764.642 6  98508219.70743  24056692.414                    24056701.047
 125674736.216 6  97928426.198 6  23915108.016                    23915117.898
 116121462.517 7  90484368.340 7  22097153.398                    22097162.316
 112515807.383 8  87674742.98245  21411035.609                    21411044.281
 114620616.314 7  89314863.392 7  21811576.969                    21811585.465
 108481027.981 8  84530692.404 7  20643247.234                    20643255.781
 119678635.860 7  93256151.112 7  22774088.578                    22774099.938
 121628674.190 7  94775660.14644  23145165.016                    23145174.867
 120406166.505 7  93823189.80644  22912520.438                    22912527.945
 124206473.894 7  96784368.89143  23635708.516                    23635718.063
 11  8 26  3  9 30.0000000  0 10G21G12G05G26G15G29G25G30G02G18
 126360470.781 6  98462796.00243  24045599.148                    24045608.391
 125767858.600 6  98000989.039 6  23932828.227                    23932838.555
 116201565.737 8  90546786.444 7  22112397.109                    22112405.461
 112475564.813 8  87643385.15845  21403377.328                    21403386.234
 114542699.162 7  89254148.762 7  21796749.617                    21796758.094
 108435708.177 8  84495378.288 8  20634623.219                    20634631.707
 119748017.945 7  93310215.070 7  22787291.180                    22787302.695
 121701626.248 7  94832505.89744  23159047.742                    23159057.320
 120457843.874 7  93863457.89144  22922354.789                    22922360.957
 124131170.626 6  96725691.11943  23621379.242                    23621388.477
 11  8 26  3 10  0.0000000  0 10G21G12G05G26G15G29G25G30G02G18
 126302130.749 6  98417336.32243  24034498.133                    24034505.730
 125860955.958 6  98073532.382 6  23950544.078                    23950554.289
 116281826.146 8  90609327.017 7  22127669.820                    22127678.430
 112435919.414 8  87612492.66745  21395833.125                    21395842.324
 114465120.563 7  89193697.944 7  21781986.445                    21781995.301
 108390808.057 8  84460391.207 8  20626079.180                    20626087.473
 119817651.005 7  93364474.592 7  22800541.867                    22800553.316
 121774786.292 7  94889513.70944  23172969.906                    23172979.184
 120509648.680 7  93903825.25644  22932212.281                    22932218.949
 124056101.917 6  96667196.10943  23607094.328                    23607102.953
 11  8 26  3 10 30.0000000  0 10G21G12G05G26G15G29G25G30G02G18
 126243744.005 7  98371840.26244  24023386.789                    24023395.133
 125954025.749 7  98146054.257 6  23968254.648                    23968265.414
 116362241.487 8  90671988.331 7  22142972.563                    22142980.816
 112396873.978 8  87582067.68545  21388402.695                    21388412.043
 114387883.562 7  89133513.320 7  21767289.203                    21767298.113
 108346329.346 8  84425732.490 8  20617614.961                    20617623.301
 119887532.160 7  93418927.434 7  22813840.102                    22813851.453
 121848151.230 7  94946681.19544  23186930.422                    23186939.598
 120561581.178 7  93944292.12844  22942095.063                    22942101.688
 123981268.488 7  96608884.43443  23592853.938                    23592862.098
 11  8 26  3 11  0.0000000  0 10G21G12G05G26G15G29G25G30G02G18
 126185310.586 7  98326307.79644  24012267.453                    24012276.082
 126047065.140 7  98218552.448 6  23985960.242                    23985969.770
 116442809.893 8  90734768.908 7  22158304.211                    22158312.273
 112358430.694 8  87552111.90745  21381087.555                    21381096.332
 114310991.382 7  89073597.374 7  21752656.930                    21752665.703
 108302274.786 8  84391404.286 8  20609231.508                    20609240.117
 119957658.353 7  93473571.213 7  22827184.773                    22827196.281
 121921718.125 7  95004006.02444  23200929.305                    23200938.875
 120613642.061 7  93984859.05344  22952001.508                    22952008.730
 123906671.374 7  96550756.91243  23578658.773                    23578667.121
 11  8 26  3 11 30.0000000  0 10G21G12G05G26G15G29G25G30G02G18
 126126829.907 7  98280738.50344  24001139.336                    24001147.727
 126140070.748 7  98291024.315 6  24003658.680                    24003668.465
 116523528.534 7  90797666.561 7  22173664.273                    22173672.781
 112320591.406 8  87522626.77045  21373887.102                    21373895.879
 114234446.196 7  89013951.813 7  21738091.008                    21738100.031
 108258645.758 8  84357407.654 8  20600929.414                    20600937.785
 120028025.940 7  93528403.085 7  22840575.180                    22840586.926
 121995483.068 7  95061485.18444  23214967.047                    23214976.063
 120665831.744 7  94025526.33644  22961932.969                    22961940.000
 123832310.681 7  96492813.60843  23564507.656                    23564516.930
 11  8 26  3 12  0.0000000  0 10G21G12G05G26G15G29G25G30G02G18
 126068301.915 7  98235132.37544  23990001.109                    23990009.953
 126233040.082 6  98363467.907 6  24021350.117                    24021359.629
 116604395.378 7  90860679.697 7  22189052.641                    22189060.855
 112283358.593 8  87493614.21245  21366801.438                    21366810.719
 114158251.418 7  88954579.298 7  21723591.586                    21723600.406
 108215444.647 8  84323744.472 8  20592708.406                    20592716.508
 120098632.157 7  93583420.901 7  22854010.859                    22854022.160
 122069443.068 6  95119116.35944  23229040.992                    23229050.512
 120718150.966 7  94066294.55244  22971889.297                    22971896.371
 123758187.334 7  96435055.27043  23550402.297                    23550411.316
 11  8 26  3 12 30.0000000  0 10G21G12G05G26G15G29G25G30G02G18
 126009726.868 7  98189489.56844  23978855.070                    23978863.543
 126325970.624 7  98435881.267 6  24039034.063                    24039043.754
 116685408.414 7  90923806.735 7  22204469.078                    22204477.031
 112246734.831 8  87465076.25145  21359832.430                    21359841.336
 114082410.290 8  88895482.347 7  21709159.656                    21709168.301
 108172673.889 8  84290416.622 8  20584569.781                    20584577.605
 120169474.259 7  93638622.528 7  22867491.750                    22867503.469
 122143595.378 7  95176897.38444  23243151.570                    23243161.598
 120770600.070 7  94107163.96744  22981870.211                    22981876.918
 123684302.325 6  96377482.62043  23536342.625                    23536351.391
 11  8 26  3 13  0.0000000  0 10G21G12G05G26G15G29G25G30G02G18
 125951104.408 7  98143809.80744  23967699.375                    23967708.098
 126418859.499 6  98508262.189 6  24056710.273                    24056719.586
 116766565.353 7  90987045.923 7  22219912.883                    22219920.734
 112210722.313 8  87437014.57245  21352979.344                    21352988.383
 114006925.448 7  88836663.039 7  21694794.922                    21694803.602
 108130335.548 8  84257425.724 8  20576512.750                    20576520.711
 120240549.015 7  93694005.449 7  22881017.164                    22881029.078
 122217936.611 7  95234825.61344  23257298.289                    23257308.344
 120823179.659 7  94148135.05144  22991876.117                    22991882.570
 123610656.214 7  96320096.13144  23522327.727                    23522336.645
 11  8 26  3 13 30.0000000  0 10G21G12G05G26G15G29G25G30G02G18
 125892434.383 7  98098092.98144  23956535.164                    23956543.070
 126511704.125 7  98580608.595 6  24074378.336                    24074387.375
 116847864.492 7  91050395.911 7  22235383.469                    22235392.246
 112175323.553 8  87409431.15645  21346243.352                    21346252.125
 113931800.130 8  88778123.867 7  21680499.094                    21680507.918
 108088431.944 8  84224773.574 8  20568538.641                    20568546.656
 120311853.495 7  93749567.361 7  22894585.813                    22894597.559
 122292463.676 7  95292898.63044  23271480.500                    23271489.852
 120875890.305 7  94189208.27344  23001905.922                    23001913.500
 123537249.625 7  96262896.28044  23508359.461                    23508368.156
 11  8 26  3 14  0.0000000  0 10G21G12G05G26G15G29G25G30G02G18
 125833716.755 7  98052339.07443  23945360.641                    23945368.863
 126604501.281 7  98652918.010 6  24092036.758                    24092046.031
 116929302.911 7  91113854.418 7  22250880.570                    22250888.848
 112140539.940 8  87382327.06145  21339624.133                    21339632.770
 113857036.512 8  88719866.544 7  21666272.461                    21666281.199
 108046964.462 8  84192461.268 8  20560647.680                    20560655.813
 120383384.052 7  93805305.462 7  22908197.719                    22908209.258
 122367172.935 7  95351113.62444  23285696.359                    23285706.070
 120928732.222 7  94230383.78044  23011961.781                    23011969.074
 123464082.824 7  96205883.27143  23494436.563                    23494445.035
 11  8 26  3 14 30.0000000  0 10G21G12G05G26G15G29G25G30G02G18
 125774951.200 7  98006547.82344  23934177.938                    23934185.980
 126697248.213 7  98725188.293 6  24109685.906                    24109695.422
 117010878.641 7  91177419.930 7  22266403.805                    22266412.098
 112106373.929 8  87355704.21745  21333122.320                    21333131.102
 113782637.615 8  88661893.402 7  21652114.336                    21652123.359
 108005935.293 8  84160490.499 8  20552840.180                    20552847.906
 120455137.871 7  93861217.505 7  22921851.906                    22921863.563
 122442061.417 7  95409468.27844  23299947.727                    23299957.469
 120981706.089 7  94271662.08444  23022042.625                    23022049.543
 123391156.412 7  96149057.58344  23480558.727                    23480567.680
